Date StartTime U_cm/s V_cm/s W_cm/s Ustd_cm/s Vstd_cm/s Wstd_cm/s Uvar_(cm/s)^2 Vvar_(cm/s)^2 Wvar_(cm/s)^2 KE_(m/s)^2 TurbulentKE_(m/s)^2 HorizWindSpeed_cm/s FrictionSpeec_cm/s DragCoef SpeedOfSound_m/s SonicTemperature_C Pressure_mb 
05/14/2014  00:00:00      -56.818      -64.405       -4.244       39.159       28.064       24.319     1533.422      787.610      591.419        0.515        0.146       85.885       25.352        0.087      339.831       13.434      870.092
05/14/2014  00:01:00        7.040      -18.484       26.592       24.163       22.033       18.410      583.849      485.464      338.929        0.125        0.070       19.779       12.610        0.406      339.760       13.315      870.100
05/14/2014  00:02:00      -39.776      -17.008       -1.939       40.738       19.250       23.926     1659.558      370.568      572.466        0.224        0.130       43.260       28.831        0.444      339.828       13.430      870.109
05/14/2014  00:03:00      -84.372      -50.248      -11.445       28.986       16.917       14.894      840.193      286.199      221.823        0.556        0.067       98.201       11.953        0.015      339.770       13.332      870.105
05/14/2014  00:04:00     -116.742      -36.025      -23.113       11.936       13.040       10.057      142.476      170.046      101.137        0.794        0.021      122.174        8.110        0.004      339.620       13.078      870.100
05/14/2014  00:05:00      -90.381      -30.086      -17.091       21.861       22.070       13.461      477.921      487.096      181.198        0.526        0.057       95.257        6.687        0.005      339.664       13.154      870.097
05/14/2014  00:06:00      -82.345      -18.340      -14.297       27.646       15.928       12.221      764.321      253.701      149.354        0.424        0.058       84.363       10.792        0.016      339.762       13.318      870.091
05/14/2014  00:07:00      -86.119      -24.734      -10.536       23.155       25.434       16.096      536.167      646.881      259.076        0.479        0.072       89.601       11.275        0.016      339.832       13.436      870.092
05/14/2014  00:08:00      -89.052      -27.987      -13.884       22.736       22.497       14.701      516.914      506.123      216.122        0.507        0.062       93.346       12.077        0.017      339.636       13.106      870.099
05/14/2014  00:09:00     -109.560      -41.583      -15.392       25.536       27.891       18.139      652.093      777.888      329.006        0.786        0.088      117.186       14.098        0.014      339.540       12.943      870.107
05/14/2014  00:10:00      -85.462      -49.972      -22.218       33.334       30.833       22.454     1111.142      950.645      504.165        0.643        0.128       98.999       10.541        0.011      339.577       13.005      870.101
05/14/2014  00:11:00      -54.231      -58.899        2.941       54.664       38.157       33.105     2988.116     1455.938     1095.952        0.598        0.277       80.063       30.315        0.143      339.522       12.913      870.098
05/14/2014  00:12:00     -127.570      -43.888      -23.049       18.032       18.438       12.428      325.167      339.970      154.457        0.978        0.041      134.909        5.506        0.002      339.491       12.861      870.081
05/14/2014  00:13:00     -147.218      -41.057      -16.433       16.813       17.765       13.561      282.694      315.590      183.912        1.221        0.039      152.836       11.388        0.006      339.497       12.871      870.078
05/14/2014  00:14:00     -102.664      -53.487      -11.147       38.334       29.729       19.094     1469.467      883.832      364.595        0.812        0.136      115.762       13.895        0.014      339.493       12.864      870.076
05/14/2014  00:15:00      -96.557      -53.904      -10.328       25.398       21.699       15.434      645.042      470.847      238.220        0.684        0.068      110.585       15.077        0.019      339.545       12.951      870.072
05/14/2014  00:16:00     -106.551      -63.100      -11.940       29.128       21.451       17.984      848.446      460.160      323.428        0.855        0.082      123.834       16.848        0.019      339.513       12.897      870.070
05/14/2014  00:17:00     -126.634      -50.034      -13.322       23.797       16.970       15.170      566.315      287.998      230.131        0.990        0.054      136.160       14.005        0.011      339.499       12.873      870.071
05/14/2014  00:18:00     -137.637      -43.281       -9.025       22.315       22.988       16.472      497.968      528.438      271.312        1.110        0.065      144.281       13.851        0.009      339.536       12.936      870.069
05/14/2014  00:19:00      -83.327      -39.640       -1.889       36.274       19.811       16.821     1315.780      392.492      282.940        0.525        0.100       92.275       17.949        0.038      339.560       12.976      870.082
05/14/2014  00:20:00      -64.126      -48.109        3.454       40.110       22.218       22.852     1608.814      493.644      522.208        0.453        0.131       80.166       21.365        0.071      339.610       13.062      870.099
05/14/2014  00:21:00      -77.352      -89.585       12.927       52.435       48.648       29.022     2749.456     2366.588      842.298        1.007        0.298      118.358       35.781        0.091      339.570       12.994      870.101
05/14/2014  00:22:00      -97.292     -107.908        5.330       45.084       53.345       28.017     2032.568     2845.669      784.948        1.340        0.283      145.293       25.252        0.030      339.514       12.899      870.093
05/14/2014  00:23:00     -118.240      -99.294       -5.575       60.594       70.931       28.997     3671.664     5031.229      840.833        1.671        0.477      154.402       35.120        0.052      339.477       12.834      870.077
05/14/2014  00:24:00     -145.673      -89.385      -19.312       59.649       35.836       24.935     3557.953     1284.225      621.761        1.752        0.273      170.910       22.957        0.018      339.502       12.877      870.067
05/14/2014  00:25:00     -132.425      -89.697        5.163       50.982       37.045       30.073     2599.190     1372.344      904.402        1.524        0.244      159.943       27.927        0.030      339.442       12.777      870.066
05/14/2014  00:26:00      -98.795      -75.020       -2.133       44.627       25.581       20.652     1991.576      654.369      426.509        0.923        0.154      124.050       14.481        0.014      339.478       12.837      870.070
05/14/2014  00:27:00      -91.611      -64.586        0.554       48.562       38.723       27.131     2358.272     1499.488      736.092        0.858        0.230      112.089       28.640        0.065      339.439       12.772      870.063
05/14/2014  00:28:00     -125.505      -94.008        0.739       36.525       32.798       22.529     1334.060     1075.698      507.539        1.375        0.146      156.809       14.886        0.009      339.473       12.830      870.043
05/14/2014  00:29:00     -109.826      -79.507       -3.518       42.290       35.231       23.280     1788.454     1241.201      541.948        1.098        0.179      135.585       20.257        0.022      339.472       12.829      870.036
05/14/2014  00:30:00      -99.333      -78.987        4.898       48.466       42.760       30.625     2349.000     1828.458      937.909        1.062        0.256      126.910       25.979        0.042      339.417       12.735      870.032
05/14/2014  00:31:00      -91.126      -76.200        1.434       52.220       39.668       30.530     2726.967     1573.523      932.102        0.967        0.262      118.787       27.481        0.054      339.410       12.724      870.023
05/14/2014  00:32:00      -72.896      -86.195        8.178       65.558       52.446       32.449     4297.902     2750.536     1052.936        1.045        0.405      112.886       38.167        0.114      339.409       12.722      870.022
05/14/2014  00:33:00     -122.787      -91.651        3.065       62.497       38.857       29.157     3905.900     1509.887      850.102        1.487        0.313      153.221       35.020        0.052      339.415       12.731      870.023
05/14/2014  00:34:00     -116.879      -75.701        3.853       68.636       47.467       32.003     4710.849     2253.129     1024.178        1.370        0.399      139.253       29.442        0.045      339.487       12.852      870.039
05/14/2014  00:35:00     -113.399      -72.316        8.487       63.357       47.570       32.250     4014.052     2262.911     1040.072        1.274        0.366      134.495       29.758        0.049      339.427       12.752      870.054
05/14/2014  00:36:00     -155.818      -89.615       -0.813       50.731       40.993       28.759     2573.679     1680.387      827.103        1.869        0.254      179.750       22.882        0.016      339.390       12.690      870.047
05/14/2014  00:37:00     -146.745      -86.716        5.341       56.874       42.142       30.092     3234.613     1775.944      905.535        1.750        0.296      170.452       28.586        0.028      339.352       12.625      870.043
05/14/2014  00:38:00      -96.251      -68.396        1.197       64.513       45.684       33.262     4161.972     2087.010     1106.372        1.065        0.368      118.078       24.716        0.044      339.350       12.622      870.047
05/14/2014  00:39:00     -119.965     -108.500       -5.733       53.352       54.576       29.819     2846.425     2978.549      889.169        1.645        0.336      161.752       29.656        0.034      339.224       12.410      870.056
05/14/2014  00:40:00     -100.395     -100.211        7.719       63.862       44.866       32.998     4078.393     2012.919     1088.884        1.368        0.359      141.849       35.259        0.062      339.210       12.387      870.061
05/14/2014  00:41:00      -98.069      -84.085        5.075       60.724       39.642       23.636     3687.344     1571.505      558.682        1.126        0.291      129.182       23.762        0.034      339.188       12.350      870.058
05/14/2014  00:42:00     -155.071     -118.298       -1.780       60.155       45.591       29.351     3618.646     2078.530      861.509        2.230        0.328      195.042       27.585        0.020      339.245       12.443      870.055
05/14/2014  00:43:00     -158.046      -94.435        3.004       62.282       40.201       36.618     3879.048     1616.119     1340.850        2.037        0.342      184.110       33.743        0.034      339.223       12.407      870.056
05/14/2014  00:44:00     -103.305      -73.985        7.814       64.239       49.146       33.070     4126.702     2415.357     1093.624        1.192        0.382      127.066       32.393        0.065      339.159       12.300      870.054
05/14/2014  00:45:00     -125.197      -95.643        9.173       60.520       40.354       32.133     3662.700     1628.429     1032.529        1.561        0.316      157.549       37.085        0.055      339.119       12.235      870.049
05/14/2014  00:46:00     -143.826      -70.539       -3.484       61.006       28.984       25.197     3721.776      840.092      634.909        1.543        0.260      160.193       26.178        0.027      339.100       12.201      870.052
05/14/2014  00:47:00     -128.470      -78.960       -1.635       53.716       32.446       30.942     2885.370     1052.732      957.382        1.382        0.245      150.795       27.149        0.032      339.039       12.099      870.066
05/14/2014  00:48:00     -130.288      -75.230       -0.379       46.205       30.129       20.915     2134.864      907.757      437.440        1.306        0.174      150.448       19.459        0.017      339.069       12.148      870.063
05/14/2014  00:49:00     -137.240      -70.825        0.608       52.212       37.624       25.286     2726.078     1415.573      639.376        1.432        0.239      154.437       26.056        0.028      339.028       12.081      870.064
05/14/2014  00:50:00     -104.862      -68.728        2.687       47.982       33.154       25.311     2302.294     1099.208      640.630        0.988        0.202      125.378       26.790        0.046      339.058       12.132      870.087
05/14/2014  00:51:00     -101.712      -71.669        0.522       45.942       29.180       21.524     2110.630      851.474      463.290        0.945        0.171      124.425       23.254        0.035      339.096       12.195      870.093
05/14/2014  00:52:00     -136.099      -83.360       -5.288       36.276       26.020       18.938     1315.935      677.051      358.635        1.393        0.118      159.599       19.811        0.015      339.090       12.185      870.092
05/14/2014  00:53:00     -130.112      -52.647       -2.580       23.791       31.655       16.722      566.014     1002.029      279.640        1.078        0.092      140.359       14.262        0.010      339.088       12.183      870.096
05/14/2014  00:54:00     -133.233      -38.386       -4.563       34.214       26.393       17.655     1170.570      696.598      311.707        1.071        0.109      138.652       14.137        0.010      339.069       12.150      870.092
05/14/2014  00:55:00     -145.034      -49.272       -6.103       31.336       27.985       18.507      981.940      783.151      342.502        1.280        0.105      153.175       13.958        0.008      339.031       12.086      870.080
05/14/2014  00:56:00     -177.830      -31.335       -6.174       42.487       30.315       21.290     1805.126      919.008      453.251        1.791        0.159      180.569       18.536        0.011      338.970       11.983      870.062
05/14/2014  00:57:00     -115.475      -61.224        2.997       49.311       52.668       28.827     2431.610     2773.918      830.996        1.156        0.302      130.701       23.384        0.032      338.950       11.951      870.055
05/14/2014  00:58:00     -135.149      -74.205        0.900       36.674       40.249       26.410     1344.947     1620.000      697.478        1.372        0.183      154.181       24.369        0.025      338.885       11.841      870.059
05/14/2014  00:59:00      -96.578      -30.113       -0.375       34.148       28.317       18.861     1166.106      801.852      355.741        0.628        0.116      101.164       17.614        0.030      338.921       11.902      870.062
05/14/2014  01:00:00      -85.008      -63.714       -8.862       36.716       27.016       18.268     1348.033      729.870      333.724        0.689        0.121      106.235       17.621        0.028      339.000       12.032      870.071
05/14/2014  01:01:00     -106.388      -57.655      -12.542       15.493       25.956       13.336      240.046      673.706      177.848        0.795        0.055      121.006       12.398        0.010      339.008       12.047      870.087
05/14/2014  01:02:00      -77.940      -46.399       -2.601       35.199       23.739       17.311     1239.002      563.555      299.680        0.517        0.105       90.705       13.731        0.023      339.074       12.157      870.094
05/14/2014  01:03:00      -83.759      -53.372        2.984       37.716       20.541       20.797     1422.504      421.943      432.515        0.607        0.114       99.318       19.615        0.039      339.005       12.041      870.093
05/14/2014  01:04:00     -134.940      -55.889       -8.807       18.334       15.958       13.241      336.129      254.643      175.321        1.109        0.038      146.056       10.588        0.005      338.932       11.919      870.091
05/14/2014  01:05:00     -153.874      -42.922      -10.464       26.781       32.421       20.110      717.226     1051.091      404.413        1.390        0.109      159.749       13.789        0.007      339.021       12.069      870.073
05/14/2014  01:06:00     -115.241      -57.992       -0.597       32.590       33.839       21.535     1062.125     1145.069      463.757        0.966        0.134      129.010       15.968        0.015      339.060       12.136      870.050
05/14/2014  01:07:00     -101.963      -51.891        0.318       44.355       42.310       21.197     1967.325     1790.120      449.327        0.865        0.210      114.407       19.828        0.030      339.135       12.260      870.035
05/14/2014  01:08:00     -107.530      -73.655       -5.923       32.307       36.370       23.925     1043.730     1322.796      572.422        0.998        0.147      130.337       18.037        0.019      339.091       12.187      870.029
05/14/2014  01:09:00      -74.605      -40.906        8.208       48.972       40.777       23.974     2398.217     1662.801      574.762        0.597        0.232       85.084       29.159        0.117      338.964       11.973      870.038
05/14/2014  01:10:00     -106.150      -45.175       -3.710       26.867       26.126       16.803      721.841      682.548      282.328        0.750        0.084      115.363       14.906        0.017      338.969       11.982      870.029
05/14/2014  01:11:00     -129.053      -54.769       -9.924       25.251       21.676       13.038      637.589      469.855      169.980        1.051        0.064      140.194       11.472        0.007      338.965       11.977      870.019
05/14/2014  01:12:00      -64.487      -54.720       -0.185       48.344       32.713       30.934     2337.148     1070.114      956.943        0.576        0.218       84.575       33.794        0.160      338.991       12.019      870.022
05/14/2014  01:13:00      -20.086      -28.732        1.508       26.148       26.508       17.207      683.728      702.677      296.067        0.146        0.084       35.057       11.436        0.106      338.986       12.010      870.037
05/14/2014  01:14:00      -86.202       -6.177       -5.634       18.164       19.089       12.627      329.924      364.399      159.442        0.418        0.043       86.423       11.334        0.017      338.973       11.989      870.044
05/14/2014  01:15:00      -81.947      -11.428      -13.638       27.956       25.493       12.971      781.513      649.883      168.255        0.432        0.080       82.740        9.277        0.013      339.051       12.120      870.042
05/14/2014  01:16:00      -37.782      -33.647       -0.052       33.827       13.952       18.054     1144.299      194.650      325.965        0.211        0.083       50.593       18.223        0.130      338.993       12.021      870.040
05/14/2014  01:17:00      -51.595      -52.112       -0.439       44.349       22.996       14.483     1966.816      528.839      209.761        0.404        0.135       73.332       20.300        0.077      338.960       11.967      870.052
05/14/2014  01:18:00      -15.642      -40.188       10.309       23.871       15.784       16.367      569.808      249.119      267.871        0.153        0.054       43.125       14.939        0.120      338.979       11.999      870.062
05/14/2014  01:19:00      -21.433      -33.116       15.045       37.631       24.267       16.931     1416.082      588.903      286.668        0.204        0.115       39.447       20.732        0.276      338.920       11.900      870.061
05/14/2014  01:20:00      -22.501      -34.556        9.805       29.355       25.610       20.857      861.740      655.867      435.012        0.187        0.098       41.236       19.941        0.234      338.854       11.790      870.059
05/14/2014  01:21:00      -59.362      -60.162        2.399       49.434       30.353       24.289     2443.686      921.319      589.973        0.555        0.198       84.518       27.759        0.108      338.918       11.897      870.056
05/14/2014  01:22:00      -76.613      -79.505        1.771       41.877       26.810       22.193     1753.646      718.753      492.527        0.758        0.148      110.411       21.205        0.037      338.940       11.933      870.052
05/14/2014  01:23:00     -121.370     -102.820       -8.045       40.363       56.736       26.357     1629.203     3218.953      694.712        1.545        0.277      159.068       25.164        0.025      338.843       11.769      870.050
05/14/2014  01:24:00     -107.396     -108.552        2.389       43.946       64.300       30.354     1931.229     4134.472      921.336        1.515        0.349      152.701       32.793        0.046      338.763       11.635      870.039
05/14/2014  01:25:00     -109.513      -55.292       -2.006       53.500       43.102       27.889     2862.283     1857.796      777.818        1.027        0.275      122.680       24.721        0.041      338.733       11.585      870.036
05/14/2014  01:26:00      -81.176      -68.031        9.502       49.087       51.455       31.100     2409.580     2647.652      967.211        0.867        0.301      105.914       26.611        0.063      338.727       11.576      870.032
05/14/2014  01:27:00     -111.012      -97.834        3.470       42.503       34.369       26.817     1806.524     1181.224      719.127        1.281        0.185      147.970       25.212        0.029      338.728       11.576      870.023
05/14/2014  01:28:00     -123.355      -76.165       -6.936       22.863       24.214       15.828      522.701      586.330      250.534        1.121        0.068      144.975       10.623        0.005      338.794       11.688      870.027
05/14/2014  01:29:00      -81.395      -46.588        2.029       31.486       16.826       18.657      991.343      283.124      348.080        0.521        0.081       93.785       20.619        0.048      338.811       11.715      870.043
05/14/2014  01:30:00      -72.789      -34.614       -5.252       30.234       18.951       13.018      914.094      359.157      169.465        0.398        0.072       80.600       11.728        0.021      338.772       11.651      870.041
05/14/2014  01:31:00     -131.944      -26.879      -12.770       25.734       15.173       12.424      662.258      230.222      154.363        0.967        0.052      134.654       10.314        0.006      338.727       11.574      870.033
05/14/2014  01:32:00     -150.688      -35.199      -10.580       25.427       20.281       13.605      646.530      411.316      185.102        1.265        0.062      154.745       13.558        0.008      338.611       11.380      870.013
05/14/2014  01:33:00     -108.707      -44.030       -0.595       34.346       23.879       18.628     1179.666      570.216      346.990        0.793        0.105      117.285       18.267        0.024      338.606       11.372      870.003
05/14/2014  01:34:00     -122.183      -42.999       -6.552       30.893       26.462       16.063      954.354      700.225      258.031        0.937        0.096      129.528       11.627        0.008      338.566       11.305      870.005
05/14/2014  01:35:00     -133.834      -43.652       -6.145       28.367       33.739       17.352      804.706     1138.314      301.105        1.105        0.112      140.773       12.881        0.008      338.607       11.375      869.999
05/14/2014  01:36:00     -128.189      -39.604       -9.033       21.092       25.210       13.434      444.883      635.525      180.482        0.967        0.063      134.167       10.293        0.006      338.536       11.255      869.999
05/14/2014  01:37:00     -108.967      -30.482       -6.976       37.410       24.525       16.833     1399.533      601.469      283.345        0.757        0.114      113.150       17.193        0.023      338.497       11.190      870.000
05/14/2014  01:38:00      -93.150      -41.357       -1.249       20.550       16.470       14.224      422.311      271.260      202.331        0.564        0.045      101.918       11.155        0.012      338.504       11.201      870.018
05/14/2014  01:39:00      -75.380      -51.527      -11.655       16.194       12.460        8.085      262.241      155.247       65.375        0.448        0.024       91.308        3.937        0.002      338.622       11.398      870.034
05/14/2014  01:40:00      -71.378      -57.814       -5.836       15.836       17.072       10.100      250.783      291.455      102.014        0.456        0.032       91.854        8.300        0.008      338.688       11.508      870.042
05/14/2014  01:41:00      -69.329      -25.834       -7.491       12.744       19.415       10.684      162.415      376.932      114.149        0.309        0.033       73.986        3.690        0.002      338.645       11.436      870.042
05/14/2014  01:42:00      -67.250      -14.045       -8.126       11.716       12.630        8.932      137.268      159.514       79.782        0.258        0.019       68.701        4.060        0.003      338.653       11.453      870.038
05/14/2014  01:43:00      -76.377      -29.661       -9.063       11.192       14.137        7.230      125.269      199.864       52.278        0.359        0.019       81.934        5.452        0.004      338.678       11.493      870.028
05/14/2014  01:44:00     -109.427      -29.379      -17.375       17.947       18.367       11.245      322.105      337.360      126.457        0.696        0.039      113.302        8.251        0.005      338.628       11.408      870.022
05/14/2014  01:45:00     -116.199      -39.910      -22.069       11.839       10.896       12.278      140.161      118.712      150.760        0.800        0.020      122.862        5.060        0.002      338.529       11.242      870.002
05/14/2014  01:46:00     -104.779      -48.101      -17.941       15.637        9.547       10.134      244.502       91.148      102.691        0.703        0.022      115.292        6.385        0.003      338.392       11.012      869.987
05/14/2014  01:47:00      -87.738      -46.069      -16.089       12.290       18.556       13.597      151.041      344.311      184.890        0.538        0.034       99.097        8.345        0.007      338.277       10.819      869.984
05/14/2014  01:48:00      -55.174      -50.450      -14.496       20.139       15.619       14.924      405.599      243.945      222.728        0.334        0.044       74.762        7.727        0.011      338.283       10.829      869.989
05/14/2014  01:49:00      -49.113      -42.050       -8.399       33.258       17.170       15.256     1106.095      294.809      232.752        0.294        0.082       64.655       17.303        0.072      338.308       10.871      870.013
05/14/2014  01:50:00     -100.145      -35.589      -16.417       15.100       18.293       14.427      228.010      334.625      208.136        0.617        0.039      106.281       11.303        0.011      338.295       10.850      870.004
05/14/2014  01:51:00     -107.127      -36.009      -17.526       13.644       17.327       14.921      186.147      300.221      222.623        0.689        0.035      113.017        8.248        0.005      338.399       11.024      869.988
05/14/2014  01:52:00     -111.767      -23.301      -14.581       17.790       15.737       13.806      316.471      247.667      190.615        0.700        0.038      114.170        7.893        0.005      338.329       10.908      869.976
05/14/2014  01:53:00     -117.508      -40.453      -18.314       14.026       21.806       12.908      196.731      475.493      166.605        0.831        0.042      124.276        8.055        0.004      338.319       10.890      869.966
05/14/2014  01:54:00     -109.718      -58.291       -8.383       18.201       18.337       20.727      331.280      336.246      429.595        0.830        0.055      124.241       13.830        0.012      338.240       10.756      869.966
05/14/2014  01:55:00     -131.180      -41.776      -17.171       14.444       16.761       12.413      208.633      280.927      154.071        0.995        0.032      137.671        5.166        0.001      338.177       10.651      869.966
05/14/2014  01:56:00      -49.860      -61.742       -1.140       50.581       21.568       23.016     2558.411      465.166      529.715        0.493        0.178       79.361       20.590        0.067      338.181       10.658      869.969
05/14/2014  01:57:00      -21.925      -48.054       -5.686       28.152       24.916       20.133      792.554      620.814      405.335        0.232        0.091       52.819       17.613        0.111      338.271       10.810      869.976
05/14/2014  01:58:00        0.434      -44.863        1.038       24.409       21.544       18.501      595.783      464.161      342.288        0.171        0.070       44.866       11.866        0.070      338.274       10.814      869.987
05/14/2014  01:59:00      -36.994      -35.746        4.520       27.761       22.547       16.095      770.698      508.357      259.065        0.210        0.077       51.442       16.929        0.108      338.360       10.957      870.013
05/14/2014  02:00:00      -64.627      -30.727       -7.361       17.206       14.279        8.393      296.054      203.883       70.449        0.287        0.029       71.560        7.191        0.010      338.341       10.926      870.042
05/14/2014  02:01:00      -66.712      -26.770        1.133       21.609       11.570        9.511      466.934      133.856       90.463        0.293        0.035       71.883        5.354        0.006      338.365       10.967      870.044
05/14/2014  02:02:00      -91.411      -51.957       -7.136       23.630       17.466       15.046      558.397      305.077      226.386        0.610        0.054      105.145        7.712        0.005      338.419       11.059      870.035
05/14/2014  02:03:00      -95.795      -69.606       -3.662       23.866       23.556       14.843      569.607      554.875      220.319        0.769        0.067      118.413        7.767        0.004      338.407       11.037      870.024
05/14/2014  02:04:00     -108.522      -55.430        1.406       35.078       30.089       24.398     1230.497      905.374      595.252        0.879        0.137      121.859       22.314        0.034      338.396       11.020      870.021
05/14/2014  02:05:00      -78.143      -73.218        0.042       35.804       27.054       22.021     1281.903      731.901      484.928        0.698        0.125      107.085       21.776        0.041      338.319       10.890      870.014
05/14/2014  02:06:00      -90.526      -61.135       -8.078       23.690       32.157       15.058      561.233     1034.050      226.729        0.691        0.091      109.236        7.139        0.004      338.279       10.824      870.007
05/14/2014  02:07:00     -113.466      -50.261       -9.878       15.082       18.936       10.170      227.478      358.574      103.425        0.809        0.034      124.100        6.915        0.003      338.271       10.809      870.007
05/14/2014  02:08:00     -130.443      -51.543      -11.785       15.741       15.229       12.449      247.769      231.930      154.975        1.022        0.032      140.257        5.943        0.002      338.287       10.835      870.009
05/14/2014  02:09:00     -124.294      -48.582      -13.561       16.124       18.147       14.775      259.986      329.310      218.302        0.940        0.040      133.451       10.391        0.006      338.307       10.870      870.009
05/14/2014  02:10:00     -104.719      -44.230      -13.849       10.847       10.290        9.218      117.656      105.875       84.967        0.671        0.015      113.677        6.141        0.003      338.178       10.652      870.022
05/14/2014  02:11:00      -79.525      -50.123       -6.955       14.097       10.841       13.125      198.728      117.531      172.277        0.469        0.024       94.003        7.168        0.006      338.260       10.792      870.028
05/14/2014  02:12:00      -79.972      -38.874      -11.166       15.705       10.852       11.901      246.651      117.760      141.642        0.427        0.025       88.920        9.286        0.011      338.330       10.908      870.039
05/14/2014  02:13:00      -83.146      -57.524      -11.197       17.586       13.825       16.191      309.284      191.132      262.158        0.555        0.038      101.105        9.710        0.009      338.376       10.987      870.053
05/14/2014  02:14:00      -44.903      -38.942        2.463       28.646       22.521       15.635      820.621      507.189      244.468        0.256        0.079       59.437       13.437        0.051      338.421       11.061      870.058
05/14/2014  02:15:00      -18.897      -28.815        3.115       15.697       12.525       14.733      246.390      156.888      217.047        0.091        0.031       34.459        8.449        0.060      338.551       11.278      870.070
05/14/2014  02:16:00      -55.038      -33.772       -3.720       19.098       12.552       13.416      364.725      157.560      179.978        0.244        0.035       64.573        3.180        0.002      338.525       11.235      870.079
05/14/2014  02:17:00      -67.677      -43.624      -10.571       21.602       12.456       10.083      466.650      155.145      101.676        0.366        0.036       80.518        3.428        0.002      338.457       11.123      870.085
05/14/2014  02:18:00      -45.016      -37.277        1.837       32.741       20.553       15.887     1071.941      422.416      252.383        0.258        0.087       58.446       16.789        0.083      338.287       10.836      870.086
05/14/2014  02:19:00      -40.503      -34.762        4.522       25.985       18.425       17.550      675.219      339.495      307.996        0.210        0.066       53.375       15.926        0.089      338.324       10.897      870.085
05/14/2014  02:20:00        0.678      -27.481        5.117       25.702       14.066       14.224      660.596      197.845      202.335        0.092        0.053       27.490       12.795        0.217      338.375       10.982      870.083
05/14/2014  02:21:00      -27.510      -33.055       -1.019       17.866       23.954       15.427      319.190      573.779      237.981        0.149        0.057       43.005       13.983        0.106      338.285       10.833      870.084
05/14/2014  02:22:00      -66.996      -39.564       -2.205       16.242       13.679       14.932      263.788      187.125      222.960        0.337        0.034       77.806        2.695        0.001      338.418       11.054      870.071
05/14/2014  02:23:00      -92.428      -23.575       -7.646       12.965       15.588       15.204      168.101      242.998      231.157        0.490        0.032       95.388       10.640        0.012      338.412       11.046      870.053
05/14/2014  02:24:00     -101.115      -36.383      -15.129       11.643       13.716        9.761      135.556      188.138       95.269        0.610        0.021      107.462        2.858        0.001      338.336       10.919      870.037
05/14/2014  02:25:00      -97.664      -29.203      -18.236       14.528        8.086       11.151      211.073       65.383      124.341        0.556        0.020      101.937        6.013        0.003      338.314       10.881      870.024
05/14/2014  02:26:00     -105.989      -20.461      -23.696       10.686       13.031        8.388      114.191      169.804       70.363        0.628        0.018      107.946        4.108        0.001      338.228       10.737      870.014
05/14/2014  02:27:00     -113.631      -17.081      -23.135       15.898       19.708       11.826      252.735      388.410      139.847        0.726        0.039      114.907       11.442        0.010      338.230       10.741      870.009
05/14/2014  02:28:00      -97.801      -31.828      -19.067       16.018       24.587       13.505      256.575      604.522      182.390        0.599        0.052      102.850        7.810        0.006      338.174       10.646      869.999
05/14/2014  02:29:00      -72.588      -45.700      -16.767       19.652       15.274       13.839      386.208      233.286      191.525        0.422        0.041       85.776        8.203        0.009      338.110       10.538      870.001
05/14/2014  02:30:00      -95.059      -50.535      -15.157       21.214       18.978       13.838      450.036      360.153      191.491        0.641        0.050      107.657       11.361        0.011      338.148       10.604      870.003
05/14/2014  02:31:00     -111.187      -57.462      -14.795       15.227       18.983       14.332      231.853      360.365      205.414        0.834        0.040      125.158        9.366        0.006      338.103       10.529      870.009
05/14/2014  02:32:00      -78.931      -53.416       -8.550       20.940       14.477       13.325      438.479      209.590      177.556        0.499        0.041       95.306        6.310        0.004      338.114       10.546      870.014
05/14/2014  02:33:00      -66.083      -48.175       -5.855       20.783       11.451        9.675      431.928      131.120       93.607        0.369        0.033       81.779        8.897        0.012      338.191       10.675      870.019
05/14/2014  02:34:00      -31.933      -40.805      -14.403       30.012       18.656       11.296      900.729      348.042      127.601        0.213        0.069       51.814        3.076        0.004      338.301       10.859      870.026
05/14/2014  02:35:00      -31.066      -41.195       -0.989       19.955       13.996       14.800      398.219      195.881      219.034        0.174        0.041       51.596        7.518        0.021      338.390       11.009      870.038
05/14/2014  02:36:00      -75.304      -37.050       -9.668       20.865       14.993       10.347      435.353      224.784      107.070        0.395        0.038       83.925        9.948        0.014      338.356       10.952      870.043
05/14/2014  02:37:00      -64.999      -39.275       -5.859       30.757       11.816       10.009      945.982      139.628      100.170        0.349        0.059       75.943        8.759        0.013      338.270       10.808      870.044
05/14/2014  02:38:00      -34.477      -34.151       10.432       33.678       21.475       15.289     1134.181      461.188      233.744        0.215        0.091       48.528       18.099        0.139      338.133       10.578      870.033
05/14/2014  02:39:00      -42.089      -49.654        3.501       30.031       32.837       17.910      901.856     1078.273      320.750        0.327        0.115       65.092       17.835        0.075      338.121       10.557      870.026
05/14/2014  02:40:00      -95.480      -73.487       -6.835       38.535       32.180       17.574     1484.953     1035.576      308.857        0.870        0.141      120.486       11.948        0.010      338.289       10.839      870.011
05/14/2014  02:41:00      -91.825      -71.274       -4.567       42.845       26.668       24.867     1835.694      711.207      618.369        0.835        0.158      116.241       15.990        0.019      338.217       10.719      870.003
05/14/2014  02:42:00     -107.650      -69.747       -3.566       37.153       38.678       26.710     1380.337     1495.961      713.406        1.003        0.179      128.270       17.042        0.018      338.148       10.602      869.998
05/14/2014  02:43:00      -96.929      -89.695       -7.283       41.362       48.002       28.415     1710.780     2304.236      807.407        1.116        0.241      132.062       13.043        0.010      338.155       10.614      869.996
05/14/2014  02:44:00     -118.775     -119.178       -4.667       29.213       46.125       24.509      853.377     2127.487      600.695        1.596        0.179      168.258       18.583        0.012      338.120       10.556      869.996
05/14/2014  02:45:00     -117.449      -98.892       -9.808       27.623       42.068       22.317      763.006     1769.711      498.035        1.335        0.152      153.537       17.717        0.013      338.074       10.479      869.999
05/14/2014  02:46:00     -108.037      -59.496        8.182       47.350       31.691       25.490     2241.996     1004.349      649.746        0.959        0.195      123.336       22.857        0.034      338.052       10.441      869.997
05/14/2014  02:47:00      -92.247      -87.883        3.339       55.958       40.430       26.977     3131.262     1634.558      727.749        1.087        0.275      127.409       28.830        0.051      338.062       10.458      870.008
05/14/2014  02:48:00     -109.756      -94.302      -13.261       34.471       27.680       18.862     1188.236      766.192      355.781        1.171        0.116      144.704       16.694        0.013      338.043       10.427      870.024
05/14/2014  02:49:00      -85.948      -74.719       -4.542       43.407       29.563       26.134     1884.190      873.966      682.996        0.822        0.172      113.886       25.992        0.052      338.083       10.491      870.028
05/14/2014  02:50:00      -52.413      -68.799      -13.140       42.353       46.221       20.734     1793.778     2136.407      429.884        0.601        0.218       86.489       14.834        0.029      338.142       10.592      870.036
05/14/2014  02:51:00      -63.804      -48.876       -3.106       60.876       39.668       27.259     3705.852     1573.582      743.072        0.624        0.301       80.373       11.142        0.019      338.136       10.582      870.035
05/14/2014  02:52:00      -96.308      -62.874       -3.699       61.851       37.002       30.005     3825.566     1369.117      900.274        0.967        0.305      115.014       22.825        0.039      338.058       10.452      870.024
05/14/2014  02:53:00     -108.355     -117.227      -10.428       55.733       34.885       35.838     3106.188     1216.953     1284.371        1.560        0.280      159.634       16.734        0.011      337.986       10.331      870.014
05/14/2014  02:54:00     -152.992      -87.964       -9.292       28.375       38.414       25.392      805.146     1475.604      644.767        1.708        0.146      176.477       17.783        0.010      337.936       10.247      869.990
05/14/2014  02:55:00     -133.367      -67.181       -1.314       33.165       33.608       21.616     1099.944     1129.512      467.242        1.250        0.135      149.332       15.517        0.011      337.895       10.179      869.970
05/14/2014  02:56:00     -116.749      -66.172        2.050       33.841       28.726       20.969     1145.245      825.187      439.693        1.021        0.121      134.198       20.088        0.022      337.894       10.176      869.971
05/14/2014  02:57:00     -100.809      -59.497        4.300       45.763       27.752       25.210     2094.209      770.162      635.567        0.861        0.175      117.057       23.384        0.040      337.928       10.233      869.982
05/14/2014  02:58:00      -94.891      -65.166       -1.536       49.181       27.149       23.532     2418.741      737.082      553.749        0.848        0.185      115.112       25.862        0.050      337.887       10.165      869.980
05/14/2014  02:59:00      -61.884      -49.928        0.698       41.046       27.678       15.314     1684.776      766.092      234.528        0.450        0.134       79.513       19.145        0.058      337.926       10.230      869.992
05/14/2014  03:00:00      -31.095      -45.121       -0.325       30.383       20.719       14.533      923.130      429.263      211.195        0.228        0.078       54.798        9.510        0.030      338.050       10.438      870.015
05/14/2014  03:01:00      -88.952      -46.619       -0.497       29.446       26.841       17.169      867.092      720.456      294.781        0.598        0.094      100.429       14.477        0.021      337.928       10.234      870.034
05/14/2014  03:02:00     -108.225      -61.668       -1.581       28.442       19.575       18.190      808.928      383.195      330.872        0.852        0.076      124.562       14.904        0.014      337.913       10.209      870.037
05/14/2014  03:03:00     -105.826      -83.319       -8.453       35.247       35.665       22.230     1242.368     1271.995      494.154        1.061        0.150      134.689       12.266        0.008      337.885       10.161      870.025
05/14/2014  03:04:00      -72.178      -59.333        2.202       28.526       37.260       20.310      813.747     1388.332      412.493        0.567        0.131       93.434       14.279        0.023      337.771        9.970      870.033
05/14/2014  03:05:00      -69.906      -54.481        7.773       39.095       27.525       22.218     1528.382      757.636      493.658        0.535        0.139       88.629       16.171        0.033      337.829       10.067      870.036
05/14/2014  03:06:00     -115.966      -71.679       -6.181       32.467       35.346       23.976     1054.105     1249.366      574.847        1.075        0.144      136.330       22.161        0.026      337.795       10.009      870.026
05/14/2014  03:07:00      -95.009      -63.487        1.322       29.456       37.941       24.431      867.666     1439.494      596.886        0.798        0.145      114.268       20.519        0.032      337.792       10.005      870.020
05/14/2014  03:08:00      -75.552      -57.221        6.569       42.025       33.495       24.155     1766.098     1121.895      583.485        0.625        0.174       94.776       24.706        0.068      337.790       10.003      870.024
05/14/2014  03:09:00     -117.309      -59.063      -19.094       16.148       20.849       18.095      260.752      434.675      327.438        0.932        0.051      131.339        8.776        0.004      337.731        9.903      870.023
05/14/2014  03:10:00     -143.116      -31.919      -14.598       26.011       24.472       17.589      676.579      598.861      309.358        1.165        0.079      146.632        7.881        0.003      337.654        9.774      870.019
05/14/2014  03:11:00     -153.572      -64.940       -5.884       29.173       32.799       16.520      851.072     1075.776      272.905        1.502        0.110      166.738       11.113        0.004      337.688        9.831      870.005
05/14/2014  03:12:00     -111.758      -50.957        8.067       54.254       33.636       23.669     2943.520     1131.353      560.211        0.989        0.232      122.827       23.396        0.036      337.587        9.662      870.009
05/14/2014  03:13:00     -130.868      -64.188        1.436       23.356       26.066       15.383      545.520      679.413      236.650        1.135        0.073      145.762       10.767        0.005      337.618        9.714      870.018
05/14/2014  03:14:00     -118.579      -61.605       -6.444       27.997       30.824       19.729      783.821      950.098      389.224        1.001        0.106      133.627       15.303        0.013      337.712        9.872      870.026
05/14/2014  03:15:00     -111.747      -39.800      -11.477       25.616       34.859       19.746      656.179     1215.180      389.886        0.823        0.113      118.623       14.037        0.014      337.746        9.928      870.033
05/14/2014  03:16:00     -128.856      -59.355       -3.005       24.126       26.873       16.453      582.052      722.160      270.687        1.086        0.079      141.869       13.199        0.009      337.776        9.977      870.049
05/14/2014  03:17:00     -129.040      -54.659       -1.727       32.009       26.277       18.265     1024.587      690.485      333.608        1.084        0.102      140.139       14.873        0.011      337.790       10.002      870.049
05/14/2014  03:18:00     -119.995      -42.068       -2.183       37.376       31.805       22.603     1396.948     1011.575      510.893        0.955        0.146      127.155       22.510        0.031      337.751        9.935      870.050
05/14/2014  03:19:00     -135.086      -51.760      -10.776       18.072       26.544       16.229      326.607      704.567      263.392        1.117        0.065      144.663       13.578        0.009      337.744        9.925      870.046
05/14/2014  03:20:00     -129.656      -49.726      -17.554       16.476       19.952       17.506      271.466      398.064      306.459        1.028        0.049      138.865       12.678        0.008      337.621        9.719      870.048
05/14/2014  03:21:00     -117.805      -60.490      -16.542       15.290       19.067        8.960      233.785      363.548       80.274        0.924        0.034      132.427        3.359        0.001      337.615        9.709      870.055
05/14/2014  03:22:00     -119.781      -67.773      -13.283       19.229       19.073       15.807      369.758      363.762      249.851        1.005        0.049      137.625        9.831        0.005      337.605        9.692      870.059
05/14/2014  03:23:00      -48.654      -70.134       10.461       57.321       34.309       23.698     3285.703     1177.104      561.588        0.621        0.251       85.358       31.890        0.140      337.582        9.654      870.050
05/14/2014  03:24:00      -34.765      -21.625       11.170       42.578       24.513       20.061     1812.928      600.900      402.462        0.231        0.141       40.942       20.527        0.251      337.542        9.585      870.049
05/14/2014  03:25:00     -104.352      -50.171       -4.490       33.548       22.169       21.912     1125.447      491.460      480.157        0.776        0.105      115.786       17.649        0.023      337.589        9.666      870.044
05/14/2014  03:26:00      -99.409      -66.460       -6.966       31.005       25.728       20.431      961.312      661.915      417.413        0.819        0.102      119.579        8.529        0.005      337.604        9.690      870.049
05/14/2014  03:27:00      -50.462      -42.197        3.084       54.957       31.518       23.636     3020.320      993.393      558.671        0.445        0.229       65.780       29.075        0.195      337.668        9.797      870.061
05/14/2014  03:28:00       -4.070      -12.746        8.948       25.972       14.567       17.388      674.528      212.210      302.348        0.072        0.059       13.380       11.392        0.725      337.690        9.833      870.077
05/14/2014  03:29:00       -7.660      -24.621       -2.436       26.760       15.177       18.180      716.097      230.354      330.512        0.097        0.064       25.785       11.184        0.188      337.789       10.001      870.092
05/14/2014  03:30:00      -26.741      -27.318       -9.299       24.738       19.181       20.152      611.981      367.911      406.094        0.147        0.069       38.227       18.099        0.224      337.794       10.008      870.096
05/14/2014  03:31:00      -65.364      -32.967       -8.965       29.833       27.874       26.638      890.013      776.950      709.584        0.391        0.119       73.207       16.703        0.052      337.742        9.922      870.097
05/14/2014  03:32:00      -92.147      -29.949      -12.985       32.955       19.520       17.037     1086.060      381.042      290.255        0.566        0.088       96.892       13.074        0.018      337.738        9.913      870.097
05/14/2014  03:33:00      -85.260      -36.098      -10.487       43.309       20.881       16.241     1875.677      436.029      263.764        0.563        0.129       92.587       19.480        0.044      337.750        9.936      870.092
05/14/2014  03:34:00      -80.395      -46.869       -4.404       32.821       24.956       20.200     1077.211      622.780      408.049        0.539        0.105       93.060       16.498        0.031      337.707        9.862      870.086
05/14/2014  03:35:00      -81.915      -36.226      -11.395       41.932       22.239       20.473     1758.323      494.583      419.163        0.541        0.134       89.568       18.124        0.041      337.732        9.905      870.088
05/14/2014  03:36:00      -36.474      -25.074       -5.817       30.691       21.074       22.032      941.945      444.130      485.431        0.193        0.094       44.262       16.647        0.141      337.733        9.907      870.090
05/14/2014  03:37:00      -21.482      -19.604        3.022       51.215       20.116       19.712     2622.940      404.660      388.567        0.213        0.171       29.082       18.687        0.413      337.752        9.939      870.088
05/14/2014  03:38:00      -42.297      -59.195        3.679       59.505       30.111       26.733     3540.786      906.700      714.667        0.523        0.258       72.754       28.428        0.153      337.773        9.974      870.088
05/14/2014  03:39:00     -113.245      -70.639       -4.826       47.173       32.134       20.394     2225.251     1032.600      415.901        1.075        0.184      133.470       20.098        0.023      337.638        9.747      870.097
05/14/2014  03:40:00      -42.291      -40.506       12.757       56.205       40.044       29.952     3159.021     1603.518      897.109        0.462        0.283       58.560       29.176        0.248      337.666        9.796      870.115
05/14/2014  03:41:00     -121.499      -80.155       -6.448       50.754       42.339       28.610     2575.921     1792.563      818.531        1.321        0.259      145.557       12.065        0.007      337.631        9.735      870.106
05/14/2014  03:42:00     -136.471     -103.322       -9.049       66.884       38.514       32.817     4473.533     1483.294     1076.929        1.821        0.352      171.172       33.159        0.038      337.594        9.673      870.099
05/14/2014  03:43:00     -120.898      -73.799        4.284       62.144       45.090       34.195     3861.905     2033.113     1169.286        1.357        0.353      141.642       33.187        0.055      337.481        9.485      870.088
05/14/2014  03:44:00     -135.512      -74.430        4.015       46.334       35.579       26.618     2146.859     1265.875      708.523        1.402        0.206      154.607       23.079        0.022      337.410        9.365      870.094
05/14/2014  03:45:00     -133.549      -85.377        3.005       52.192       39.410       27.824     2723.985     1553.115      774.167        1.509        0.253      158.507       27.019        0.029      337.392        9.335      870.095
05/14/2014  03:46:00     -140.330      -93.099        3.302       43.418       38.414       29.316     1885.097     1475.633      859.441        1.629        0.211      168.404       20.817        0.015      337.478        9.477      870.091
05/14/2014  03:47:00     -122.249      -87.320        3.893       40.438       31.229       24.046     1635.261      975.278      578.207        1.289        0.159      150.231       21.483        0.020      337.442        9.419      870.087
05/14/2014  03:48:00      -76.207      -64.101        2.714       44.557       37.702       22.924     1985.338     1421.450      525.492        0.693        0.197       99.581       17.063        0.029      337.420        9.382      870.086
05/14/2014  03:49:00      -96.171      -83.617       -0.084       47.431       36.035       25.103     2249.664     1298.488      630.180        1.021        0.209      127.439       20.260        0.025      337.401        9.350      870.096
05/14/2014  03:50:00      -82.556      -70.880        3.589       54.221       41.397       26.837     2939.958     1713.716      720.214        0.861        0.269      108.810       24.955        0.053      337.412        9.367      870.094
05/14/2014  03:51:00      -67.469      -64.063        8.491       55.681       52.258       29.081     3100.350     2730.909      845.702        0.770        0.334       93.038       27.839        0.090      337.462        9.452      870.092
05/14/2014  03:52:00      -74.377      -87.031        7.836       47.730       38.868       27.140     2278.124     1510.724      736.599        0.885        0.226      114.483       26.821        0.055      337.542        9.587      870.091
05/14/2014  03:53:00     -103.837      -76.844        1.557       48.315       48.202       27.406     2334.318     2323.392      751.068        1.105        0.270      129.179       24.261        0.035      337.399        9.347      870.104
05/14/2014  03:54:00     -108.992      -79.196        8.732       55.510       40.155       30.317     3081.318     1612.397      919.129        1.192        0.281      134.726       29.698        0.049      337.420        9.382      870.115
05/14/2014  03:55:00     -136.950      -92.916        3.468       51.708       40.961       29.948     2673.732     1677.780      896.893        1.632        0.262      165.496       25.348        0.023      337.396        9.340      870.115
05/14/2014  03:56:00      -93.735      -86.151        1.005       67.826       46.710       37.562     4600.416     2181.862     1410.883        1.220        0.410      127.312       44.001        0.119      337.410        9.365      870.114
05/14/2014  03:57:00      -99.895      -80.153        8.577       45.383       31.777       27.016     2059.607     1009.750      729.883        1.014        0.190      128.076       25.036        0.038      337.452        9.436      870.127
05/14/2014  03:58:00      -69.010      -56.865        3.116       63.790       38.835       23.469     4069.194     1508.184      550.794        0.707        0.306       89.420       26.903        0.091      337.499        9.515      870.144
05/14/2014  03:59:00      -86.746      -62.252        8.455       50.032       32.278       29.035     2503.217     1041.882      843.015        0.793        0.219      106.772       25.839        0.059      337.392        9.337      870.139
05/14/2014  04:00:00      -74.359      -46.689        6.179       53.590       30.715       22.571     2871.905      943.399      509.443        0.604        0.216       87.802       20.717        0.056      337.395        9.339      870.145
05/14/2014  04:01:00      -30.692      -32.157       11.758       37.315       28.900       20.733     1392.390      835.234      429.867        0.239        0.133       44.453       21.473        0.233      337.340        9.248      870.151
05/14/2014  04:02:00      -48.061      -50.093        9.849       44.160       24.786       22.736     1950.068      614.369      516.925        0.400        0.154       69.421       23.244        0.112      337.363        9.286      870.167
05/14/2014  04:03:00      -66.098      -40.840        2.476       45.607       16.477       26.178     2079.984      271.480      685.300        0.454        0.152       77.698       28.964        0.139      337.382        9.318      870.179
05/14/2014  04:04:00      -56.463      -33.138       -1.650       36.667       26.861       16.553     1344.438      721.529      274.011        0.331        0.117       65.469        8.609        0.017      337.334        9.239      870.175
05/14/2014  04:05:00      -65.322      -39.234        8.214       34.335       24.583       19.076     1178.907      604.346      363.898        0.401        0.107       76.199       16.519        0.047      337.240        9.082      870.172
05/14/2014  04:06:00      -81.966      -55.427       -0.635       31.348       21.501       19.361      982.677      462.307      374.832        0.581        0.091       98.947       17.315        0.031      337.235        9.073      870.169
05/14/2014  04:07:00     -111.764      -51.302       -7.993       23.870       17.157       15.779      569.787      294.357      248.968        0.815        0.056      122.976       14.361        0.014      337.176        8.974      870.169
05/14/2014  04:08:00     -115.634      -38.229      -18.014       15.129       16.365       12.038      228.880      267.804      144.902        0.790        0.032      121.789       10.687        0.008      337.255        9.106      870.161
05/14/2014  04:09:00     -112.772      -28.629       -9.910       16.153       16.420       12.910      260.915      269.618      166.670        0.717        0.035      116.349        6.827        0.003      337.205        9.021      870.161
05/14/2014  04:10:00     -100.959      -24.415       -1.804       27.073       21.033       15.573      732.927      442.383      242.523        0.610        0.071      103.869       15.038        0.021      337.151        8.930      870.165
05/14/2014  04:11:00     -101.414      -35.648       -2.856       23.219       26.890       16.037      539.138      723.046      257.185        0.654        0.076      107.497       13.406        0.016      337.160        8.946      870.163
05/14/2014  04:12:00     -112.297      -53.055       -9.133       14.768       12.329       12.871      218.106      151.995      165.665        0.802        0.027      124.199        3.508        0.001      337.169        8.962      870.163
05/14/2014  04:13:00      -81.659      -48.439       -5.152       28.075       20.861       13.809      788.199      435.199      190.681        0.523        0.071       94.945       14.763        0.024      337.198        9.009      870.178
05/14/2014  04:14:00      -34.989      -36.292        5.876       27.804       24.230       17.009      773.075      587.075      289.321        0.211        0.082       50.411       13.693        0.074      337.168        8.960      870.194
05/14/2014  04:15:00      -77.829      -50.197        1.196       33.548       18.380       17.454     1125.488      337.831      304.657        0.517        0.088       92.612       17.650        0.036      337.165        8.955      870.195
05/14/2014  04:16:00     -105.753      -59.407       -1.708       23.956       18.604       12.606      573.881      346.114      158.909        0.790        0.054      121.296        8.515        0.005      337.177        8.974      870.184
05/14/2014  04:17:00     -101.681      -53.261        0.981       20.576       18.612       14.368      423.366      346.404      206.441        0.708        0.049      114.786       11.653        0.010      337.040        8.746      870.176
05/14/2014  04:18:00      -96.739      -42.642       -5.709       21.730       15.346       15.430      472.187      235.498      238.077        0.608        0.047      105.720       10.521        0.010      336.994        8.667      870.178
05/14/2014  04:19:00      -92.994      -46.184       -8.067       14.196       11.851        9.373      201.541      140.456       87.851        0.564        0.021      103.831        3.455        0.001      337.045        8.754      870.170
05/14/2014  04:20:00      -97.729      -41.564       -7.346       15.165       13.417       12.428      229.979      180.016      154.450        0.595        0.028      106.201        7.863        0.005      337.081        8.813      870.178
05/14/2014  04:21:00     -101.562      -49.165       -3.232       21.108       23.779       13.963      445.565      565.428      194.965        0.697        0.060      112.836       11.246        0.010      337.090        8.829      870.188
05/14/2014  04:22:00     -120.076      -53.033       -5.969       33.451       21.391       19.690     1118.971      457.570      387.707        0.961        0.098      131.266       19.175        0.021      337.083        8.818      870.187
05/14/2014  04:23:00     -147.566      -53.013       -5.006       28.168       24.718       16.651      793.422      610.990      277.255        1.315        0.084      156.799       10.808        0.005      337.070        8.795      870.186
05/14/2014  04:24:00     -110.633      -64.195       -7.074       28.919       23.103       15.271      836.325      533.732      233.214        0.901        0.080      127.909       13.352        0.011      337.043        8.750      870.190
05/14/2014  04:25:00     -102.255      -70.095       -2.763       31.890       23.908       16.301     1016.979      571.570      265.732        0.862        0.093      123.973        4.370        0.001      337.073        8.801      870.192
05/14/2014  04:26:00      -91.083      -60.748        5.528       33.462       27.483       21.490     1119.675      755.340      461.808        0.718        0.117      109.482       21.927        0.040      337.024        8.720      870.204
05/14/2014  04:27:00     -102.698      -61.814       -1.477       37.633       25.126       20.261     1416.231      631.333      410.523        0.841        0.123      119.866       22.090        0.034      337.070        8.795      870.219
05/14/2014  04:28:00      -93.930      -67.661       -2.777       41.728       24.311       19.113     1741.260      591.022      365.321        0.805        0.135      115.762       20.073        0.030      337.094        8.837      870.227
05/14/2014  04:29:00     -113.459      -58.574       -1.544       25.356       22.852       14.353      642.920      522.222      206.011        0.884        0.069      127.686       12.546        0.010      337.041        8.746      870.235
05/14/2014  04:30:00      -83.020      -58.601        0.025       49.798       25.471       22.396     2479.856      648.779      501.581        0.698        0.182      101.619       23.040        0.051      337.019        8.712      870.226
05/14/2014  04:31:00      -92.758      -64.656        4.887       42.228       35.425       26.485     1783.202     1254.896      701.441        0.827        0.187      113.068       26.751        0.056      336.965        8.619      870.228
05/14/2014  04:32:00      -93.865      -77.130        5.719       52.335       50.527       30.595     2738.969     2552.990      936.072        1.051        0.311      121.489       30.797        0.064      337.037        8.739      870.223
05/14/2014  04:33:00     -120.702      -81.423        6.912       47.788       42.680       26.438     2283.722     1821.624      698.977        1.302        0.240      145.597       23.898        0.027      337.093        8.833      870.228
05/14/2014  04:34:00      -95.442      -72.821        8.569       43.373       46.046       32.058     1881.179     2120.208     1027.693        0.976        0.251      120.050       27.973        0.054      337.053        8.768      870.236
05/14/2014  04:35:00      -70.820      -62.912       17.338       64.139       38.971       26.342     4113.801     1518.720      693.908        0.780        0.316       94.728       29.441        0.097      337.143        8.919      870.238
05/14/2014  04:36:00      -79.492      -75.593        5.398       57.528       55.673       29.167     3309.498     3099.441      850.689        0.966        0.363      109.696       33.052        0.091      337.164        8.954      870.255
05/14/2014  04:37:00     -106.974     -101.097        1.710       44.931       49.399       30.782     2018.836     2440.309      947.511        1.354        0.270      147.187       26.293        0.032      337.140        8.912      870.260
05/14/2014  04:38:00      -83.686      -54.460        6.414       47.586       36.998       26.808     2264.390     1368.871      718.670        0.718        0.218       99.846       26.683        0.071      337.149        8.928      870.261
05/14/2014  04:39:00     -105.098      -71.365        7.670       48.439       39.369       25.065     2346.366     1549.901      628.253        1.036        0.226      127.037       23.088        0.033      337.156        8.940      870.265
05/14/2014  04:40:00     -104.469      -64.314        6.339       46.680       41.645       23.160     2179.046     1734.342      536.375        0.977        0.222      122.679       25.623        0.044      337.110        8.862      870.274
05/14/2014  04:41:00      -81.454      -54.057        7.366       48.089       31.877       23.437     2312.518     1016.150      549.274        0.674        0.194       97.759       22.530        0.053      337.120        8.878      870.277
05/14/2014  04:42:00      -56.307      -70.306        5.847       33.392       37.435       20.686     1115.019     1401.360      427.898        0.555        0.147       90.075       17.896        0.039      337.130        8.897      870.278
05/14/2014  04:43:00      -63.412      -64.489        1.020       45.035       30.401       23.504     2028.134      924.207      552.436        0.584        0.175       90.443       23.035        0.065      337.131        8.898      870.290
05/14/2014  04:44:00      -73.920      -62.165        1.074       54.207       30.854       21.500     2938.408      951.965      462.244        0.684        0.218       96.586       21.489        0.049      337.177        8.975      870.289
05/14/2014  04:45:00      -64.240      -36.993        2.762       36.100       25.353       19.592     1303.231      642.780      383.827        0.392        0.116       74.130       18.336        0.061      337.117        8.873      870.284
05/14/2014  04:46:00      -91.381      -51.743       -3.315       19.977       20.288       13.995      399.083      411.596      195.872        0.602        0.050      105.013        6.040        0.003      337.068        8.790      870.294
05/14/2014  04:47:00      -88.175      -42.934        0.714       17.220       13.736       15.767      296.512      188.674      248.599        0.518        0.037       98.072       11.157        0.013      337.016        8.703      870.293
05/14/2014  04:48:00      -72.389      -42.061        0.157       29.241       19.523       18.288      855.039      381.167      334.459        0.429        0.079       83.722       15.451        0.034      337.067        8.791      870.306
05/14/2014  04:49:00      -61.623      -45.709        7.673       31.378       26.244       19.835      984.603      688.746      393.426        0.401        0.103       76.724       20.966        0.075      337.108        8.859      870.313
05/14/2014  04:50:00      -44.099      -33.653        4.595       43.596       18.727       21.574     1900.614      350.688      465.443        0.291        0.136       55.473       27.012        0.237      337.056        8.772      870.317
05/14/2014  04:51:00      -50.798      -23.693        3.411       21.662       15.289       11.964      469.230      233.749      143.147        0.200        0.042       56.052       12.644        0.051      336.968        8.622      870.322
05/14/2014  04:52:00      -72.838      -10.213       -4.258       20.261       17.993       10.737      410.509      323.764      115.276        0.314        0.042       73.551        9.940        0.018      336.945        8.585      870.331
05/14/2014  04:53:00      -81.221      -13.547       -6.967       15.030       14.110       10.777      225.904      199.089      116.151        0.368        0.027       82.343        8.286        0.010      336.883        8.483      870.326
05/14/2014  04:54:00      -80.158       -6.730       -6.034       28.821       25.145       14.600      830.643      632.252      213.164        0.409        0.084       80.440       12.820        0.025      336.845        8.420      870.334
05/14/2014  04:55:00     -103.268       -4.619      -11.957       28.465       14.311       12.698      810.260      204.801      161.232        0.600        0.059      103.371       13.830        0.018      336.812        8.365      870.330
05/14/2014  04:56:00     -123.605      -12.385      -13.636       11.037       13.653        9.288      121.819      186.412       86.258        0.801        0.020      124.224        5.328        0.002      336.889        8.494      870.327
05/14/2014  04:57:00      -90.859      -27.203       -3.539       22.160       16.327       14.215      491.050      266.566      202.073        0.498        0.048       94.844       12.584        0.018      336.922        8.548      870.337
05/14/2014  04:58:00      -55.817      -33.813        1.509       26.442       20.437       12.733      699.172      417.660      162.120        0.277        0.064       65.261       10.380        0.025      336.982        8.646      870.348
05/14/2014  04:59:00      -18.801      -34.096        9.859       27.694       19.278       18.407      766.944      371.640      338.830        0.155        0.074       38.936       15.096        0.150      337.007        8.689      870.346
05/14/2014  05:00:00      -56.634      -46.317       -4.124       25.674       29.905       14.293      659.166      894.309      204.296        0.356        0.088       73.162       16.057        0.048      337.009        8.694      870.345
05/14/2014  05:01:00      -66.244      -68.257       -1.662       37.963       22.699       19.238     1441.222      515.234      370.108        0.569        0.116       95.117       19.069        0.040      336.996        8.671      870.354
05/14/2014  05:02:00      -91.870      -82.339       -6.939       38.844       28.293       18.593     1508.874      800.491      345.700        0.896        0.133      123.369       17.881        0.021      336.933        8.565      870.367
05/14/2014  05:03:00     -100.117      -94.337       -1.320       48.429       44.466       25.685     2345.357     1977.201      659.732        1.195        0.249      137.561       22.131        0.026      336.929        8.558      870.367
05/14/2014  05:04:00     -112.994      -67.103       -2.133       37.332       38.336       22.737     1393.708     1469.660      516.993        1.033        0.169      131.417       16.921        0.017      336.932        8.563      870.367
05/14/2014  05:05:00      -94.678      -73.382       -1.330       49.267       29.483       28.355     2427.226      869.247      803.989        0.922        0.205      119.787       25.701        0.046      336.944        8.584      870.371
05/14/2014  05:06:00      -75.251      -52.824        4.476       38.955       24.144       20.326     1517.474      582.942      413.145        0.549        0.126       91.941       14.432        0.025      336.938        8.576      870.384
05/14/2014  05:07:00      -46.291      -59.854       -0.753       29.065       29.479       14.026      844.792      869.037      196.726        0.382        0.096       75.666       17.234        0.052      337.024        8.718      870.392
05/14/2014  05:08:00       -2.109      -45.650        6.767       29.351       24.847       14.154      861.458      617.389      200.330        0.191        0.084       45.699       13.160        0.083      337.119        8.878      870.400
05/14/2014  05:09:00      -25.303      -26.573       -0.359       35.024       27.162       17.769     1226.663      737.795      315.725        0.181        0.114       36.693       21.268        0.336      337.012        8.699      870.408
05/14/2014  05:10:00      -40.492      -22.321        0.408       36.387       21.113       18.421     1324.030      445.778      339.328        0.212        0.105       46.236       20.739        0.201      336.995        8.669      870.408
05/14/2014  05:11:00      -49.625      -46.990       -1.846       20.979       24.771       16.770      440.120      613.619      281.238        0.300        0.067       68.342       13.576        0.039      337.000        8.678      870.410
05/14/2014  05:12:00      -62.303        2.329       -0.332       25.728       23.767       15.658      661.955      564.872      245.166        0.268        0.074       62.346       12.447        0.040      336.921        8.545      870.410
05/14/2014  05:13:00      -69.955      -20.750        4.543       27.807       23.380       22.661      773.202      546.628      513.518        0.359        0.092       72.968       17.957        0.061      336.762        8.283      870.413
05/14/2014  05:14:00      -55.981      -24.313       -6.740       33.440       31.828       18.999     1118.222     1013.028      360.970        0.313        0.125       61.033       14.364        0.055      336.788        8.326      870.428
05/14/2014  05:15:00      -63.971      -40.757       10.091       47.969       26.364       24.488     2301.028      695.040      599.648        0.472        0.180       75.852       20.992        0.077      336.765        8.287      870.429
05/14/2014  05:16:00      -76.784      -48.872        3.921       34.957       33.222       22.635     1221.983     1103.724      512.342        0.557        0.142       91.018       17.176        0.036      336.820        8.379      870.430
05/14/2014  05:17:00     -101.261      -88.961       -2.875       49.044       41.193       27.385     2405.354     1696.868      749.936        1.151        0.243      134.788       27.015        0.040      336.800        8.345      870.431
05/14/2014  05:18:00     -120.554      -89.356       -4.805       35.868       39.892       26.133     1286.526     1591.346      682.911        1.305        0.178      150.059       14.816        0.010      336.829        8.394      870.443
05/14/2014  05:19:00     -108.669      -87.916       -2.298       31.282       30.959       19.949      978.544      958.467      397.967        1.094        0.117      139.778       16.206        0.013      336.870        8.463      870.446
05/14/2014  05:20:00      -67.827      -90.428       -1.624       32.646       27.764       23.453     1065.779      770.830      550.037        0.758        0.119      113.038       20.513        0.033      336.865        8.454      870.452
05/14/2014  05:21:00      -73.885      -55.111        8.526       58.286       36.685       23.012     3397.296     1345.756      529.564        0.692        0.264       92.175       28.463        0.095      336.928        8.557      870.467
05/14/2014  05:22:00      -80.823      -75.199       10.204       35.700       31.194       18.941     1274.465      973.057      358.779        0.745        0.130      110.395       16.922        0.023      336.873        8.467      870.484
05/14/2014  05:23:00      -59.161      -36.782        3.976       45.309       29.376       16.641     2052.883      862.975      276.927        0.403        0.160       69.663       15.444        0.049      336.893        8.499      870.497
05/14/2014  05:24:00      -81.356      -18.577       -7.633       32.659       23.621       13.017     1066.601      557.932      169.442        0.441        0.090       83.450       15.305        0.034      336.646        8.087      870.505
05/14/2014  05:25:00      -54.608       -6.454        0.036       25.338       21.374       15.063      641.993      456.843      226.881        0.217        0.066       54.988       13.041        0.056      336.562        7.948      870.506
05/14/2014  05:26:00      -60.139       -5.457        5.165       39.431       22.593       19.364     1554.768      510.453      374.949        0.306        0.122       60.386       22.043        0.133      336.489        7.825      870.508
05/14/2014  05:27:00      -81.598      -31.933        1.389       23.584       27.605       15.903      556.204      762.030      252.903        0.463        0.079       87.624       10.132        0.013      336.571        7.963      870.509
05/14/2014  05:28:00      -64.339      -28.939        2.604       28.963       24.330       15.787      838.828      591.944      249.241        0.333        0.084       70.548       14.710        0.043      336.545        7.920      870.509
05/14/2014  05:29:00      -67.027      -36.640        6.207       31.370       17.154       14.470      984.100      294.257      209.376        0.368        0.074       76.388       12.215        0.026      336.637        8.074      870.503
05/14/2014  05:30:00      -49.290      -28.627        9.438       45.820       19.751       17.110     2099.506      390.112      292.751        0.306        0.139       57.000       16.112        0.080      336.683        8.151      870.501
05/14/2014  05:31:00      -61.300      -44.707        2.840       34.786       20.943       17.173     1210.091      438.630      294.903        0.385        0.097       75.871       16.391        0.047      336.641        8.081      870.509
05/14/2014  05:32:00      -30.773      -33.524       10.839       41.500       26.724       18.298     1722.212      714.178      334.820        0.248        0.139       45.506       17.512        0.148      336.609        8.027      870.527
05/14/2014  05:33:00      -64.990      -49.593        2.514       36.111       23.328       18.997     1303.993      544.186      360.879        0.445        0.110       81.750       17.689        0.047      336.667        8.124      870.540
05/14/2014  05:34:00      -80.898      -51.704       -1.669       31.642       21.460       16.237     1001.202      460.535      263.631        0.547        0.086       96.009       17.946        0.035      336.662        8.115      870.550
05/14/2014  05:35:00      -76.897      -51.065       -5.397       25.940       17.775       13.433      672.905      315.936      180.445        0.486        0.058       92.308       10.781        0.014      336.733        8.235      870.556
05/14/2014  05:36:00      -67.029      -41.903      -10.884       16.351       12.659       10.686      267.356      160.243      114.195        0.345        0.027       79.049        5.804        0.005      336.729        8.228      870.579
05/14/2014  05:37:00      -76.239      -24.871       -8.475       13.877       10.865        9.489      192.578      118.050       90.039        0.345        0.020       80.193        6.912        0.007      336.797        8.341      870.588
05/14/2014  05:38:00      -87.949      -46.671       -8.344       15.314       13.949       11.765      234.508      194.573      138.409        0.528        0.028       99.565        8.379        0.007      336.795        8.337      870.590
05/14/2014  05:39:00      -36.508      -32.306        8.008       42.201       20.831       15.253     1780.936      433.944      232.663        0.244        0.122       48.750       20.100        0.170      336.763        8.284      870.592
05/14/2014  05:40:00      -41.200      -35.146        2.377       35.062       16.395       16.343     1229.368      268.780      267.095        0.235        0.088       54.154       18.965        0.123      336.703        8.185      870.599
05/14/2014  05:41:00      -22.002      -30.579       10.040       30.480       19.849       20.563      929.030      393.980      422.851        0.163        0.087       37.672       18.414        0.239      336.616        8.039      870.611
05/14/2014  05:42:00      -59.228      -61.357        0.381       42.021       29.977       27.799     1765.748      898.600      772.810        0.535        0.172       85.280       24.464        0.082      336.656        8.105      870.633
05/14/2014  05:43:00      -74.700      -74.887       -1.895       36.312       31.843       18.873     1318.589     1013.972      356.202        0.694        0.134      105.774       14.716        0.019      336.771        8.297      870.643
05/14/2014  05:44:00      -56.648      -61.966        0.804       31.231       41.839       16.574      975.392     1750.485      274.714        0.502        0.150       83.957       17.516        0.044      336.729        8.227      870.645
05/14/2014  05:45:00     -110.308      -95.960       -3.267       40.922       25.965       20.944     1674.610      674.196      438.665        1.209        0.139      146.206       18.248        0.016      336.674        8.135      870.647
05/14/2014  05:46:00     -116.819      -75.846       -0.573       50.129       44.608       23.943     2512.884     1989.850      573.244        1.224        0.254      139.281       28.377        0.042      336.608        8.026      870.653
05/14/2014  05:47:00      -90.270      -63.267       -5.322       39.586       32.895       24.591     1567.048     1082.085      604.701        0.772        0.163      110.234       18.925        0.029      336.599        8.011      870.658
05/14/2014  05:48:00      -95.220      -56.586       -5.275       34.314       24.652       15.201     1177.450      607.741      231.073        0.716        0.101      110.765       11.134        0.010      336.626        8.054      870.665
05/14/2014  05:49:00      -72.026      -42.338        0.271       35.075       23.675       19.444     1230.286      560.514      378.078        0.457        0.108       83.548       18.938        0.051      336.562        7.948      870.673
05/14/2014  05:50:00      -51.029      -36.862        3.425       35.342       22.549       20.152     1249.054      508.436      406.098        0.307        0.108       62.951       13.878        0.049      336.600        8.011      870.686
05/14/2014  05:51:00      -18.579      -36.135       13.910       38.088       22.971       22.662     1450.693      527.685      513.558        0.217        0.125       40.632       18.677        0.211      336.610        8.028      870.695
05/14/2014  05:52:00      -68.632      -52.147        6.467       25.963       19.116       15.796      674.056      365.417      249.518        0.438        0.064       86.195       12.352        0.021      336.594        8.001      870.714
05/14/2014  05:53:00      -78.501      -65.024       -0.938       30.110       24.177       20.704      906.640      584.517      428.662        0.616        0.096      101.934       16.826        0.027      336.619        8.044      870.729
05/14/2014  05:54:00      -99.536      -96.472       -3.555       39.376       35.696       23.555     1550.461     1274.193      554.822        1.130        0.169      138.616       22.364        0.026      336.575        7.970      870.739
05/14/2014  05:55:00     -124.786     -121.467      -16.943       41.599       37.482       21.330     1730.487     1404.904      454.953        1.710        0.180      174.143       21.095        0.015      336.568        7.958      870.751
05/14/2014  05:56:00     -108.981      -64.704       10.543       49.556       48.002       29.625     2455.844     2304.226      877.620        1.091        0.282      126.742       28.609        0.051      336.548        7.926      870.766
05/14/2014  05:57:00     -104.454      -89.445       -2.170       41.318       36.409       23.413     1707.153     1325.604      548.171        1.125        0.179      137.517       23.494        0.029      336.591        7.998      870.780
05/14/2014  05:58:00     -102.750      -65.623        5.388       44.062       38.473       22.943     1941.421     1480.137      526.390        0.942        0.197      121.918       23.424        0.037      336.590        7.996      870.796
05/14/2014  05:59:00      -86.113      -78.610        6.072       42.477       39.767       19.874     1804.323     1581.389      394.994        0.871        0.189      116.597       21.002        0.032      336.591        7.997      870.799
05/14/2014  06:00:00      -61.687      -63.466        7.146       42.334       45.509       23.634     1792.134     2071.086      558.556        0.615        0.221       88.505       25.206        0.081      336.573        7.966      870.797
05/14/2014  06:01:00      -75.622      -55.067        7.727       67.756       38.056       26.367     4590.903     1448.264      695.236        0.777        0.337       93.547       29.962        0.103      336.558        7.940      870.793
05/14/2014  06:02:00      -89.357      -51.784        4.947       63.443       39.438       28.786     4025.076     1555.327      828.611        0.855        0.320      103.277       31.768        0.095      336.542        7.914      870.796
05/14/2014  06:03:00     -106.056      -60.601        7.039       60.519       32.739       26.752     3662.493     1071.845      715.695        1.021        0.273      122.149       31.187        0.065      336.525        7.886      870.796
05/14/2014  06:04:00     -109.538      -61.771        3.120       44.058       42.201       20.466     1941.073     1780.955      418.856        0.998        0.207      125.754       21.185        0.028      336.541        7.914      870.798
05/14/2014  06:05:00      -57.697      -42.224        7.077       47.865       33.409       23.190     2291.035     1116.189      537.793        0.455        0.197       71.497       22.358        0.098      336.562        7.948      870.802
05/14/2014  06:06:00      -72.398      -65.664        0.482       37.236       28.593       19.013     1386.548      817.568      361.498        0.606        0.128       97.741       22.130        0.051      336.551        7.930      870.804
05/14/2014  06:07:00      -55.297      -41.546        7.923       36.968       27.541       19.976     1366.644      758.516      399.029        0.368        0.126       69.165       20.077        0.084      336.559        7.943      870.815
05/14/2014  06:08:00      -78.573      -52.171       -1.303       34.311       21.156       19.378     1177.228      447.561      375.526        0.545        0.100       94.316       17.278        0.034      336.514        7.867      870.823
05/14/2014  06:09:00      -87.777      -55.262       -0.170       17.476       18.788       16.340      305.412      352.989      267.007        0.584        0.046      103.724       11.683        0.013      336.465        7.787      870.834
05/14/2014  06:10:00      -66.159      -50.823       -3.676       30.600       20.006       11.908      936.332      400.243      141.796        0.423        0.074       83.427       13.006        0.024      336.554        7.934      870.852
05/14/2014  06:11:00      -89.570      -41.818       -2.227       18.188       19.450       12.502      330.798      378.302      156.297        0.532        0.043       98.851       10.319        0.011      336.481        7.810      870.865
05/14/2014  06:12:00      -39.739      -31.657        5.347       44.238       24.565       17.401     1956.971      603.445      302.794        0.274        0.143       50.807       18.248        0.129      336.563        7.950      870.868
05/14/2014  06:13:00      -22.945      -20.256        3.303       25.033       15.417       15.792      626.663      237.697      249.377        0.103        0.056       30.607       14.902        0.237      336.587        7.989      870.881
05/14/2014  06:14:00      -50.516      -28.922       -0.728       33.041       18.397       15.731     1091.711      338.434      247.457        0.253        0.084       58.209       12.662        0.047      336.608        8.026      870.886
05/14/2014  06:15:00      -83.537      -45.828        1.424       20.742       16.658       11.394      430.214      277.475      129.817        0.496        0.042       95.282       10.519        0.012      336.540        7.911      870.885
05/14/2014  06:16:00     -106.750      -44.305       -7.386       16.670       23.318       17.472      277.875      543.706      305.254        0.727        0.056      115.579        8.975        0.006      336.550        7.927      870.885
05/14/2014  06:17:00      -45.999      -32.825        5.024       29.559       16.571       15.394      873.743      274.613      236.963        0.230        0.069       56.510       16.104        0.081      336.538        7.909      870.881
05/14/2014  06:18:00      -40.000      -27.499        6.960       34.665       18.460       13.238     1201.666      340.755      175.251        0.206        0.086       48.541       17.286        0.127      336.647        8.090      870.884
05/14/2014  06:19:00      -23.040      -21.880        9.311       26.152       18.239       15.790      683.909      332.673      249.334        0.118        0.063       31.774       18.234        0.329      336.754        8.269      870.898
05/14/2014  06:20:00      -39.854      -26.802        0.173       31.263       16.406       16.053      977.354      269.163      257.683        0.191        0.075       48.028       11.998        0.062      336.647        8.089      870.918
05/14/2014  06:21:00      -32.329      -30.376       10.564       41.415       20.840       15.807     1715.228      434.290      249.848        0.224        0.120       44.361       18.662        0.177      336.748        8.259      870.934
05/14/2014  06:22:00      -43.545      -38.747        9.769       38.154       27.436       21.624     1455.698      752.758      467.585        0.308        0.134       58.288       23.396        0.161      336.716        8.206      870.940
05/14/2014  06:23:00      -45.366      -85.622       -3.334       40.228       38.528       22.506     1618.269     1484.430      506.502        0.650        0.180       96.898       25.096        0.067      336.664        8.118      870.957
05/14/2014  06:24:00      -70.569      -81.116        2.782       29.325       33.917       20.388      859.949     1150.332      415.656        0.700        0.121      107.517       20.230        0.035      336.663        8.119      870.981
05/14/2014  06:25:00     -102.445     -102.931       -5.675       51.713       36.588       29.223     2674.220     1338.685      853.984        1.299        0.243      145.224       33.557        0.053      336.650        8.095      870.996
05/14/2014  06:26:00     -127.534     -117.680       -1.365       41.982       41.402       27.453     1762.525     1714.107      753.682        1.717        0.212      173.532       21.792        0.016      336.586        7.989      870.992
05/14/2014  06:27:00     -116.616      -78.145        2.874       45.391       36.072       29.342     2060.351     1301.169      860.963        1.197        0.211      140.378       24.735        0.031      336.632        8.066      871.012
05/14/2014  06:28:00     -100.604      -73.527       -2.972       41.851       33.691       19.866     1751.509     1135.106      394.659        0.941        0.164      124.609       14.980        0.014      336.672        8.132      871.022
05/14/2014  06:29:00     -101.240      -76.359       -2.983       32.509       29.437       18.613     1056.809      866.552      346.455        0.918        0.113      126.808       13.988        0.012      336.728        8.225      871.020
05/14/2014  06:30:00      -90.902      -60.869       -1.753       32.444       30.043       20.418     1052.597      902.585      416.901        0.717        0.119      109.399       13.265        0.015      336.759        8.276      871.031
05/14/2014  06:31:00      -82.967      -52.750       -4.513       36.386       30.025       16.326     1323.953      901.497      266.546        0.609        0.125       98.316       17.293        0.031      336.777        8.307      871.035
05/14/2014  06:32:00      -77.688      -32.195       -2.006       27.697       30.194       13.041      767.128      911.685      170.061        0.446        0.092       84.095        8.821        0.011      336.768        8.293      871.030
05/14/2014  06:33:00      -51.423       -7.816        5.259       32.300       28.024       18.575     1043.300      785.371      345.020        0.245        0.109       52.014       17.675        0.115      336.828        8.393      871.042
05/14/2014  06:34:00      -77.406      -12.206        6.371       26.596       28.792       12.794      707.338      829.006      163.678        0.394        0.085       78.363       11.119        0.020      336.813        8.367      871.035
05/14/2014  06:35:00     -104.317      -37.390       -2.473       28.031       21.477       19.357      785.759      461.262      374.692        0.695        0.081      110.816       14.909        0.018      336.869        8.460      871.036
05/14/2014  06:36:00      -88.993      -25.186        6.710       33.042       21.683       17.878     1091.766      470.138      319.637        0.524        0.094       92.488       18.478        0.040      336.892        8.498      871.027
05/14/2014  06:37:00      -65.710      -38.955        5.587       36.385       22.694       16.505     1323.891      515.009      272.418        0.399        0.106       76.389       15.155        0.039      336.999        8.676      871.025
05/14/2014  06:38:00      -75.131      -47.096       -3.504       27.575       20.575       15.024      760.384      423.318      225.730        0.464        0.070       88.672       11.887        0.018      336.976        8.637      871.026
05/14/2014  06:39:00      -30.535      -32.710       11.411       23.259       22.627       12.986      540.965      511.977      168.649        0.168        0.061       44.747       11.078        0.061      337.067        8.792      871.027
05/14/2014  06:40:00      -64.231      -33.228        3.594       28.533       24.411       18.648      814.156      595.894      347.732        0.350        0.088       72.317       18.338        0.064      337.124        8.886      871.037
05/14/2014  06:41:00      -45.565      -24.951        6.356       26.560       14.991       14.188      705.409      224.725      201.295        0.194        0.057       51.949       13.070        0.063      337.155        8.937      871.034
05/14/2014  06:42:00      -32.795      -31.128       10.666       43.327       21.628       24.699     1877.266      467.788      610.025        0.256        0.148       45.216       20.911        0.214      337.258        9.112      871.046
05/14/2014  06:43:00      -35.536      -30.902       11.382       35.418       26.799       21.985     1254.441      718.170      483.323        0.240        0.123       47.093       12.091        0.066      337.214        9.038      871.051
05/14/2014  06:44:00      -23.424      -21.265       13.481       35.262       19.789       19.402     1243.396      391.602      376.436        0.160        0.101       31.637       21.388        0.457      337.363        9.287      871.060
05/14/2014  06:45:00      -47.058      -48.043        7.473       46.009       31.555       22.152     2116.856      995.737      490.689        0.409        0.180       67.251       19.919        0.088      337.275        9.139      871.062
05/14/2014  06:46:00      -39.899      -23.671       12.756       48.076       27.068       20.106     2311.318      732.657      404.267        0.288        0.172       46.393       25.812        0.310      337.325        9.223      871.071
05/14/2014  06:47:00      -30.148      -24.844        9.017       24.909       19.294       15.103      620.469      372.242      228.102        0.141        0.061       39.066       12.421        0.101      337.333        9.236      871.080
05/14/2014  06:48:00      -63.134      -35.324        3.080       28.778       25.121       14.582      828.196      631.070      212.625        0.346        0.084       72.344       17.898        0.061      337.406        9.358      871.094
05/14/2014  06:49:00      -67.355      -40.515       -4.813       40.358       21.638       12.554     1628.778      468.211      157.592        0.423        0.113       78.601       12.507        0.025      337.255        9.107      871.091
05/14/2014  06:50:00      -49.574      -24.536       -2.415       24.857       19.738       13.731      617.891      389.585      188.550        0.213        0.060       55.314       12.678        0.053      337.343        9.253      871.089
05/14/2014  06:51:00      -58.979      -31.910       -3.809       24.673       14.391       11.804      608.767      207.112      139.343        0.273        0.048       67.058       12.575        0.035      337.308        9.195      871.080
05/14/2014  06:52:00      -58.929      -31.542       -4.835       12.308       12.901       11.272      151.482      166.429      127.062        0.247        0.022       66.839        4.614        0.005      337.350        9.264      871.063
05/14/2014  06:53:00      -53.766      -43.319        3.297       29.114       18.176       12.436      847.634      330.365      154.653        0.306        0.067       69.046       13.930        0.041      337.457        9.443      871.045
05/14/2014  06:54:00      -58.300      -19.239        5.808       22.136       21.982       11.800      490.003      483.197      139.250        0.246        0.056       61.392       11.732        0.037      337.458        9.446      871.031
05/14/2014  06:55:00      -57.401      -31.330       -3.110       17.158       13.318       10.619      294.398      177.380      112.772        0.244        0.029       65.395        4.553        0.005      337.462        9.451      871.031
05/14/2014  06:56:00      -63.352      -23.928       -7.124       24.896       12.307       10.044      619.811      151.473      100.878        0.275        0.044       67.720        6.794        0.010      337.525        9.557      871.032
05/14/2014  06:57:00      -61.414      -18.471       -1.146       19.276       21.942       13.334      371.552      481.454      177.805        0.257        0.052       64.131       12.182        0.036      337.549        9.599      871.035
05/14/2014  06:58:00      -62.393      -19.448       -0.126       12.963       12.150       11.681      168.034      147.633      136.437        0.236        0.023       65.354        8.550        0.017      337.597        9.679      871.040
05/14/2014  06:59:00      -19.166      -35.430        6.587       25.847       14.286       12.193      668.054      204.089      148.670        0.134        0.051       40.281       13.907        0.119      337.798       10.017      871.045
05/14/2014  07:00:00      -26.618      -28.261        5.709       19.246       20.774       15.106      370.414      431.566      228.197        0.128        0.052       38.822       12.670        0.107      337.773        9.975      871.058
05/14/2014  07:01:00      -11.755      -42.985        4.621       14.506       14.338       11.667      210.435      205.566      136.126        0.128        0.028       44.564        7.834        0.031      337.776        9.978      871.053
05/14/2014  07:02:00       -7.657      -63.173        2.523       38.548       30.223       18.869     1485.913      913.417      356.028        0.341        0.138       63.636       19.554        0.094      337.698        9.847      871.054
05/14/2014  07:03:00      -45.990      -57.097       -5.054       15.065       27.303       11.987      226.943      745.474      143.677        0.326        0.056       73.315        6.545        0.008      337.661        9.785      871.061
05/14/2014  07:04:00      -43.920      -39.543        4.055       41.902       25.856       17.372     1755.780      668.514      301.796        0.312        0.136       59.099       16.130        0.074      337.717        9.880      871.071
05/14/2014  07:05:00      -70.131      -66.679       -1.838       23.970       23.039       20.712      574.567      530.777      428.968        0.545        0.077       96.770       17.994        0.035      337.708        9.866      871.074
05/14/2014  07:06:00      -63.913      -76.278       -2.178       23.840       29.934       16.744      568.356      896.044      280.373        0.583        0.087       99.515       16.204        0.027      337.717        9.880      871.070
05/14/2014  07:07:00      -56.075      -63.316        4.585       28.723       21.364       18.883      824.999      456.420      356.576        0.441        0.082       84.577       16.785        0.039      337.828       10.065      871.078
05/14/2014  07:08:00      -60.363      -55.839        0.514       28.614       19.889       19.099      818.778      395.557      364.755        0.417        0.079       82.230       15.756        0.037      337.870       10.136      871.077
05/14/2014  07:09:00      -60.412      -65.602       -1.760       34.162       27.531       20.311     1167.072      757.944      412.537        0.515        0.117       89.181       16.262        0.033      337.904       10.194      871.081
05/14/2014  07:10:00      -42.675      -52.107        9.083       34.422       31.780       22.255     1184.863     1009.959      495.265        0.365        0.135       67.352       22.171        0.108      337.996       10.346      871.097
05/14/2014  07:11:00      -43.720      -64.899       -4.652       43.538       35.762       21.765     1895.520     1278.928      473.704        0.490        0.182       78.252       18.143        0.054      337.910       10.203      871.109
05/14/2014  07:12:00      -62.243      -79.594       -8.996       31.095       26.652       18.225      966.923      710.353      332.150        0.615        0.100      101.042       12.917        0.016      337.918       10.215      871.117
05/14/2014  07:13:00      -85.941      -82.500       -5.377       40.444       38.425       23.885     1635.707     1476.451      570.490        0.895        0.184      119.131       11.337        0.009      337.930       10.238      871.118
05/14/2014  07:14:00      -27.756      -88.541       -5.052       28.357       25.728       20.095      804.123      661.926      403.820        0.525        0.093       92.789       17.425        0.035      337.972       10.307      871.130
05/14/2014  07:15:00      -36.084      -24.713        2.504       25.863       24.830       18.460      668.917      616.548      340.782        0.177        0.081       43.735       19.853        0.206      338.057       10.450      871.143
05/14/2014  07:16:00      -52.922      -14.785       -1.927       31.320       25.943       17.135      980.960      673.054      293.620        0.248        0.097       54.949        8.920        0.026      338.070       10.472      871.148
05/14/2014  07:17:00      -43.592      -19.643        5.083       25.579       32.441       14.130      654.308     1052.395      199.652        0.211        0.095       47.814       12.295        0.066      338.194       10.679      871.152
05/14/2014  07:18:00      -47.378       -0.477       -3.302       25.496       30.020       18.068      650.034      901.191      326.435        0.207        0.094       47.381       18.911        0.159      338.239       10.756      871.160
05/14/2014  07:19:00      -29.699       18.105       10.507       21.504       18.206       15.989      462.429      331.472      255.639        0.118        0.052       34.782        9.376        0.073      338.456       11.122      871.163
05/14/2014  07:20:00      -37.348       22.661       11.941       34.039       19.991       21.894     1158.634      399.633      479.326        0.204        0.102       43.685       21.627        0.245      338.403       11.031      871.163
05/14/2014  07:21:00       -4.437       -1.322       18.257       14.268        9.258       12.749      203.579       85.715      162.529        0.040        0.023        4.630        8.313        3.224      339.232       12.424      871.164
05/14/2014  07:22:00      -24.171      -16.724        8.351       22.490       13.596       10.425      505.816      184.849      108.673        0.087        0.040       29.393       12.196        0.172      338.561       11.297      871.170
05/14/2014  07:23:00      -20.295        2.029       12.218       21.423       18.227       15.505      458.932      332.217      240.394        0.080        0.052       20.396       12.494        0.375      338.773       11.653      871.167
05/14/2014  07:24:00       -8.700        2.679       16.108       16.009       10.034       13.214      256.286      100.675      174.604        0.044        0.027        9.103        7.850        0.744      338.985       12.008      871.174
05/14/2014  07:25:00      -49.305       -8.040        0.520       15.868       19.376       12.017      251.791      375.423      144.414        0.163        0.039       49.956       11.512        0.053      338.342       10.927      871.167
05/14/2014  07:26:00      -25.786       17.552        8.185        9.888       16.051       14.211       97.782      257.644      201.952        0.080        0.028       31.193        3.479        0.012      338.473       11.149      871.160
05/14/2014  07:27:00      -16.611       16.648       14.979       15.263       18.793       14.066      232.964      353.178      197.845        0.078        0.039       23.518       11.273        0.230      339.051       12.120      871.155
05/14/2014  07:28:00      -24.434        7.894       -2.780       16.241       14.549       12.568      263.780      211.671      157.953        0.065        0.032       25.678        7.194        0.079      338.591       11.345      871.151
05/14/2014  07:29:00       -5.696       -2.419       20.509       11.408        8.585        9.202      130.142       73.708       84.685        0.037        0.014        6.189        7.325        1.401      339.255       12.463      871.148
05/14/2014  07:30:00      -10.316       17.020       33.004       12.336       17.717       13.686      152.182      313.906      187.296        0.107        0.033       19.903        4.058        0.042      339.418       12.739      871.146
05/14/2014  07:31:00       -1.759       16.402       39.526       11.146       17.138       13.756      124.237      293.712      189.232        0.122        0.030       16.496        8.900        0.291      339.315       12.564      871.135
05/14/2014  07:32:00       15.924       23.528       39.240       24.402       17.097       11.553      595.470      292.291      133.460        0.168        0.051       28.410        7.555        0.071      338.856       11.793      871.137
05/14/2014  07:33:00        1.834       22.486       32.573       17.860       15.331       17.263      318.996      235.054      298.001        0.121        0.043       22.560       12.459        0.305      338.957       11.963      871.154
05/14/2014  07:34:00       13.511       -6.753       32.081       17.257       31.060       21.019      297.790      964.698      441.803        0.148        0.085       15.105       18.321        1.471      339.181       12.339      871.157
05/14/2014  07:35:00        4.796      -30.416       22.545       20.332       31.564       22.137      413.390      996.288      490.063        0.168        0.095       30.792       19.423        0.398      339.173       12.326      871.158
05/14/2014  07:36:00      -12.623        7.482       35.118       13.647       15.210       15.061      186.234      231.343      226.823        0.105        0.032       14.674        9.450        0.415      339.891       13.535      871.163
05/14/2014  07:37:00       -2.425       12.730       25.802       18.025       18.294       14.557      324.914      334.672      211.911        0.085        0.044       12.959        9.981        0.593      339.494       12.868      871.163
05/14/2014  07:38:00       13.620      -26.877       15.232       19.279       19.722       25.436      371.682      388.967      646.993        0.127        0.070       30.131       15.771        0.274      339.113       12.224      871.165
05/14/2014  07:39:00       17.964      -19.898        2.378       10.072       12.342       21.493      101.454      152.328      461.928        0.072        0.036       26.808       11.084        0.171      339.124       12.244      871.165
05/14/2014  07:40:00       -2.424       -5.021       24.604       13.900       12.325       19.633      193.223      151.907      385.469        0.068        0.037        5.576        8.640        2.402      339.798       13.378      871.168
05/14/2014  07:41:00       -5.555        7.207       36.198       10.999       12.945       10.354      120.981      167.576      107.197        0.089        0.020        9.100        7.101        0.609      340.109       13.903      871.169
05/14/2014  07:42:00       -9.084        7.626       31.167        9.188       12.848       15.637       84.424      165.070      244.524        0.080        0.025       11.860        9.982        0.708      339.877       13.513      871.163
05/14/2014  07:43:00       -4.041       23.145       35.053        7.525       16.990       13.167       56.622      288.644      173.375        0.115        0.026       23.495        7.010        0.089      339.522       12.913      871.167
05/14/2014  07:44:00       -3.795        5.257       35.627        7.296       12.693       12.753       53.233      161.108      162.640        0.084        0.019        6.484        9.011        1.931      339.716       13.241      871.173
05/14/2014  07:45:00      -15.633       13.677       28.871       17.295       26.266       19.628      299.131      689.883      385.249        0.132        0.069       20.772       17.626        0.720      339.624       13.085      871.176
05/14/2014  07:46:00       -4.439        2.895       19.770       10.859       12.050       11.609      117.915      145.198      134.770        0.041        0.020        5.300        6.282        1.405      339.985       13.696      871.185
05/14/2014  07:47:00       -2.851       -6.875       14.983       12.903       16.358       18.718      166.488      267.585      350.351        0.053        0.039        7.443       13.253        3.170      339.699       13.214      871.189
05/14/2014  07:48:00       -8.608       12.508       29.740       13.075       16.799       20.882      170.945      282.198      436.051        0.100        0.044       15.184       12.896        0.721      339.983       13.692      871.186
05/14/2014  07:49:00      -11.032        4.391       23.221       15.415       12.778       11.586      237.630      163.275      134.237        0.061        0.027       11.873        8.364        0.496      340.215       14.082      871.173
05/14/2014  07:50:00       -4.424        3.858       16.402       11.630        9.008       13.788      135.256       81.144      190.106        0.035        0.020        5.870        7.009        1.426      339.953       13.640      871.175
05/14/2014  07:51:00       -3.872       -8.630       16.536       17.332       16.420       16.499      300.400      269.607      272.215        0.060        0.042        9.459        7.126        0.567      339.990       13.704      871.164
05/14/2014  07:52:00        0.618       11.919       38.455       11.082       14.457        8.940      122.820      209.018       79.916        0.102        0.021       11.935        4.293        0.129      340.319       14.259      871.165
05/14/2014  07:53:00        9.498       17.607       15.556       15.433       18.097       28.206      238.182      327.515      795.596        0.100        0.068       20.006       20.935        1.095      339.779       13.347      871.161
05/14/2014  07:54:00      -19.192       -1.524       23.291       16.571       15.183       11.525      274.604      230.510      132.825        0.078        0.032       19.252        6.223        0.104      339.626       13.089      871.167
05/14/2014  07:55:00      -14.337        8.311       24.234       19.697       17.452       18.557      387.977      304.578      344.361        0.095        0.052       16.572       11.941        0.519      340.126       13.934      871.172
05/14/2014  07:56:00      -37.841      -25.295       10.364       25.937       32.028       17.690      672.753     1025.769      312.949        0.209        0.101       45.516       15.978        0.123      339.557       12.972      871.171
05/14/2014  07:57:00      -29.940      -25.839       10.296       23.699       30.107       16.708      561.622      906.421      279.168        0.171        0.087       39.549       16.542        0.175      339.565       12.985      871.171
05/14/2014  07:58:00      -33.188      -26.579        2.799       16.608       19.365       11.368      275.813      375.005      129.221        0.130        0.039       42.520        8.474        0.040      339.329       12.587      871.175
05/14/2014  07:59:00      -46.432      -15.750        4.451       23.032       16.545       12.030      530.454      273.747      144.719        0.169        0.047       49.031        6.346        0.017      339.356       12.633      871.172
05/14/2014  08:00:00      -34.900      -34.304        5.847       15.906       23.709       12.771      252.999      562.116      163.101        0.170        0.049       48.936        7.201        0.022      339.298       12.535      871.167
05/14/2014  08:01:00      -20.217      -11.742       19.221       16.724       21.772       17.740      279.707      474.011      314.694        0.099        0.053       23.379        9.084        0.151      339.989       13.702      871.167
05/14/2014  08:02:00      -44.014       13.129        2.623       13.577       13.406       11.289      184.342      179.734      127.450        0.130        0.025       45.930        9.182        0.040      339.278       12.501      871.165
05/14/2014  08:03:00      -42.162       20.351        3.911       13.137       13.940       11.884      172.592      194.337      141.221        0.136        0.025       46.816       10.015        0.046      339.449       12.790      871.161
05/14/2014  08:04:00      -42.708        3.996        4.013        9.852        9.310        7.450       97.060       86.678       55.500        0.105        0.012       42.894        3.416        0.006      339.334       12.596      871.152
05/14/2014  08:05:00      -51.292       11.552       -0.939       16.120       11.626        8.224      259.862      135.166       67.631        0.161        0.023       52.577        8.003        0.023      339.315       12.565      871.144
05/14/2014  08:06:00      -32.689       18.280       14.239       19.359       17.294       22.060      374.790      299.093      486.633        0.138        0.058       37.453       16.448        0.193      339.981       13.688      871.140
05/14/2014  08:07:00      -19.883       -1.803       15.206       13.410       15.564       17.845      179.829      242.231      318.428        0.069        0.037       19.965       14.296        0.513      339.876       13.511      871.134
05/14/2014  08:08:00       -2.407       16.911       33.348       17.485       19.920       19.225      305.730      396.803      369.586        0.124        0.054       17.082        9.931        0.338      340.402       14.399      871.144
05/14/2014  08:09:00       39.714       -2.929       14.363       24.995       17.692       22.421      624.736      313.006      502.706        0.162        0.072       39.822       16.652        0.175      339.726       13.256      871.143
05/14/2014  08:10:00       40.662        5.813        6.219       16.424       13.956       22.082      269.753      194.784      487.606        0.134        0.048       41.076        8.045        0.038      339.652       13.132      871.142
05/14/2014  08:11:00       -6.863        3.646       -2.863       21.489       22.954       13.576      461.783      526.867      184.315        0.062        0.059        7.772       12.690        2.666      339.677       13.175      871.142
05/14/2014  08:12:00      -22.056       -2.505       14.262       11.450       12.372       10.245      131.106      153.056      104.958        0.054        0.019       22.198        6.486        0.085      340.147       13.967      871.134
05/14/2014  08:13:00      -17.038        4.418       23.185       13.642       11.521       15.865      186.111      132.725      251.691        0.071        0.029       17.601       10.609        0.363      340.692       14.889      871.124
05/14/2014  08:14:00      -27.018        4.102       10.530       19.268       22.113       14.431      371.272      488.988      208.244        0.096        0.053       27.327       11.877        0.189      340.199       14.056      871.117
05/14/2014  08:15:00      -26.810      -16.757       10.852       32.951       18.940       16.862     1085.792      358.725      284.314        0.142        0.086       31.617       18.871        0.356      340.335       14.286      871.115
05/14/2014  08:16:00      -36.948      -23.074        7.349       27.340       21.180       17.881      747.458      448.598      319.744        0.173        0.076       43.561       20.595        0.224      340.262       14.162      871.110
05/14/2014  08:17:00      -55.225      -25.127       -3.402       15.663       17.607       13.064      245.343      310.021      170.660        0.221        0.036       60.673       10.015        0.027      339.787       13.360      871.104
05/14/2014  08:18:00      -47.596      -11.942       -3.606       15.637       10.770        8.725      244.505      115.997       76.129        0.143        0.022       49.071        3.542        0.005      339.795       13.371      871.099
05/14/2014  08:19:00      -40.946       -1.689       11.626       18.937       19.350       21.136      358.594      374.414      446.713        0.150        0.059       40.981       17.940        0.192      340.269       14.175      871.095
05/14/2014  08:20:00      -34.372        1.461        7.775       20.567       31.409       19.363      423.012      986.529      374.936        0.151        0.089       34.403       14.812        0.185      340.137       13.950      871.097
05/14/2014  08:21:00      -15.471      -61.735        8.509       19.780       16.267       13.767      391.259      264.605      189.529        0.248        0.042       63.644       12.146        0.036      339.891       13.535      871.090
05/14/2014  08:22:00      -23.013      -40.520        2.660       17.817       23.645       16.594      317.434      559.079      275.353        0.166        0.058       46.598        9.666        0.043      340.016       13.746      871.078
05/14/2014  08:23:00      -20.854      -19.890        3.337       16.907       23.421       15.784      285.831      548.541      249.128        0.096        0.054       28.819       11.670        0.164      340.258       14.156      871.076
05/14/2014  08:24:00      -18.575      -13.952        7.364       16.006       15.932       12.930      256.185      253.825      167.189        0.064        0.034       23.231       10.358        0.199      340.511       14.582      871.073
05/14/2014  08:25:00      -28.279      -18.041        4.626       13.823       15.338       12.594      191.079      235.245      158.610        0.087        0.029       33.544        2.673        0.006      340.262       14.161      871.063
05/14/2014  08:26:00      -16.447        3.293       16.775       15.043       12.012       19.231      226.289      144.292      369.825        0.065        0.037       16.774       13.273        0.626      340.952       15.328      871.053
05/14/2014  08:27:00       -7.369       17.624       39.714       10.368       16.532       13.129      107.499      273.311      172.362        0.125        0.028       19.103        7.629        0.159      341.356       16.014      871.046
05/14/2014  08:28:00       -6.550       12.612       37.752       11.953       15.836       12.417      142.878      250.771      154.171        0.109        0.027       14.211        6.838        0.232      341.216       15.774      871.050
05/14/2014  08:29:00       -7.364        2.868       24.618       12.890       16.410       14.457      166.164      269.285      209.009        0.066        0.032        7.903        4.224        0.286      341.122       15.616      871.047
05/14/2014  08:30:00        7.956       14.217       22.788       15.239       25.018       15.871      232.212      625.902      251.873        0.095        0.055       16.292       15.760        0.936      341.260       15.851      871.036
05/14/2014  08:31:00        3.363       20.244        8.138       25.398       23.779       20.470      645.059      565.456      419.040        0.106        0.081       20.521       13.052        0.405      340.743       14.975      871.026
05/14/2014  08:32:00       46.575       39.358       21.471       24.419       17.214       19.732      596.293      296.326      389.333        0.273        0.064       60.978        8.523        0.020      340.619       14.764      871.017
05/14/2014  08:33:00       46.685       39.002       19.118       26.514       26.653       30.738      703.014      710.381      944.805        0.321        0.118       60.833       20.635        0.115      340.839       15.136      871.010
05/14/2014  08:34:00       23.070       54.539       13.117       32.361       46.290       32.849     1047.236     2142.791     1079.068        0.397        0.213       59.218       29.398        0.246      340.955       15.333      871.005
05/14/2014  08:35:00       74.976       36.905        7.207       37.347       26.996       37.099     1394.766      728.765     1376.302        0.527        0.175       83.566       23.540        0.079      340.946       15.318      870.991
05/14/2014  08:36:00       54.745       62.274       18.494       41.315       26.552       31.436     1706.898      705.025      988.216        0.531        0.170       82.916       18.544        0.050      340.901       15.242      870.987
05/14/2014  08:37:00       37.990       50.692        8.717       30.515       29.053       26.928      931.142      844.102      725.130        0.329        0.125       63.348       16.674        0.069      340.910       15.257      870.975
05/14/2014  08:38:00       14.462       48.166       20.658       32.429       27.476       30.680     1051.649      754.923      941.280        0.285        0.137       50.290       21.345        0.180      341.277       15.877      870.974
05/14/2014  08:39:00       39.697       45.452       35.551       43.228       21.133       27.470     1868.663      446.595      754.607        0.399        0.153       60.347       29.917        0.246      340.803       15.076      870.978
05/14/2014  08:40:00       37.577       40.205       20.368       26.621       22.958       23.487      708.651      527.070      551.621        0.262        0.089       55.032       11.840        0.046      340.610       14.750      870.974
05/14/2014  08:41:00       48.459       60.024        6.027       39.990       34.143       28.346     1599.219     1165.773      803.484        0.478        0.178       77.144       24.311        0.099      341.020       15.443      870.974
05/14/2014  08:42:00       44.457       33.510       20.443       39.853       25.508       24.762     1588.247      650.678      613.166        0.318        0.143       55.672       22.649        0.166      341.199       15.747      870.969
05/14/2014  08:43:00       51.042       59.475       12.849       38.832       27.426       27.904     1507.925      752.201      778.616        0.467        0.152       78.375       16.148        0.042      340.987       15.386      870.975
05/14/2014  08:44:00       55.524       79.787      -12.344       30.997       30.888       27.939      960.799      954.082      780.604        0.615        0.135       97.205       15.515        0.025      340.964       15.349      870.980
05/14/2014  08:45:00       70.765       64.179       -0.990       22.071       23.317       19.274      487.139      543.676      371.470        0.526        0.070       95.534       11.981        0.016      340.690       14.883      870.986
05/14/2014  08:46:00       44.115       56.047       -3.883       22.318       25.635       23.773      498.115      657.139      565.167        0.341        0.086       71.326       19.020        0.071      340.769       15.017      870.987
05/14/2014  08:47:00       72.652       50.422       15.638       41.592       25.740       31.851     1729.906      662.569     1014.507        0.574        0.170       88.435       11.886        0.018      340.788       15.051      870.993
05/14/2014  08:48:00      142.191       65.514        4.407       42.492       31.036       32.348     1805.607      963.254     1046.409        1.417        0.191      156.558       19.173        0.015      340.772       15.023      870.993
05/14/2014  08:49:00      133.121       83.522       -6.551       29.709       34.432       27.976      882.621     1185.540      782.630        1.379        0.143      157.153       19.883        0.016      340.719       14.934      870.987
05/14/2014  08:50:00       96.225       45.935       13.657       25.399       34.063       28.675      645.093     1160.272      822.257        0.709        0.131      106.627       14.508        0.019      340.812       15.090      870.980
05/14/2014  08:51:00       -0.873       32.753       21.283       28.094       28.970       19.016      789.247      839.279      361.604        0.176        0.100       32.765       12.104        0.136      341.481       16.225      870.983
05/14/2014  08:52:00       44.833       54.847       66.660       57.287       39.458       30.876     3281.813     1556.949      953.318        0.763        0.290       70.839       17.529        0.061      341.055       15.504      870.977
05/14/2014  08:53:00      101.548       45.595       26.206       46.196       44.469       32.601     2134.061     1977.497     1062.835        0.912        0.259      111.314       20.668        0.034      340.844       15.144      870.978
05/14/2014  08:54:00       19.192      -21.836       10.664       24.717       20.834       17.881      610.934      434.065      319.719        0.116        0.068       29.071       16.466        0.321      341.214       15.770      870.969
05/14/2014  08:55:00       35.775      -31.225        2.801       22.357       36.268       25.818      499.849     1315.365      666.575        0.237        0.124       47.485       12.769        0.072      340.943       15.315      870.960
05/14/2014  08:56:00       48.078       -0.183       28.969       29.330       22.206       26.877      860.265      493.110      722.367        0.261        0.104       48.079       17.999        0.140      340.902       15.243      870.952
05/14/2014  08:57:00       39.185       15.295       44.881       49.002       26.923       25.415     2401.230      724.829      645.903        0.378        0.189       42.064       14.279        0.115      341.118       15.609      870.941
05/14/2014  08:58:00       29.905       33.700       44.342       40.541       35.847       27.283     1643.552     1284.999      744.372        0.383        0.184       45.055       21.355        0.225      341.138       15.644      870.934
05/14/2014  08:59:00       63.947        6.871       17.836       51.550       45.016       48.242     2657.417     2026.461     2327.267        0.573        0.351       64.315       35.963        0.313      340.958       15.337      870.923
05/14/2014  09:00:00       46.335       -3.649       25.731       37.969       50.927       34.477     1441.645     2593.532     1188.656        0.402        0.261       46.478       33.239        0.511      341.127       15.623      870.919
05/14/2014  09:01:00       40.640      -29.613       18.078       28.324       68.898       32.896      802.257     4746.992     1082.177        0.474        0.332       50.285       35.311        0.493      340.816       15.099      870.909
05/14/2014  09:02:00       18.243       24.892       39.343       32.313       37.649       30.175     1044.124     1417.481      910.517        0.294        0.169       30.862       28.790        0.870      341.287       15.897      870.906
05/14/2014  09:03:00       39.325       45.782       17.549       43.197       41.972       36.124     1865.939     1761.616     1304.962        0.444        0.247       60.353       29.129        0.233      341.598       16.423      870.904
05/14/2014  09:04:00       59.264       43.080       15.184       29.458       31.011       31.391      867.795      961.660      985.406        0.421        0.141       73.268       21.660        0.087      341.436       16.148      870.903
05/14/2014  09:05:00       15.818       21.058       16.395       26.362       31.008       23.167      694.934      961.488      536.689        0.158        0.110       26.337       17.957        0.465      341.715       16.621      870.897
05/14/2014  09:06:00       11.649       22.192       40.200       24.452       31.989       17.012      597.884     1023.313      289.403        0.208        0.096       25.064       11.339        0.205      341.737       16.658      870.889
05/14/2014  09:07:00       34.860       10.205       44.741       28.281       27.099       18.381      799.812      734.358      337.862        0.260        0.094       36.323        7.111        0.038      341.532       16.311      870.880
05/14/2014  09:08:00       14.971      -23.809       24.707       29.007       28.918       22.821      841.378      836.279      520.784        0.180        0.110       28.125       15.472        0.303      341.378       16.050      870.878
05/14/2014  09:09:00       38.857       28.595       32.033       33.921       23.435       26.499     1150.645      549.188      702.216        0.288        0.120       48.244       22.134        0.210      341.520       16.290      870.874
05/14/2014  09:10:00       38.526       46.987       11.992       35.892       49.208       35.590     1288.267     2421.469     1266.643        0.441        0.249       60.762       25.496        0.176      341.700       16.595      870.866
05/14/2014  09:11:00       83.677       68.046        5.762       23.135       21.654       23.535      535.227      468.879      553.905        0.661        0.078      107.852       15.414        0.020      341.292       15.904      870.856
05/14/2014  09:12:00       47.492       26.736        4.317       19.197       14.220       14.205      368.508      202.204      201.781        0.188        0.039       54.500        5.869        0.012      341.397       16.081      870.843
05/14/2014  09:13:00       29.301       -0.778       25.909       26.913       19.130       17.848      724.326      365.962      318.564        0.147        0.070       29.311        8.797        0.090      341.549       16.340      870.840
05/14/2014  09:14:00       -1.609       21.475       41.113       12.524       17.910       13.497      156.848      320.753      182.163        0.141        0.033       21.535        5.262        0.060      342.213       17.465      870.836
05/14/2014  09:15:00       12.857       37.206       38.011       23.976       20.554       20.325      574.862      422.466      413.108        0.220        0.071       39.364        8.669        0.048      341.512       16.277      870.825
05/14/2014  09:16:00       37.353       32.854       10.071       20.400       25.064       29.089      416.178      628.222      846.150        0.223        0.095       49.746       14.637        0.087      341.093       15.567      870.814
05/14/2014  09:17:00       57.930       -4.106       19.720       30.262       29.053       22.894      915.772      844.103      524.123        0.302        0.114       58.076       17.548        0.091      341.280       15.883      870.800
05/14/2014  09:18:00       58.763       64.994       56.270       45.299       37.083       39.647     2052.004     1375.185     1571.899        0.792        0.250       87.620       28.751        0.108      341.596       16.420      870.786
05/14/2014  09:19:00       13.312       41.244       46.158       24.790       31.669       20.854      614.530     1002.943      434.895        0.303        0.103       43.339       10.422        0.058      342.025       17.146      870.775
05/14/2014  09:20:00       28.850       22.970       58.699       32.697       50.790       26.437     1069.107     2579.644      698.898        0.458        0.217       36.877       25.566        0.481      341.767       16.709      870.761
05/14/2014  09:21:00       60.543       34.745       31.758       40.278       30.508       36.785     1622.333      930.763     1353.125        0.489        0.195       69.804       26.636        0.146      341.913       16.957      870.748
05/14/2014  09:22:00       57.164       37.196        6.522       21.255       15.228       28.053      451.757      231.889      786.991        0.308        0.074       68.200        8.402        0.015      341.628       16.472      870.744
05/14/2014  09:23:00       47.821       52.689      -14.192       30.084       27.829       24.077      905.043      774.427      579.698        0.376        0.113       71.154       16.002        0.051      341.723       16.635      870.725
05/14/2014  09:24:00        0.637       14.100       -4.275       20.118       22.981       21.181      404.729      528.148      448.647        0.080        0.069       14.114       20.478        2.105      341.922       16.972      870.712
05/14/2014  09:25:00       27.569       31.845       31.254       39.903       30.608       30.703     1592.287      936.854      942.690        0.311        0.174       42.120       20.398        0.235      342.185       17.419      870.693
05/14/2014  09:26:00       69.544       52.475       45.866       37.328       44.390       37.748     1393.407     1970.471     1424.906        0.724        0.239       87.120       24.224        0.077      341.888       16.912      870.675
05/14/2014  09:27:00      114.347       49.179        9.032       33.059       33.445       31.071     1092.875     1118.594      965.401        0.938        0.159      124.474       15.344        0.015      341.992       17.089      870.670
05/14/2014  09:28:00       39.739       42.587       -0.566       42.171       29.960       29.455     1778.395      897.615      867.569        0.347        0.177       58.249       19.116        0.108      342.061       17.207      870.660
05/14/2014  09:29:00       16.876       55.604       49.659       33.538       37.924       34.228     1124.801     1438.222     1171.526        0.479        0.187       58.108       24.747        0.181      342.115       17.299      870.650
05/14/2014  09:30:00       64.433       42.534       18.303       46.211       36.099       33.017     2135.430     1303.129     1090.124        0.541        0.226       77.206       22.498        0.085      342.079       17.238      870.635
05/14/2014  09:31:00      105.815       61.547       20.848       50.292       33.623       30.656     2529.279     1130.519      939.765        1.001        0.230      122.413       24.608        0.040      341.966       17.046      870.628
05/14/2014  09:32:00       48.799       43.459        8.109       23.696       35.717       28.545      561.485     1275.732      814.821        0.349        0.133       65.345       21.880        0.112      342.139       17.340      870.613
05/14/2014  09:33:00      -19.333        7.522       33.612       17.752       23.142       15.693      315.124      535.556      246.271        0.133        0.055       20.745       12.299        0.352      342.990       18.787      870.591
05/14/2014  09:34:00      -14.987       40.648       18.427       31.286       47.238       28.161      978.793     2231.413      793.027        0.311        0.200       43.323       32.605        0.566      342.824       18.505      870.578
05/14/2014  09:35:00       -6.346       54.464       21.980       33.115       46.755       28.185     1096.605     2186.063      794.417        0.378        0.204       54.833       18.383        0.112      343.191       19.131      870.573
05/14/2014  09:36:00       34.986       13.078       27.190       29.349       28.545       27.763      861.343      814.815      770.809        0.229        0.122       37.351       19.803        0.281      342.935       18.694      870.573
05/14/2014  09:37:00       37.362      -16.118       35.755       35.899       56.489       34.548     1288.726     3190.980     1193.542        0.430        0.284       40.690       23.009        0.320      342.423       17.824      870.571
05/14/2014  09:38:00       57.149       24.800       36.548       47.956       42.218       27.516     2299.782     1782.389      757.148        0.503        0.242       62.298       19.963        0.103      342.793       18.451      870.569
05/14/2014  09:39:00       34.893       40.273       46.101       48.906       32.873       42.052     2391.791     1080.611     1768.386        0.510        0.262       53.287       24.480        0.211      342.841       18.534      870.568
05/14/2014  09:40:00       86.896       81.994       37.947       49.704       26.276       44.773     2470.473      690.451     2004.655        1.044        0.258      119.473       33.452        0.078      342.063       17.210      870.565
05/14/2014  09:41:00       79.613       42.352       15.619       61.325       54.317       39.457     3760.804     2950.327     1556.830        0.832        0.413       90.178       29.821        0.109      341.948       17.015      870.566
05/14/2014  09:42:00        9.171        3.355       37.855       27.406       44.174       34.451      751.065     1951.360     1186.851        0.271        0.194        9.765       23.209        5.649      342.401       17.787      870.547
05/14/2014  09:43:00       31.671       -9.067       23.781       34.747       31.918       30.704     1207.357     1018.752      942.747        0.241        0.158       32.944       29.396        0.796      342.165       17.386      870.552
05/14/2014  09:44:00        2.852        4.865       25.572       29.985       16.550       22.793      899.102      273.889      519.517        0.119        0.085        5.639       12.222        4.698      342.824       18.507      870.538
05/14/2014  09:45:00       71.531      -11.876       27.012       42.293       46.814       29.191     1788.681     2191.527      852.112        0.541        0.242       72.510       24.006        0.110      342.148       17.354      870.537
05/14/2014  09:46:00       28.800      -17.125       22.269       49.880       46.026       34.606     2488.049     2118.407     1197.562        0.371        0.290       33.507       26.743        0.637      342.553       18.044      870.530
05/14/2014  09:47:00       55.916       31.156       46.246       33.636       20.960       25.743     1131.393      439.338      662.695        0.423        0.112       64.010        5.139        0.006      342.548       18.037      870.521
05/14/2014  09:48:00       56.990      -19.531        8.712       41.907       31.011       28.768     1756.165      961.668      827.624        0.362        0.177       60.243       29.759        0.244      341.828       16.813      870.516
05/14/2014  09:49:00       31.832       10.896       32.702       25.834       27.407       23.142      667.381      751.171      535.564        0.208        0.098       33.645        6.870        0.042      342.551       18.039      870.509
05/14/2014  09:50:00       21.866       -4.583        7.079       19.934       40.812       24.760      397.352     1665.579      613.044        0.161        0.134       22.341       17.209        0.593      342.249       17.527      870.510
05/14/2014  09:51:00       23.083      -37.706       11.819       28.589       36.094       33.351      817.352     1302.803     1112.319        0.266        0.162       44.211       33.281        0.567      342.789       18.447      870.488
05/14/2014  09:52:00       71.707       56.689       12.085       51.830       43.184       25.896     2686.344     1864.861      670.625        0.686        0.261       91.409       18.026        0.039      342.555       18.046      870.486
05/14/2014  09:53:00       66.222       59.133       16.724       41.549       30.995       32.224     1726.310      960.680     1038.377        0.594        0.186       88.781       23.280        0.069      342.860       18.565      870.474
05/14/2014  09:54:00       77.197       43.179        7.217       26.220       29.827       27.068      687.505      889.628      732.652        0.509        0.115       88.452       13.449        0.023      342.706       18.303      870.470
05/14/2014  09:55:00       48.763       43.289       14.141       50.385       40.790       32.118     2538.607     1663.829     1031.580        0.484        0.262       65.206       23.986        0.135      343.086       18.951      870.459
05/14/2014  09:56:00       89.753       72.106        7.327       43.353       30.759       31.901     1879.509      946.124     1017.676        0.858        0.192      115.129       23.126        0.040      343.184       19.118      870.457
05/14/2014  09:57:00       75.396       54.484       -4.628       30.338       24.423       30.967      920.368      596.501      958.953        0.557        0.124       93.021       15.071        0.026      342.788       18.443      870.448
05/14/2014  09:58:00        5.719       44.056       -9.686       29.378       24.696       28.087      863.058      609.882      788.882        0.216        0.113       44.426       17.068        0.148      343.082       18.943      870.447
05/14/2014  09:59:00       -5.555       68.072        6.420       23.368       41.508       27.802      546.072     1722.910      772.964        0.387        0.152       68.299       27.460        0.162      343.622       19.865      870.435
05/14/2014  10:00:00       72.071       39.426       18.333       27.173       22.951       25.378      738.397      526.750      644.034        0.450        0.095       82.150       12.847        0.024      343.046       18.881      870.427
05/14/2014  10:01:00       53.172       31.733       10.916       32.593       38.963       31.100     1062.315     1518.133      967.238        0.375        0.177       61.921       18.689        0.091      342.894       18.623      870.419
05/14/2014  10:02:00       -5.256      -24.186       16.108       24.755       26.855       24.966      612.803      721.214      623.291        0.141        0.098       24.751       16.138        0.425      343.498       19.654      870.411
05/14/2014  10:03:00       29.033      -30.737       -1.507       31.671       28.406       30.232     1003.073      806.916      913.959        0.226        0.136       42.281       13.236        0.098      342.753       18.384      870.397
05/14/2014  10:04:00       13.697       28.177       28.893       32.567       25.748       32.496     1060.632      662.958     1056.008        0.230        0.139       31.330       15.846        0.256      343.603       19.832      870.394
05/14/2014  10:05:00       65.122       54.185        9.304       40.762       26.596       34.750     1661.522      707.342     1207.557        0.542        0.179       84.717       16.887        0.040      342.825       18.506      870.389
05/14/2014  10:06:00       85.737       25.127        0.634       39.927       37.525       35.144     1594.164     1408.148     1235.074        0.611        0.212       89.343       21.661        0.059      343.082       18.943      870.391
05/14/2014  10:07:00       26.947        9.193       43.869       33.155       43.087       30.045     1099.287     1856.474      902.682        0.330        0.193       28.472        7.243        0.065      343.641       19.894      870.388
05/14/2014  10:08:00        9.332       17.391       43.666       35.693       28.559       24.971     1274.018      815.641      623.566        0.250        0.136       19.737       18.633        0.891      343.853       20.259      870.379
05/14/2014  10:09:00       33.311       42.563       45.246       31.687       40.158       29.985     1004.086     1612.675      899.076        0.424        0.176       54.048       16.430        0.092      343.642       19.898      870.380
05/14/2014  10:10:00       57.006       25.328       31.299       49.129       51.830       39.201     2413.657     2686.357     1536.744        0.575        0.332       62.380       32.735        0.275      343.275       19.271      870.385
05/14/2014  10:11:00       30.430       45.606       47.572       34.413       53.206       52.081     1184.281     2830.888     2712.458        0.600        0.336       54.826       30.256        0.305      343.295       19.306      870.394
05/14/2014  10:12:00       48.193        9.342       17.558       43.874       36.503       36.880     1924.901     1332.480     1360.125        0.367        0.231       49.090       29.428        0.359      343.356       19.410      870.396
05/14/2014  10:13:00       32.391       54.466       17.155       39.570       48.150       36.955     1565.770     2318.448     1365.709        0.478        0.262       63.370       30.154        0.226      343.681       19.964      870.402
05/14/2014  10:14:00       46.461       26.133       -8.313       21.249       24.028       24.681      451.535      577.362      609.133        0.227        0.082       53.306        9.139        0.029      343.392       19.470      870.400
05/14/2014  10:15:00       -7.857       30.900       -3.405       25.915       27.180       27.424      671.592      738.756      752.099        0.159        0.108       31.884       12.788        0.161      343.737       20.060      870.401
05/14/2014  10:16:00       90.553       49.232       13.306       59.943       39.020       26.117     3593.109     1522.544      682.080        0.830        0.290      103.071       21.244        0.042      343.552       19.744      870.377
05/14/2014  10:17:00      142.628       80.907       19.682       72.711       66.180       44.792     5286.935     4379.809     2006.333        1.947        0.584      163.978       25.396        0.024      343.613       19.847      870.363
05/14/2014  10:18:00       85.326       72.369       19.541       58.081       25.449       26.466     3373.445      647.657      700.461        0.881        0.236      111.883       19.458        0.030      343.371       19.435      870.349
05/14/2014  10:19:00       81.620       84.530       13.852       81.296       50.837       45.177     6609.004     2584.426     2040.951        1.261        0.562      117.504       38.070        0.105      343.756       20.091      870.347
05/14/2014  10:20:00       32.765       47.730       13.378       46.226       45.838       39.685     2136.884     2101.168     1574.896        0.467        0.291       57.894       22.060        0.145      343.823       20.208      870.334
05/14/2014  10:21:00       -4.349        4.906       38.076       31.662       43.455       26.511     1002.512     1888.301      702.820        0.254        0.180        6.556       22.079       11.341      343.952       20.426      870.321
05/14/2014  10:22:00        2.180       32.658       38.186       27.448       34.373       37.575      753.382     1181.524     1411.916        0.294        0.167       32.731       22.554        0.475      343.973       20.464      870.314
05/14/2014  10:23:00      109.679       68.128       22.960       68.149       55.524       45.379     4644.298     3082.899     2059.219        1.349        0.489      129.116       37.375        0.084      343.826       20.211      870.316
05/14/2014  10:24:00       81.220       59.008        3.209       55.239       38.168       28.686     3051.302     1456.760      822.876        0.771        0.267      100.393       21.095        0.044      344.016       20.535      870.311
05/14/2014  10:25:00       40.510       12.542        1.600       61.521       37.097       35.855     3784.796     1376.178     1285.569        0.412        0.322       42.407       19.316        0.207      344.058       20.608      870.309
05/14/2014  10:26:00      161.038      124.438       24.504       80.464       61.499       48.413     6474.408     3782.078     2343.849        2.731        0.630      203.514       31.205        0.024      344.022       20.543      870.301
05/14/2014  10:27:00      172.224      114.368       17.432       81.369       77.161       43.572     6620.845     5953.843     1898.480        2.876        0.724      206.739       25.891        0.016      344.077       20.638      870.294
05/14/2014  10:28:00      147.792      107.480       27.302       64.582       53.680       53.368     4170.789     2881.576     2848.116        2.202        0.495      182.742       41.532        0.052      343.964       20.445      870.305
05/14/2014  10:29:00      120.644       60.953       23.102       89.304       64.272       35.416     7975.229     4130.875     1254.321        1.608        0.668      135.168       37.734        0.078      343.950       20.422      870.293
05/14/2014  10:30:00       63.466       52.185       33.344       64.091       56.728       49.671     4107.676     3218.054     2467.195        0.883        0.490       82.166       27.593        0.113      344.195       20.842      870.297
05/14/2014  10:31:00       83.292       45.027       85.196       80.895       76.284       64.249     6544.024     5819.235     4127.994        1.635        0.825       94.683       52.007        0.302      343.947       20.417      870.293
05/14/2014  10:32:00       71.385       -3.355       30.173       63.007       80.994       52.332     3969.923     6560.080     2738.593        0.964        0.663       71.464       44.080        0.380      343.582       19.797      870.315
05/14/2014  10:33:00      110.116       52.258       40.776       69.066       73.429       43.958     4770.132     5391.774     1932.337        1.430        0.605      121.887       39.524        0.105      343.676       19.955      870.307
05/14/2014  10:34:00       15.069       23.616       38.337       33.471       28.675       25.399     1120.339      822.263      645.117        0.242        0.129       28.014       16.705        0.356      344.206       20.861      870.310
05/14/2014  10:35:00        6.039        9.923       22.451       28.986       39.437       27.429      840.169     1555.264      752.340        0.189        0.157       11.616       21.430        3.404      344.369       21.140      870.295
05/14/2014  10:36:00       32.668      -10.662       19.181       35.216       45.906       39.164     1240.141     2107.361     1533.823        0.321        0.244       34.364       33.098        0.928      343.897       20.333      870.299
05/14/2014  10:37:00       14.089       19.400       55.429       40.706       42.934       29.468     1656.956     1843.351      868.341        0.401        0.218       23.976       24.115        1.012      344.295       21.012      870.277
05/14/2014  10:38:00       -9.729       30.589       51.422       23.353       41.169       27.156      545.385     1694.869      737.431        0.333        0.149       32.099       19.215        0.358      344.483       21.334      870.280
05/14/2014  10:39:00       32.942       47.736       50.451       44.967       46.128       32.564     2022.065     2127.838     1060.413        0.556        0.261       58.000       26.079        0.202      344.547       21.443      870.272
05/14/2014  10:40:00       38.269       41.089       59.812       44.827       52.264       39.256     2009.476     2731.533     1541.067        0.650        0.314       56.150       29.374        0.274      344.274       20.977      870.265
05/14/2014  10:41:00       13.607      -43.659        6.264       27.635       22.487       18.948      763.680      505.663      359.023        0.188        0.081       45.730       15.083        0.109      343.442       19.557      870.263
05/14/2014  10:42:00        2.107       -2.059       38.462       14.853       37.213       19.590      220.614     1384.810      383.761        0.174        0.099        2.946       22.810       59.969      344.739       21.773      870.251
05/14/2014  10:43:00       77.538      -60.632        8.556       76.895       91.204       48.501     5912.767     8318.151     2352.385        1.317        0.829       98.430       54.823        0.310      344.419       21.225      870.243
05/14/2014  10:44:00       34.198     -126.214       -1.416       67.174       67.319       63.214     4512.301     4531.858     3996.038        1.507        0.652      130.765       49.117        0.141      344.581       21.500      870.233
05/14/2014  10:45:00       50.164      -97.272       14.775       80.054       74.439       51.978     6408.654     5541.118     2701.702        1.342        0.733      109.445       48.326        0.195      344.749       21.788      870.233
05/14/2014  10:46:00       30.374       -4.874       12.138       57.416       87.616       54.824     3296.612     7676.596     3005.720        0.753        0.699       30.762       40.608        1.743      345.114       22.414      870.230
05/14/2014  10:47:00       32.435       30.394       58.887       63.112       70.180       50.061     3983.110     4925.263     2506.124        0.843        0.571       44.450       53.631        1.456      345.032       22.274      870.228
05/14/2014  10:48:00       40.890       15.730       32.779       50.408       56.146       46.992     2540.968     3152.354     2208.213        0.545        0.395       43.811       38.354        0.766      344.507       21.376      870.216
05/14/2014  10:49:00      108.106      119.696       79.822       60.748       57.411       50.807     3690.371     3296.068     2581.363        2.097        0.478      161.289       37.237        0.053      344.460       21.292      870.212
05/14/2014  10:50:00       67.419       58.464       23.988       51.453       52.740       33.214     2647.383     2781.483     1103.185        0.753        0.327       89.238       18.668        0.044      344.778       21.838      870.202
05/14/2014  10:51:00       40.198       34.530       40.532       54.029       38.911       33.954     2919.109     1514.072     1152.872        0.502        0.279       52.993       31.510        0.354      345.170       22.510      870.194
05/14/2014  10:52:00        2.160       55.474       58.820       47.153       50.669       33.005     2223.367     2567.348     1089.326        0.621        0.294       55.516       30.293        0.298      345.514       23.100      870.190
05/14/2014  10:53:00       33.480       51.104       29.459       60.574       39.870       44.360     3669.248     1589.597     1967.785        0.591        0.361       61.094       30.037        0.242      344.867       21.991      870.181
05/14/2014  10:54:00       75.328       73.182       13.533       54.752       57.273       42.702     2997.803     3280.239     1823.480        0.966        0.405      105.023       31.233        0.088      345.226       22.604      870.169
05/14/2014  10:55:00       90.869       77.253       -0.351       54.367       39.091       32.662     2955.750     1528.096     1066.823        0.989        0.278      119.270        7.593        0.004      344.626       21.578      870.159
05/14/2014  10:56:00       40.056       75.784       -3.972       44.359       45.089       30.239     1967.684     2032.994      914.404        0.614        0.246       85.718       23.114        0.073      344.551       21.451      870.158
05/14/2014  10:57:00       12.052      -19.001       15.993       26.421       27.370       30.114      698.060      749.114      906.875        0.156        0.118       22.500       18.331        0.664      345.361       22.837      870.141
05/14/2014  10:58:00       15.977      -80.446        3.384       40.300       55.317       33.699     1624.059     3060.005     1135.629        0.628        0.291       82.017       31.453        0.147      345.127       22.435      870.133
05/14/2014  10:59:00       27.996       -4.131       53.622       63.464       56.934       32.553     4027.704     3241.425     1059.717        0.600        0.416       28.299       26.060        0.848      345.339       22.800      870.119
05/14/2014  11:00:00       66.344       18.782       68.495       78.874       89.401       61.355     6221.171     7992.623     3764.424        1.371        0.899       68.951       65.095        0.891      344.640       21.602      870.102
05/14/2014  11:01:00      135.515      138.453       98.311       94.795       43.454       56.925     8986.089     1888.290     3240.400        3.065        0.706      193.736       56.290        0.084      344.339       21.084      870.117
05/14/2014  11:02:00       35.842       70.975       65.658       68.928       52.943       53.590     4751.088     2802.954     2871.936        1.053        0.521       79.512       40.932        0.265      344.812       21.897      870.110
05/14/2014  11:03:00       15.850       -7.634       24.889       40.229       58.680       40.565     1618.339     3443.392     1645.533        0.382        0.335       17.592       46.161        6.885      344.952       22.137      870.119
05/14/2014  11:04:00       44.270       11.827       25.220       38.659       33.868       25.235     1494.502     1147.059      636.785        0.301        0.164       45.823       15.293        0.111      344.843       21.950      870.092
05/14/2014  11:05:00      -27.600       25.193       33.811       35.902       24.549       22.327     1288.986      602.653      498.507        0.246        0.120       37.368        9.451        0.064      345.051       22.306      870.080
05/14/2014  11:06:00       42.820       18.402        9.380       29.091       40.478       25.149      846.264     1638.463      632.488        0.269        0.156       46.607       21.027        0.204      344.455       21.285      870.067
05/14/2014  11:07:00       24.502        2.379       19.007       17.769       26.279       28.499      315.720      690.572      812.181        0.139        0.091       24.617       21.899        0.791      344.694       21.694      870.060
05/14/2014  11:08:00       33.001       36.321       12.563       35.376       33.215       27.765     1251.496     1103.227      770.882        0.285        0.156       49.074       22.228        0.205      344.680       21.671      870.047
05/14/2014  11:09:00       66.277      101.790       17.347       98.522       75.553       57.860     9706.640     5708.195     3347.834        1.690        0.938      121.465       32.250        0.070      345.223       22.599      870.021
05/14/2014  11:10:00      170.092       88.489       27.838       93.554       68.070       57.348     8752.347     4633.494     3288.765        2.710        0.834      191.734       58.480        0.093      345.176       22.517      870.006
05/14/2014  11:11:00      193.845       92.504       35.092       60.530       50.705       41.764     3663.877     2571.006     1744.259        2.767        0.399      214.786       35.262        0.027      344.694       21.690      870.005
05/14/2014  11:12:00       52.135       46.324       35.820       60.364       41.266       49.359     3643.768     1702.908     2436.345        0.696        0.389       69.742       41.095        0.347      344.918       22.079      870.002
05/14/2014  11:13:00       21.060       67.748       80.414       58.431       60.889       58.553     3414.183     3707.447     3428.477        1.102        0.528       70.945       49.652        0.490      344.952       22.135      869.989
05/14/2014  11:14:00       38.417       70.727       83.545       56.385       59.054       43.808     3179.319     3487.429     1919.131        1.102        0.429       80.487       39.990        0.247      344.932       22.103      869.986
05/14/2014  11:15:00       38.915      -18.601       57.441       68.038       89.153       55.820     4629.196     7948.258     3115.838        1.042        0.785       43.132       61.712        2.047      345.053       22.308      869.966
05/14/2014  11:16:00      122.172      -34.941       44.758       94.253       93.504       60.005     8883.620     8743.054     3600.555        1.968        1.061      127.070       69.103        0.296      344.923       22.086      869.983
05/14/2014  11:17:00       71.973        7.890       52.310       71.998      101.382       70.887     5183.650    10278.295     5024.971        1.423        1.024       72.404       68.860        0.904      344.833       21.932      869.982
05/14/2014  11:18:00       40.857      -30.794       25.217       47.398       46.827       35.053     2246.557     2192.796     1228.732        0.446        0.283       51.162       32.938        0.414      345.030       22.270      869.967
05/14/2014  11:19:00       11.138       16.036       43.147       29.601       34.859       27.239      876.203     1215.139      741.946        0.254        0.142       19.524       18.294        0.878      345.425       22.946      869.942
05/14/2014  11:20:00       73.366       49.016       30.627       63.774       37.803       36.118     4067.142     1429.104     1304.495        0.776        0.340       88.234        7.113        0.006      344.916       22.074      869.933
05/14/2014  11:21:00       26.969       52.229        7.667       43.028       52.402       34.830     1851.433     2745.976     1213.104        0.466        0.291       58.780       27.513        0.219      345.211       22.579      869.919
05/14/2014  11:22:00       20.017      101.434        2.707       38.711       54.534       38.638     1498.542     2973.969     1492.899        0.833        0.298      103.390       35.230        0.116      345.578       23.210      869.911
05/14/2014  11:23:00       93.046       63.266       11.948       64.192       54.306       46.107     4120.603     2949.107     2125.873        1.100        0.460      112.517       26.605        0.056      345.590       23.228      869.901
05/14/2014  11:24:00       96.659       57.978        6.949       68.131       67.916       46.018     4641.836     4612.543     2117.647        1.206        0.569      112.714       36.118        0.103      345.514       23.098      869.891
05/14/2014  11:25:00        6.506       34.437       -3.820       39.768       40.411       28.819     1581.523     1633.040      830.548        0.264        0.202       35.046       25.635        0.535      345.385       22.877      869.899
05/14/2014  11:26:00       69.474       44.148       19.813       48.255       32.956       31.605     2328.565     1086.106      998.854        0.579        0.221       82.315       18.906        0.053      345.391       22.886      869.894
05/14/2014  11:27:00       22.297        9.620       56.477       39.773       52.731       24.723     1581.919     2780.511      611.245        0.438        0.249       24.284       28.832        1.410      345.592       23.234      869.894
05/14/2014  11:28:00        7.054       14.480       55.356       38.190       67.376       54.299     1458.442     4539.577     2948.331        0.613        0.447       16.107       46.349        8.280      345.388       22.884      869.885
05/14/2014  11:29:00       74.529      -17.757       62.520      121.299      146.710       88.867    14713.401    21523.881     7897.322        2.695        2.207       76.615      118.231        2.381      345.374       22.857      869.871
05/14/2014  11:30:00      157.054       -5.193       73.514      105.979       85.499       67.676    11231.615     7310.118     4580.012        2.660        1.156      157.140       64.215        0.167      345.137       22.450      869.865
05/14/2014  11:31:00      102.639      -35.974       36.468       92.569       75.591       58.650     8569.055     5713.992     3439.857        1.544        0.886      108.761       53.051        0.238      345.157       22.487      869.885
05/14/2014  11:32:00       78.234      -69.063       22.100       60.303       75.881       47.796     3636.444     5757.955     2284.470        1.153        0.584      104.356       48.999        0.220      344.858       21.976      869.896
05/14/2014  11:33:00       17.010      -17.090       10.275       61.471       36.803       36.636     3778.637     1354.452     1342.231        0.358        0.324       24.113       28.744        1.421      345.061       22.324      869.873
05/14/2014  11:34:00      141.112      126.236       73.423       98.059       57.213       58.915     9615.505     3273.278     3471.012        2.880        0.818      189.336       56.764        0.090      345.069       22.333      869.860
05/14/2014  11:35:00       79.134       86.697       57.208       51.065       35.950       49.475     2607.601     1292.403     2447.771        1.170        0.317      117.382       28.914        0.061      345.011       22.238      869.857
05/14/2014  11:36:00       46.070       57.017       22.360       42.838       39.329       39.712     1835.058     1546.735     1577.028        0.542        0.248       73.304        9.757        0.018      345.199       22.558      869.835
05/14/2014  11:37:00       29.211       23.984       10.839       82.613       41.538       35.581     6824.951     1725.367     1265.976        0.568        0.491       37.796       33.575        0.789      345.289       22.714      869.818
05/14/2014  11:38:00       18.277       45.314       15.411       72.950       49.227       38.471     5321.659     2423.249     1480.033        0.592        0.461       48.861       46.580        0.909      345.701       23.420      869.804
05/14/2014  11:39:00      102.020      116.238       92.492       66.345       72.019       67.254     4401.618     5186.798     4523.104        2.329        0.706      154.658       51.222        0.110      345.475       23.030      869.785
05/14/2014  11:40:00       98.227       99.794       64.712       68.396       37.959       39.089     4678.005     1440.865     1527.967        1.572        0.382      140.026       30.337        0.047      345.199       22.560      869.788
05/14/2014  11:41:00       83.413       73.670       94.394       70.837       83.443       64.233     5017.844     6962.721     4125.827        1.870        0.805      111.288       59.621        0.287      345.433       22.957      869.781
05/14/2014  11:42:00       46.132       32.473       35.303       47.448       36.039       53.210     2251.278     1298.794     2831.310        0.540        0.319       56.415       32.283        0.327      345.229       22.611      869.806
05/14/2014  11:43:00      -38.334       28.451       -8.455       67.860       51.046       26.420     4604.940     2605.647      698.026        0.513        0.395       47.738       13.252        0.077      345.202       22.565      869.768
05/14/2014  11:44:00       17.488       40.161       20.436       62.770       43.037       36.674     3940.053     1852.215     1344.989        0.474        0.357       43.804       33.702        0.592      345.872       23.713      869.734
05/14/2014  11:45:00       19.560       49.781       30.913       57.115       46.482       38.797     3262.117     2160.542     1505.170        0.537        0.346       53.486       16.924        0.100      346.083       24.076      869.736
05/14/2014  11:46:00      105.876       48.433       14.871       83.070       47.715       45.089     6900.651     2276.758     2033.017        1.249        0.561      116.428       25.413        0.048      345.640       23.316      869.716
05/14/2014  11:47:00       20.839        1.275       46.289       35.252       46.781       29.177     1242.672     2188.426      851.293        0.343        0.214       20.878       22.721        1.184      346.582       24.933      869.722
05/14/2014  11:48:00        8.733       55.991       94.761       45.412       69.010       52.947     2062.258     4762.380     2803.423        1.091        0.481       56.668       52.931        0.872      346.334       24.506      869.702
05/14/2014  11:49:00       91.260       88.465       62.273       67.123       51.134       52.695     4505.556     2614.696     2776.719        1.496        0.495      127.100       30.841        0.059      346.086       24.078      869.685
05/14/2014  11:50:00      102.041       53.733       12.633       78.349       52.088       44.977     6138.598     2713.173     2022.951        1.216        0.544      115.325       20.799        0.033      345.905       23.769      869.674
05/14/2014  11:51:00       84.396       66.951       75.333       89.098       66.554       54.094     7938.523     4429.452     2926.171        1.628        0.765      107.728       33.578        0.097      346.011       23.953      869.655
05/14/2014  11:52:00       10.449       70.518      115.816       68.769       74.710       48.958     4729.217     5581.541     2396.876        1.560        0.635       71.288       47.440        0.443      346.270       24.396      869.639
05/14/2014  11:53:00       76.114      -80.328       13.535       90.635      101.771       69.834     8214.714    10357.336     4876.801        1.793        1.172      110.661       79.058        0.510      346.047       24.012      869.634
05/14/2014  11:54:00      123.034      -97.302       10.378       85.978      128.453       81.346     7392.216    16500.107     6617.242        2.761        1.525      156.860       88.850        0.321      345.693       23.406      869.608
05/14/2014  11:55:00       43.226      -86.882       36.217       60.250      154.018       75.547     3630.062    23721.588     5707.339        2.189        1.653       97.041       97.960        1.019      345.648       23.327      869.615
05/14/2014  11:56:00       81.882      103.997      111.845       81.277       85.506       48.859     6605.897     7311.276     2387.225        2.316        0.815      132.363       49.930        0.142      345.584       23.216      869.596
05/14/2014  11:57:00       98.911     -121.782       30.485       85.002      132.658       66.400     7225.391    17598.082     4408.958        2.738        1.462      156.889       93.000        0.351      345.573       23.199      869.598
05/14/2014  11:58:00       61.045       -4.464       31.704       64.916       54.638       49.176     4214.063     2985.274     2418.306        0.718        0.481       61.208       47.183        0.594      345.893       23.750      869.607
05/14/2014  11:59:00       60.218      -11.498        6.731       47.455       42.697       36.582     2252.015     1823.073     1338.209        0.461        0.271       61.305       24.025        0.154      345.681       23.386      869.590
05/14/2014  12:00:00      126.541      150.062      151.295      136.664      133.369       93.013    18677.110    17787.347     8651.350        5.326        2.256      196.294       65.589        0.112      345.851       23.675      869.567
05/14/2014  12:01:00      184.075       73.763      105.121      143.346      187.325      109.245    20548.200    35090.782    11934.533        5.896        3.379      198.304      113.578        0.328      345.754       23.508      869.545
05/14/2014  12:02:00      170.086      -63.110       75.688      158.336      136.813       87.008    25070.135    18717.758     7570.409        4.499        2.568      181.417      100.020        0.304      345.939       23.826      869.547
05/14/2014  12:03:00      115.113      111.771      135.827      104.914      129.362       75.868    11006.908    16734.591     5755.910        3.884        1.675      160.449       85.681        0.285      345.869       23.707      869.533
05/14/2014  12:04:00      108.324       32.301       87.189       85.978       73.968       64.225     7392.144     5471.320     4124.905        1.868        0.849      113.037       63.910        0.320      345.731       23.470      869.557
05/14/2014  12:05:00       39.420      -56.912        1.468       48.144       61.270       36.489     2317.801     3753.978     1331.419        0.610        0.370       69.231       18.652        0.073      345.805       23.598      869.537
05/14/2014  12:06:00       69.358      -81.941       -2.029       84.211       91.891       43.067     7091.549     8444.017     1854.762        1.446        0.870      107.354       37.987        0.125      345.827       23.634      869.506
05/14/2014  12:07:00       -9.985      -23.633       16.559       38.109       45.872       37.155     1452.317     2104.250     1380.486        0.293        0.247       25.656       21.737        0.718      346.325       24.491      869.468
05/14/2014  12:08:00        1.093      -19.048       47.321       28.450       57.121       30.131      809.410     3262.863      907.855        0.379        0.249       19.080       30.357        2.531      346.456       24.717      869.458
05/14/2014  12:09:00       44.894       28.128       39.323       68.918       80.725       46.172     4749.697     6516.601     2131.830        0.887        0.670       52.978       28.206        0.283      346.206       24.287      869.437
05/14/2014  12:10:00      115.000       73.301       38.044       49.327       37.156       47.862     2433.131     1380.576     2290.787        1.307        0.305      136.374       23.009        0.028      345.440       22.971      869.413
05/14/2014  12:11:00      123.269       95.474       -8.308       52.086       43.787       40.014     2712.907     1917.327     1601.121        1.530        0.312      155.918       24.150        0.024      345.415       22.929      869.403
05/14/2014  12:12:00       -2.290       79.219      -21.598       49.103       50.007       27.032     2411.146     2500.679      730.715        0.619        0.282       79.252       26.362        0.111      345.464       23.014      869.389
05/14/2014  12:13:00      -73.082       82.744      -23.624       30.113       44.280       26.265      906.772     1960.762      689.846        0.815        0.178      110.397       17.586        0.025      345.497       23.070      869.365
05/14/2014  12:14:00      -17.144       23.266       16.696       22.058       27.040       21.188      486.573      731.158      448.951        0.139        0.083       28.900       12.152        0.177      346.355       24.543      869.328
05/14/2014  12:15:00      -48.188       27.035       -8.308       29.816       31.297       23.819      888.993      979.512      567.335        0.278        0.122       55.254       22.487        0.166      345.759       23.519      869.303
05/14/2014  12:16:00      -74.959       17.017      -10.243       29.884       26.202       22.921      893.051      686.521      525.350        0.406        0.105       76.866       15.075        0.038      345.395       22.895      869.290
05/14/2014  12:17:00      -36.501      -47.078       -5.514       32.883       29.793       21.592     1081.321      887.637      466.220        0.301        0.122       59.571       10.811        0.033      345.632       23.300      869.263
05/14/2014  12:18:00       26.207     -111.201      -16.736       92.382       95.961       50.328     8534.390     9208.455     2532.872        1.680        1.014      114.248       55.474        0.236      345.884       23.732      869.235
05/14/2014  12:19:00        7.834      -45.309        6.199       43.658       64.267       33.258     1906.014     4130.272     1106.080        0.465        0.357       45.981       37.756        0.674      345.880       23.729      869.228
05/14/2014  12:20:00       18.363      -54.766       13.182       43.180       58.218       33.912     1864.535     3389.310     1150.055        0.496        0.320       57.762       37.370        0.419      346.473       24.747      869.220
05/14/2014  12:21:00      114.123     -178.855      -20.638      100.279       91.158       48.017    10055.943     8309.871     2305.599        3.305        1.034      212.163       60.253        0.081      345.890       23.741      869.197
05/14/2014  12:22:00       36.151     -124.926        4.639       80.225       50.767       47.729     6436.089     2577.307     2278.043        1.411        0.565      130.051       27.893        0.046      346.047       24.013      869.167
05/14/2014  12:23:00       59.910     -186.016        3.424       99.973      126.451       64.603     9994.607    15989.901     4173.546        3.417        1.508      195.426       62.623        0.103      345.961       23.863      869.127
05/14/2014  12:24:00       47.427      -27.466       64.875      102.720      149.011      101.609    10551.485    22204.154    10324.486        2.514        2.154       54.806      113.569        4.294      346.297       24.442      869.118
05/14/2014  12:25:00      128.541       14.006       91.692      126.326      178.795       87.390    15958.145    31967.750     7637.053        4.033        2.778      129.302       99.060        0.587      346.127       24.150      869.116
05/14/2014  12:26:00       38.980       97.581      171.887       83.699      123.012       78.969     7005.554    15132.057     6236.161        3.447        1.419      105.078       79.968        0.579      346.487       24.769      869.117
05/14/2014  12:27:00       79.809      -41.527       75.507       90.102      113.127       81.227     8118.438    12797.612     6597.753        2.065        1.376       89.966       78.057        0.753      346.236       24.337      869.123
05/14/2014  12:28:00      147.369       26.103      108.099      110.011      168.673      101.617    12102.450    28450.655    10326.060        4.247        2.544      149.663      119.891        0.642      346.205       24.282      869.111
05/14/2014  12:29:00       87.185      -73.153       33.585       68.834      121.818       70.901     4738.095    14839.532     5027.001        1.934        1.230      113.809       80.708        0.503      346.096       24.096      869.135
05/14/2014  12:30:00       37.611     -125.415       -0.089       44.095       71.253       34.447     1944.356     5077.003     1186.600        1.267        0.410      130.933       18.719        0.020      346.030       23.983      869.112
05/14/2014  12:31:00       42.697        3.765       42.840       70.737       46.462       43.102     5003.690     2158.704     1857.802        0.634        0.451       42.863       40.130        0.877      346.637       25.028      869.091
05/14/2014  12:32:00       78.477     -131.514       -6.070       58.498       54.079       38.880     3422.032     2924.492     1511.662        1.567        0.393      153.149       30.407        0.039      345.932       23.815      869.071
05/14/2014  12:33:00        1.664      -37.876       42.939       34.516       51.480       33.517     1191.325     2650.211     1123.400        0.412        0.248       37.913       33.484        0.780      346.694       25.126      869.049
05/14/2014  12:34:00       14.994       27.912       50.122       49.734       69.424       49.534     2473.485     4819.689     2453.662        0.663        0.487       31.684       37.805        1.424      346.788       25.288      869.017
05/14/2014  12:35:00       80.401       43.066       71.344       76.595       76.915       53.612     5866.782     5915.947     2874.227        1.403        0.733       91.209       53.638        0.346      346.357       24.545      869.023
05/14/2014  12:36:00      179.101      150.499      128.577      142.951      114.563      128.738    20435.048    13124.583    16573.563        6.069        2.507      233.938      114.476        0.239      346.068       24.047      869.013
05/14/2014  12:37:00      127.329       85.959       73.332       94.838       84.407       98.498     8994.240     7124.521     9701.815        2.739        1.291      153.628       92.280        0.361      345.864       23.697      869.024
05/14/2014  12:38:00       55.759       64.874       65.871       58.670      101.707       62.855     3442.172    10344.386     3950.693        1.469        0.887       85.544       64.465        0.568      346.053       24.023      869.003
05/14/2014  12:39:00       46.741       25.008       39.867       36.634       39.183       28.869     1342.019     1535.273      833.433        0.405        0.186       53.011       21.600        0.166      346.204       24.284      868.964
05/14/2014  12:40:00       28.508      -43.740       24.827       39.963      104.008       53.086     1597.054    10817.561     2818.161        0.928        0.762       52.210       56.443        1.169      346.422       24.658      868.932
05/14/2014  12:41:00      139.589      103.248       59.427       93.018       87.959       89.976     8652.345     7736.832     8095.671        2.908        1.224      173.623       66.810        0.148      346.215       24.301      868.906
05/14/2014  12:42:00      122.978       83.704       78.075       75.587       53.232       47.934     5713.435     2833.632     2297.647        1.953        0.542      148.762       47.096        0.100      346.178       24.238      868.899
05/14/2014  12:43:00       45.466       26.644       95.780       69.863      101.120       69.510     4880.832    10225.348     4831.608        1.594        0.997       52.697       64.089        1.479      346.726       25.180      868.896
05/14/2014  12:44:00       60.273      -53.386       45.678       67.450      153.235      107.044     4549.542    23481.019    11458.505        2.402        1.974       80.516      121.396        2.273      346.266       24.388      868.908
05/14/2014  12:45:00      113.509        8.579       64.725       89.170      131.627       83.255     7951.362    17325.614     6931.402        2.467        1.610      113.833       87.184        0.587      346.384       24.590      868.895
05/14/2014  12:46:00       -0.282      -11.842       27.500       47.634       60.340       28.664     2269.021     3640.928      821.627        0.381        0.337       11.845       29.343        6.137      346.701       25.137      868.872
05/14/2014  12:47:00       82.927      -86.295        8.094       83.376       68.733       50.711     6951.478     4724.244     2571.598        1.432        0.712      119.682       40.901        0.117      346.496       24.784      868.859
05/14/2014  12:48:00       90.094       60.503       64.122       66.848       67.415       52.489     4468.671     4544.748     2755.049        1.383        0.588      108.524       44.088        0.165      346.179       24.240      868.847
05/14/2014  12:49:00       38.005       17.379       40.642       61.479       70.156       37.434     3779.672     4921.831     1401.333        0.675        0.505       41.790       35.730        0.731      346.324       24.490      868.821
05/14/2014  12:50:00      116.015      -18.759       66.947       98.910      116.772       61.969     9783.124    13635.741     3840.127        2.277        1.363      117.522       65.408        0.310      346.488       24.770      868.818
05/14/2014  12:51:00      108.721       61.145       75.619       72.416       63.806       66.361     5244.027     4071.180     4403.741        1.750        0.686      124.735       43.331        0.121      346.120       24.139      868.834
05/14/2014  12:52:00      -22.561       10.843       14.897       26.688       19.839       23.748      712.251      393.601      563.946        0.126        0.083       25.031       19.274        0.593      346.388       24.600      868.807
05/14/2014  12:53:00        7.601        5.625       15.514       23.444       27.805       26.665      549.616      773.107      711.008        0.118        0.102        9.455       22.985        5.909      346.865       25.420      868.773
05/14/2014  12:54:00        8.557        8.402       21.253       13.892       21.959       15.426      192.984      482.212      237.975        0.075        0.046       11.992        9.673        0.651      347.129       25.876      868.772
05/14/2014  12:55:00      -14.157      -19.959       19.172       26.071       26.306       21.729      679.686      691.998      472.153        0.140        0.092       24.470       12.909        0.278      347.022       25.690      868.771
05/14/2014  12:56:00      -79.032       -6.825        5.525       80.183       46.162       28.701     6429.268     2130.929      823.736        0.785        0.469       79.326       20.736        0.068      346.492       24.778      868.734
05/14/2014  12:57:00        0.607        7.431       14.868       33.606       22.155       24.747     1129.374      490.839      612.420        0.125        0.112        7.456       17.136        5.282      347.182       25.966      868.712
05/14/2014  12:58:00      -14.811      -52.847        8.820       41.892       53.023       26.831     1754.927     2811.432      719.879        0.419        0.264       54.883       17.034        0.096      347.046       25.731      868.705
05/14/2014  12:59:00       22.440       79.599      174.048       88.922      218.680      141.667     7907.143    47820.833    20069.408        5.645        3.790       82.702      162.306        3.852      346.820       25.341      868.677
05/14/2014  13:00:00      195.748     -179.931       50.454      121.565      270.518      141.322    14778.060    73180.168    19971.955        9.056        5.397      265.881      181.221        0.465      346.315       24.472      868.657
05/14/2014  13:01:00      247.600      169.950       63.094       90.566       79.899       83.966     8202.140     6383.920     7050.207        5.790        1.082      300.315       52.641        0.031      345.888       23.736      868.691
05/14/2014  13:02:00      173.776      135.243      134.685      105.768       85.542       94.482    11186.915     7317.388     8926.825        4.702        1.372      220.201       56.506        0.066      346.520       24.822      868.692
05/14/2014  13:03:00       78.232       65.325       84.272       94.389       91.862       74.060     8909.365     8438.644     5484.820        2.016        1.142      101.920       47.482        0.217      346.705       25.144      868.694
05/14/2014  13:04:00       94.427      -79.804       15.321       77.070      100.753       51.916     5939.810    10151.127     2695.269        1.715        0.939      123.633       51.589        0.174      346.706       25.145      868.702
05/14/2014  13:05:00      142.335       84.040       44.094       78.391       78.146       54.575     6145.097     6106.873     2978.445        2.225        0.762      165.293       33.114        0.040      346.230       24.325      868.698
05/14/2014  13:06:00       78.680       57.180       29.471       81.166       91.751       68.482     6587.909     8418.275     4689.771        1.501        0.985       97.263       58.553        0.362      346.502       24.795      868.679
05/14/2014  13:07:00       94.378       69.405       50.407       60.311       53.604       62.066     3637.388     2873.370     3852.153        1.331        0.518      117.151       32.873        0.079      346.590       24.948      868.672
05/14/2014  13:08:00      105.887       81.562       59.475       80.822       75.584       86.330     6532.177     5712.966     7452.861        2.055        0.985      133.658       77.135        0.333      346.465       24.731      868.658
05/14/2014  13:09:00      146.381      110.723       65.236       72.315       76.912       67.563     5229.481     5915.412     4564.773        2.682        0.785      183.540       53.200        0.084      346.068       24.046      868.643
05/14/2014  13:10:00       58.430       35.680       31.719       57.556       35.112       35.622     3312.706     1232.833     1268.920        0.575        0.291       68.462       35.471        0.268      346.616       24.991      868.638
05/14/2014  13:11:00       57.867      -37.639       40.863       76.570       81.468       51.213     5862.966     6636.995     2622.756        1.078        0.756       69.031       25.381        0.135      346.847       25.387      868.621
05/14/2014  13:12:00       69.909       53.728       57.124       55.022       65.154       57.234     3027.446     4245.019     3275.714        1.079        0.527       88.170       39.792        0.204      346.764       25.247      868.618
05/14/2014  13:13:00        0.945       -7.797        5.215       62.609       36.075       34.537     3919.860     1301.390     1192.816        0.325        0.321        7.854       25.917       10.889      346.438       24.687      868.612
05/14/2014  13:14:00       51.649      -47.565       36.384       46.078       53.382       34.783     2123.154     2849.648     1209.888        0.622        0.309       70.214       28.600        0.166      346.387       24.600      868.596
05/14/2014  13:15:00       96.625       43.714       24.223       78.375       51.448       45.093     6142.601     2646.864     2033.358        1.133        0.541      106.054       25.969        0.060      346.792       25.295      868.562
05/14/2014  13:16:00      121.345       69.265       -1.668       74.101       45.186       42.106     5491.026     2041.767     1772.905        1.441        0.465      139.722       25.959        0.035      346.606       24.974      868.556
05/14/2014  13:17:00       20.651       65.404       61.384       59.863       81.727       93.189     3583.565     6679.265     8684.152        1.371        0.947       68.586       62.921        0.842      346.875       25.435      868.538
05/14/2014  13:18:00       67.282       75.964      112.982       67.576       86.512       70.094     4566.501     7484.370     4913.192        2.001        0.848      101.476       69.718        0.472      346.390       24.604      868.549
05/14/2014  13:19:00       59.806      -46.245       40.610       60.273       73.234       46.863     3632.783     5363.280     2196.168        0.928        0.560       75.600       55.744        0.544      346.751       25.223      868.520
05/14/2014  13:20:00       51.593       66.117       18.045       60.423       61.807       62.955     3650.901     3820.104     3963.284        0.939        0.572       83.865       42.659        0.259      346.312       24.468      868.510
05/14/2014  13:21:00      -22.999       85.544       -3.916       45.379       48.808       30.774     2059.239     2382.180      947.061        0.662        0.269       88.581       23.838        0.072      346.520       24.827      868.469
05/14/2014  13:22:00      101.593      121.133        0.004       96.065       76.385       63.192     9228.521     5834.710     3993.229        2.202        0.953      158.096       43.691        0.076      346.370       24.568      868.444
05/14/2014  13:23:00       50.957      210.042      -24.253       69.546      107.531       56.310     4836.660    11562.810     3170.767        3.343        0.979      216.135       61.404        0.081      346.384       24.591      868.426
05/14/2014  13:24:00      138.127       91.959       30.445      102.824       61.587       56.752    10572.833     3793.014     3220.744        2.302        0.879      165.938       22.550        0.018      346.455       24.712      868.434
05/14/2014  13:25:00      140.820       67.428       35.463       59.352       68.138       56.749     3522.607     4642.854     3220.493        1.851        0.569      156.130       43.828        0.079      346.467       24.734      868.404
05/14/2014  13:26:00       60.194      110.077       11.245       62.548       73.740       49.823     3912.275     5437.528     2482.328        1.385        0.592      125.460       48.210        0.148      346.586       24.939      868.401
05/14/2014  13:27:00       98.523       64.098        7.952       91.183       58.550       44.291     8314.297     3428.065     1961.692        1.379        0.685      117.538       21.921        0.035      346.476       24.751      868.390
05/14/2014  13:28:00       10.730      109.262        1.596       56.690       71.604       40.989     3213.756     5127.121     1680.090        1.104        0.501      109.787       40.313        0.135      346.885       25.455      868.355
05/14/2014  13:29:00       72.428      104.370       71.574       85.512      100.657      100.608     7312.354    10131.842    10121.888        2.441        1.378      127.039       75.333        0.352      347.024       25.692      868.337
05/14/2014  13:30:00      126.506       96.480      107.893      151.070      134.072       86.396    22822.235    17975.424     7464.227        4.260        2.413      159.098       87.162        0.300      347.117       25.853      868.320
05/14/2014  13:31:00      127.165      -22.255       78.935      113.288      113.128       78.158    12834.205    12797.876     6108.689        2.731        1.587      129.098       73.874        0.327      346.960       25.582      868.333
05/14/2014  13:32:00      118.462       -6.443       84.112      117.274      178.827      126.830    13753.205    31979.140    16085.928        4.147        3.091      118.637      133.818        1.272      346.546       24.869      868.338
05/14/2014  13:33:00       25.989       -3.697       53.025       51.319      115.208       59.146     2633.610    13272.787     3498.245        1.145        0.970       26.251       70.103        7.132      347.111       25.845      868.320
05/14/2014  13:34:00      210.295      130.728       51.363       86.984       73.993       64.776     7566.264     5475.012     4195.912        4.059        0.862      247.617       47.396        0.037      346.786       25.280      868.332
05/14/2014  13:35:00      228.810      136.491       12.669       98.998       77.829       70.896     9800.660     6057.396     5026.301        4.601        1.044      266.428       48.351        0.033      346.749       25.217      868.328
05/14/2014  13:36:00      187.364      117.462        9.182       74.477       62.092       41.211     5546.839     3855.398     1698.352        3.004        0.555      221.140       17.102        0.006      346.382       24.586      868.322
05/14/2014  13:37:00       88.376       68.370       -3.831       31.464       33.679       29.032      989.969     1134.250      842.881        0.773        0.148      111.735       17.875        0.026      346.339       24.516      868.321
05/14/2014  13:38:00       80.595       57.094       16.118       45.632       45.430       41.828     2082.256     2063.927     1749.611        0.795        0.295       98.769       24.174        0.060      346.450       24.707      868.297
05/14/2014  13:39:00      144.004      101.638       19.058       42.523       30.696       36.845     1808.183      942.275     1357.534        1.777        0.205      176.260       14.032        0.006      346.317       24.475      868.273
05/14/2014  13:40:00       91.684       65.798       34.331       61.864       59.696       66.857     3827.189     3563.655     4469.867        1.288        0.593      112.851       54.543        0.234      346.692       25.123      868.257
05/14/2014  13:41:00       80.743     -100.226       35.076      107.857      146.214       80.303    11633.100    21378.429     6448.499        2.862        1.973      128.703       75.971        0.348      347.119       25.857      868.233
05/14/2014  13:42:00      133.967       46.001       88.983      104.994      122.328       82.145    11023.713    14964.086     6747.842        3.035        1.637      141.645       74.178        0.274      347.093       25.811      868.232
05/14/2014  13:43:00       47.110      -35.495       56.518       98.566      171.654      103.752     9715.179    29465.177    10764.534        2.830        2.497       58.985      113.275        3.688      347.257       26.095      868.228
05/14/2014  13:44:00      133.287     -170.911       -9.322      117.224      144.110       76.622    13741.425    20767.735     5870.923        4.371        2.019      216.740       94.682        0.191      346.790       25.289      868.209
05/14/2014  13:45:00       69.108      -96.218       39.616       62.915      102.630       54.164     3958.267    10532.983     2933.764        1.651        0.871      118.465       61.454        0.269      347.149       25.907      868.206
05/14/2014  13:46:00       79.050      -44.052       44.411       81.079      151.059       92.837     6573.729    22818.742     8618.620        2.408        1.901       90.496       99.021        1.197      347.180       25.961      868.194
05/14/2014  13:47:00       59.313      117.258      130.482       97.255      100.883      113.125     9458.504    10177.431    12797.165        3.336        1.622      131.405       84.485        0.413      347.456       26.436      868.171
05/14/2014  13:48:00      130.593       73.613      117.493      173.705      142.785       91.953    30173.423    20387.461     8455.437        4.764        2.951      149.911       70.874        0.224      347.079       25.786      868.194
05/14/2014  13:49:00       88.405      -70.779       49.284       84.118      127.671       69.338     7075.805    16300.002     4807.810        2.171        1.409      113.248       74.869        0.437      347.197       25.991      868.203
05/14/2014  13:50:00       76.319       21.684       79.761       73.875       70.374       53.000     5457.449     4952.467     2808.954        1.294        0.661       79.340       52.207        0.433      347.056       25.748      868.212
05/14/2014  13:51:00        3.075      -56.020       -9.092       32.656       37.074       22.836     1066.413     1374.498      521.474        0.310        0.148       56.105       12.104        0.047      346.488       24.773      868.201
05/14/2014  13:52:00       26.117      -30.331       12.893       78.009       59.634       42.340     6085.338     3556.255     1792.704        0.660        0.572       40.026       40.999        1.049      346.841       25.379      868.176
05/14/2014  13:53:00       18.452      -72.609      -16.864       67.048       51.236       33.946     4495.490     2625.157     1152.320        0.708        0.414       74.917       22.559        0.091      346.979       25.617      868.158
05/14/2014  13:54:00       56.030      -19.451       11.411       32.546       42.121       31.288     1059.255     1774.172      978.929        0.373        0.191       59.310       21.517        0.132      347.156       25.921      868.136
05/14/2014  13:55:00      -56.956       53.208        2.749       52.112       32.997       25.052     2715.612     1088.795      627.608        0.526        0.222       77.943       28.152        0.130      347.344       26.245      868.115
05/14/2014  13:56:00      -60.707      110.212       -2.606       50.421       56.241       43.192     2542.327     3163.038     1865.551        1.170        0.379      125.826       33.272        0.070      347.136       25.886      868.100
05/14/2014  13:57:00       10.679       32.598       14.854       27.833       35.333       27.520      774.671     1248.418      757.359        0.209        0.139       34.302       16.439        0.230      347.282       26.138      868.098
05/14/2014  13:58:00       24.097      -20.187       10.579       44.998       56.020       28.746     2024.844     3138.296      826.352        0.354        0.299       31.435       26.652        0.719      347.382       26.311      868.082
05/14/2014  13:59:00      165.656     -235.108      -23.772       82.536       98.586       50.337     6812.209     9719.210     2533.782        5.117        0.953      287.607       49.367        0.029      346.646       25.039      868.043
05/14/2014  14:00:00       74.972     -141.186      -37.154       68.010       75.387       39.126     4625.293     5683.202     1530.852        1.938        0.592      159.857       32.056        0.040      346.772       25.258      868.027
05/14/2014  14:01:00       46.171        5.795       29.862       37.229       33.734       29.369     1386.015     1137.956      862.523        0.322        0.169       46.533       21.466        0.213      347.319       26.203      868.018
05/14/2014  14:02:00       89.981       30.892       79.396       77.027       97.973       70.511     5933.230     9598.744     4971.846        1.793        1.025       95.136       59.250        0.388      347.201       25.999      868.018
05/14/2014  14:03:00       98.101       73.901      114.812       76.439       83.241       61.104     5842.945     6929.036     3733.752        2.238        0.825      122.822       56.707        0.213      347.175       25.952      868.007
05/14/2014  14:04:00      102.484       64.923       49.102       83.723       74.593       51.981     7009.544     5564.061     2702.045        1.620        0.764      121.317       40.900        0.114      347.083       25.794      868.009
05/14/2014  14:05:00      182.715      139.577       80.501      129.404       75.345       91.579    16745.276     5676.941     8386.633        4.507        1.540      229.927       83.113        0.131      346.891       25.461      867.998
05/14/2014  14:06:00      164.309      107.917       34.957       98.654       76.447       60.913     9732.556     5844.172     3710.427        2.957        0.964      196.580       50.417        0.066      346.846       25.386      867.991
05/14/2014  14:07:00       67.218       38.401       45.579       86.819       92.715       67.807     7537.493     8595.979     4597.851        1.440        1.037       77.414       22.821        0.087      347.056       25.748      867.967
05/14/2014  14:08:00       61.011       76.846       67.951       50.206       61.458       58.826     2520.597     3777.112     3460.465        1.200        0.488       98.121       53.565        0.298      346.785       25.280      867.976
05/14/2014  14:09:00        7.529       47.548        0.538       24.731       54.241       28.497      611.604     2942.067      812.075        0.334        0.218       48.140       24.394        0.257      346.847       25.389      867.948
05/14/2014  14:10:00      -59.735       30.122      -17.883       21.618       27.882       28.905      467.347      777.393      835.476        0.344        0.104       66.900        8.851        0.018      346.745       25.213      867.895
05/14/2014  14:11:00     -160.159      -51.235      -13.017       62.598       49.375       38.383     3918.572     2437.875     1473.261        1.814        0.391      168.154       36.278        0.047      346.783       25.278      867.871
05/14/2014  14:12:00      -59.726      -54.735       11.730       69.626       49.307       38.876     4847.726     2431.136     1511.329        0.774        0.440       81.013       41.038        0.257      347.162       25.933      867.871
05/14/2014  14:13:00       -7.010      -47.423       13.657       40.044       34.550       33.464     1603.525     1193.690     1119.828        0.320        0.196       47.938       20.137        0.176      347.323       26.210      867.866
05/14/2014  14:14:00       20.284      -28.541       26.642       76.432       58.794       41.552     5841.839     3456.712     1726.565        0.648        0.551       35.015       41.464        1.402      347.502       26.517      867.851
05/14/2014  14:15:00       92.732     -177.840        1.145       68.163       69.796       54.267     4646.126     4871.505     2944.895        2.634        0.623      200.565       47.303        0.056      347.256       26.091      867.825
05/14/2014  14:16:00       68.609      -24.074       75.577       93.430      152.463       84.368     8729.104    23245.108     7117.911        2.504        1.955       72.711      106.036        2.127      347.704       26.864      867.804
05/14/2014  14:17:00      144.593       68.669       77.377       85.978       71.610       63.931     7392.174     5128.003     4087.226        2.411        0.830      160.070       52.003        0.106      346.959       25.580      867.824
05/14/2014  14:18:00      188.704      128.857       50.946       69.758       55.990       42.678     4866.173     3134.842     1821.437        3.231        0.491      228.502       24.876        0.012      346.778       25.267      867.778
05/14/2014  14:19:00       55.474      -53.305      -29.822       85.067      160.048       55.628     7236.375    25615.229     3094.431        2.137        1.797       76.933       70.888        0.849      347.076       25.782      867.771
05/14/2014  14:20:00      154.901      -43.188       31.700      122.695      182.275      124.780    15054.107    33224.151    15569.939        4.534        3.192      160.809      141.043        0.769      347.046       25.728      867.732
05/14/2014  14:21:00       62.989       47.255       88.428       62.808      112.315       79.247     3944.845    12614.578     6280.093        1.843        1.142       78.744       70.047        0.791      347.305       26.178      867.741
05/14/2014  14:22:00       23.115       27.182       51.502       54.240       57.671       37.779     2942.030     3325.893     1427.222        0.581        0.385       35.681       38.116        1.141      347.540       26.583      867.743
05/14/2014  14:23:00       23.597      -68.580       19.098       70.304       77.921       51.795     4942.656     6071.624     2682.701        0.966        0.685       72.526       53.113        0.536      347.768       26.976      867.742
05/14/2014  14:24:00      195.215     -193.950      -50.964       93.303      139.193       64.876     8705.528    19374.813     4208.897        5.530        1.614      275.183       82.257        0.089      346.859       25.405      867.720
05/14/2014  14:25:00       14.509       72.484      128.111       51.583       93.107       57.879     2660.832     8668.856     3350.004        1.828        0.734       73.922       64.022        0.750      347.183       25.967      867.720
05/14/2014  14:26:00       52.405       30.751       75.771       59.747       81.166       52.823     3569.751     6587.976     2790.223        1.119        0.647       60.761       45.880        0.570      347.275       26.126      867.715
05/14/2014  14:27:00       37.305       47.181       59.739       63.107       70.660       45.059     3982.491     4992.790     2030.294        0.909        0.550       60.147       44.729        0.553      347.334       26.229      867.702
05/14/2014  14:28:00       69.418     -128.700       -4.715       87.544      116.462       63.726     7663.950    13563.485     4061.001        2.334        1.264      146.227       62.373        0.182      347.151       25.910      867.694
05/14/2014  14:29:00      -44.063     -119.888       -2.465       36.516       71.732       36.912     1333.389     5145.418     1362.473        1.208        0.392      127.729       37.898        0.088      347.159       25.926      867.703
05/14/2014  14:30:00      -85.118      -63.886      -10.646       39.766       46.271       25.711     1581.300     2140.966      661.048        0.791        0.219      106.426       23.370        0.048      347.318       26.199      867.688
05/14/2014  14:31:00       -8.844      -48.369       11.585       61.812       46.339       44.836     3820.767     2147.325     2010.281        0.526        0.399       49.170       39.309        0.639      347.784       27.005      867.674
05/14/2014  14:32:00     -132.886      -76.663      -13.684       76.782       47.216       36.698     5895.455     2229.329     1346.751        1.660        0.474      153.414       39.545        0.066      347.183       25.967      867.666
05/14/2014  14:33:00     -123.834      -67.584        8.686       61.003       62.472       33.883     3721.371     3902.731     1148.055        1.437        0.439      141.076       27.523        0.038      347.065       25.764      867.659
05/14/2014  14:34:00      -48.917      -72.905        7.682       48.546       52.092       23.265     2356.735     2713.570      541.266        0.669        0.281       87.795       16.649        0.036      347.295       26.160      867.662
05/14/2014  14:35:00      -52.459      -30.550       11.184       33.628       48.440       24.948     1130.848     2346.403      622.408        0.395        0.205       60.707       21.935        0.131      347.357       26.267      867.662
05/14/2014  14:36:00      -37.648      -17.735        3.803       40.855       31.386       21.769     1669.172      985.051      473.910        0.244        0.156       41.616       23.517        0.319      347.653       26.780      867.655
05/14/2014  14:37:00      -56.997      -30.011       -2.626       59.819       30.570       27.902     3578.325      934.496      778.530        0.472        0.265       64.415       22.225        0.119      347.372       26.296      867.645
05/14/2014  14:38:00        9.374      -23.097       24.675       35.179       59.103       54.226     1237.529     3493.193     2940.513        0.445        0.384       24.926       32.190        1.668      347.684       26.831      867.630
05/14/2014  14:39:00      101.989      -45.147       67.772       76.503       90.042       60.130     5852.777     8107.613     3615.662        1.730        0.879      111.535       47.100        0.178      347.529       26.563      867.622
05/14/2014  14:40:00       58.014       41.709       54.061       75.706       76.268       76.825     5731.345     5816.858     5902.016        1.274        0.873       71.451       40.110        0.315      347.579       26.650      867.613
05/14/2014  14:41:00      124.788       72.542       39.520       89.689       81.474       52.733     8044.038     6638.087     2780.736        1.993        0.873      144.341       45.200        0.098      347.096       25.817      867.593
05/14/2014  14:42:00      123.118      -65.289       49.941      118.774      138.616       89.767    14107.252    19214.301     8058.147        3.164        2.069      139.358      109.013        0.612      347.359       26.269      867.549
05/14/2014  14:43:00       16.031       42.669      -19.504       59.741      163.564       42.596     3569.043    26753.150     1814.432        1.729        1.607       45.581       30.333        0.443      347.576       26.644      867.541
05/14/2014  14:44:00      -13.431      221.970      -14.491       64.735      118.293       49.091     4190.580    13993.177     2409.925        3.512        1.030      222.376       52.494        0.056      347.454       26.432      867.576
05/14/2014  14:45:00       74.244       49.858       28.799       78.010       50.779       57.651     6085.602     2578.541     3323.674        1.041        0.599       89.432       28.796        0.104      347.484       26.487      867.575
05/14/2014  14:46:00       34.042       60.609       65.126       73.921       72.422       59.111     5464.312     5244.874     3494.146        1.164        0.710       69.515       45.109        0.421      347.640       26.754      867.562
05/14/2014  14:47:00      163.890      101.856        4.306       99.108       80.444       62.399     9822.347     6471.180     3893.697        2.872        1.009      192.962       34.041        0.031      347.631       26.736      867.574
05/14/2014  14:48:00      111.104      113.785        3.396      111.503       66.297       60.999    12432.845     4395.287     3720.842        2.292        1.027      159.032       39.523        0.062      347.529       26.564      867.571
05/14/2014  14:49:00      181.660      131.781       41.090       88.985       64.921       67.657     7918.393     4214.750     4577.513        3.438        0.836      224.425       25.072        0.012      347.162       25.929      867.567
05/14/2014  14:50:00      125.947      112.803        4.536       78.521       67.274       56.311     6165.519     4525.849     3170.968        2.123        0.693      169.078       35.712        0.045      347.377       26.302      867.575
05/14/2014  14:51:00        6.927      202.571      -23.432       64.572      133.091       51.766     4169.595    17713.102     2679.745        3.309        1.228      202.689       69.629        0.118      347.353       26.258      867.567
05/14/2014  14:52:00       38.021      222.651      -24.277       62.130      107.366       53.316     3860.122    11527.447     2842.632        3.492        0.912      225.874       60.517        0.072      347.142       25.894      867.547
05/14/2014  14:53:00       71.528      203.648      -24.973       71.075      115.977       50.279     5051.611    13450.647     2528.012        3.412        1.052      215.844       59.652        0.076      347.094       25.811      867.527
05/14/2014  14:54:00       21.548      161.342      -27.414       44.029       78.916       44.042     1938.543     6227.721     1939.731        1.867        0.505      162.775       45.991        0.080      347.418       26.371      867.510
05/14/2014  14:55:00       83.213      101.739       31.777      112.014       89.471       68.017    12547.231     8005.002     4626.301        2.173        1.259      131.436       55.907        0.181      347.603       26.691      867.511
05/14/2014  14:56:00      183.428      138.324       26.048      158.245      101.668       75.489    25041.387    10336.335     5698.535        4.726        2.054      229.737       51.624        0.050      347.341       26.237      867.520
05/14/2014  14:57:00      105.893      212.263      -22.387       93.311       93.373       53.754     8706.922     8718.474     2889.494        3.854        1.016      237.211       51.640        0.047      347.092       25.807      867.522
05/14/2014  14:58:00       14.822      169.155      -18.686       47.200       73.299       35.086     2227.858     5372.743     1231.009        1.901        0.442      169.803       37.787        0.050      347.087       25.802      867.505
05/14/2014  14:59:00       -1.582      208.388      -34.227       55.007       80.625       35.965     3025.771     6500.413     1293.455        2.771        0.541      208.394       41.527        0.040      347.041       25.720      867.488
05/14/2014  15:00:00      -37.249      129.678      -39.321       64.416       70.441       26.759     4149.465     4961.983      716.059        1.479        0.491      134.922       22.571        0.028      346.993       25.639      867.481
05/14/2014  15:01:00       12.992       40.609       24.618       38.271       32.332       28.357     1464.670     1045.352      804.127        0.287        0.166       42.637       21.160        0.246      347.535       26.573      867.461
05/14/2014  15:02:00      105.721       64.160       46.148       91.349       60.670       45.876     8344.686     3680.878     2104.569        1.577        0.707      123.666       21.375        0.030      347.477       26.474      867.445
05/14/2014  15:03:00       42.784       65.084       64.423       91.884       72.392       44.894     8442.670     5240.539     2015.453        1.295        0.785       77.887       34.776        0.199      347.729       26.908      867.424
05/14/2014  15:04:00       17.891       44.873        1.719       46.842       51.239       46.040     2194.203     2625.416     2119.722        0.464        0.347       48.308       21.168        0.192      347.831       27.086      867.436
05/14/2014  15:05:00       12.240      211.353      -19.615       69.029      145.527       60.253     4765.028    21178.104     3630.417        3.738        1.479      211.707       77.361        0.134      347.486       26.489      867.447
05/14/2014  15:06:00     -123.511      215.151      -38.169       89.871      115.415       29.775     8076.788    13320.516      886.541        4.264        1.114      248.082       26.458        0.011      347.201       25.996      867.446
05/14/2014  15:07:00     -115.648      167.484      -20.201       48.467       47.581       39.121     2349.026     2263.985     1530.453        2.399        0.307      203.533       37.794        0.034      347.366       26.282      867.439
05/14/2014  15:08:00      -45.159      217.308      -36.430       77.474       88.142       45.647     6002.224     7769.064     2083.604        3.322        0.793      221.951       45.265        0.042      347.227       26.041      867.434
05/14/2014  15:09:00       -7.920      288.598      -49.294       52.467       69.195       31.899     2752.775     4787.924     1017.537        4.717        0.428      288.707       34.023        0.014      347.094       25.811      867.434
05/14/2014  15:10:00        4.266      174.932      -33.482       33.449       39.576       20.594     1118.847     1566.297      424.095        1.742        0.155      174.984       18.260        0.011      346.963       25.588      867.438
05/14/2014  15:11:00      -39.293      125.135      -18.345       33.366       65.553       26.768     1113.263     4297.134      716.531        1.183        0.306      131.159       29.039        0.049      347.237       26.061      867.422
05/14/2014  15:12:00       31.294       60.495       12.803       55.544       44.961       32.846     3085.089     2021.448     1078.887        0.549        0.309       68.110       27.925        0.168      347.481       26.482      867.407
05/14/2014  15:13:00       72.010       52.259       22.398       35.302       32.663       32.783     1246.254     1066.883     1074.695        0.590        0.169       88.974       16.920        0.036      347.383       26.314      867.375
05/14/2014  15:14:00       46.024       55.820        0.885       47.883       37.243       28.682     2292.758     1387.050      822.636        0.487        0.225       72.347       24.002        0.110      347.338       26.235      867.357
05/14/2014  15:15:00       13.469       55.892       -4.119       47.173       33.526       35.779     2225.311     1123.970     1280.117        0.397        0.231       57.492       19.037        0.110      347.209       26.013      867.353
05/14/2014  15:16:00      106.435       38.025        2.730       65.501       56.755       39.784     4290.362     3221.178     1582.730        1.094        0.455      113.024       14.283        0.016      347.123       25.864      867.338
05/14/2014  15:17:00       19.754       38.069      -12.040       29.250       37.326       26.984      855.579     1393.235      728.151        0.248        0.149       42.889       26.975        0.396      347.220       26.032      867.332
05/14/2014  15:18:00       61.319       58.915       -5.931       26.260       15.626       16.978      689.594      244.162      288.236        0.424        0.061       85.035       15.874        0.035      346.908       25.494      867.320
05/14/2014  15:19:00       56.035       25.980        2.004       23.562       18.737       13.570      555.153      351.074      184.158        0.245        0.055       61.764        3.880        0.004      346.952       25.572      867.304
05/14/2014  15:20:00       55.173       31.237       15.525       27.532       17.438       31.174      758.010      304.076      971.832        0.315        0.102       63.402       18.058        0.081      347.131       25.879      867.275
05/14/2014  15:21:00        8.719        8.666        1.070       11.762       19.360       15.310      138.341      374.795      234.411        0.045        0.037       12.293       13.537        1.213      347.474       26.471      867.260
05/14/2014  15:22:00       28.373      101.096      -10.543       37.644       26.782       25.898     1417.092      717.299      670.715        0.697        0.140      105.002       22.091        0.044      347.107       25.838      867.249
05/14/2014  15:23:00      -18.756      111.986       -9.594       29.470       49.794       23.687      868.510     2479.477      561.093        0.845        0.195      113.546       22.149        0.038      347.116       25.853      867.244
05/14/2014  15:24:00      -24.704      122.211      -19.148       13.201       23.776       12.985      174.276      565.317      168.614        0.841        0.045      124.683        6.090        0.002      346.909       25.494      867.223
05/14/2014  15:25:00      -14.363       86.977      -12.055       12.397       24.053       15.089      153.693      578.562      227.686        0.444        0.048       88.155        7.359        0.007      347.062       25.758      867.200
05/14/2014  15:26:00        5.092       49.335       -2.298       15.618       41.278       20.739      243.907     1703.893      430.096        0.242        0.119       49.597       20.620        0.173      347.292       26.156      867.198
05/14/2014  15:27:00      -12.484       50.469       -9.834       14.294       29.014       20.505      204.307      841.827      420.436        0.213        0.073       51.990       13.642        0.069      347.275       26.125      867.190
05/14/2014  15:28:00       13.037      -51.881       -8.951       19.274       39.072       17.779      371.506     1526.642      316.087        0.258        0.111       53.494       11.863        0.049      347.141       25.896      867.164
05/14/2014  15:29:00       55.129      -90.182      -17.466       32.823       32.815       19.625     1077.347     1076.830      385.126        0.701        0.127      105.698       10.659        0.010      347.245       26.075      867.139
05/14/2014  15:30:00      -18.698      -48.681        4.617       67.351       37.873       29.918     4536.192     1434.327      895.101        0.480        0.343       52.149       23.712        0.207      347.663       26.796      867.128
05/14/2014  15:31:00        6.615      -47.277        8.164       38.572       31.263       29.653     1487.793      977.371      879.306        0.284        0.167       47.737       21.966        0.212      347.701       26.862      867.121
05/14/2014  15:32:00       -1.808      -27.215      -19.812       33.123       31.386       24.249     1097.116      985.067      588.012        0.190        0.134       27.275        7.350        0.073      347.480       26.481      867.100
05/14/2014  15:33:00        1.698        0.458       30.366       17.525       32.947       29.790      307.112     1085.530      887.452        0.160        0.114        1.759       27.028      236.117      348.024       27.418      867.093
05/14/2014  15:34:00        2.143        5.490        4.233       22.470       24.893       27.145      504.899      619.640      736.853        0.096        0.093        5.893       18.829       10.208      347.534       26.574      867.083
05/14/2014  15:35:00       31.278      132.357      -17.569       42.583       73.164       28.771     1813.283     5353.031      827.778        1.340        0.400      136.003       28.359        0.043      347.227       26.043      867.072
05/14/2014  15:36:00       31.401       88.302      -14.155       45.987       63.740       23.983     2114.820     4062.804      575.196        0.787        0.338       93.719       25.194        0.072      347.189       25.979      867.059
05/14/2014  15:37:00        4.933      161.901      -30.006       41.608       51.442       23.445     1731.250     2646.327      549.684        1.603        0.246      161.976       20.735        0.016      347.269       26.115      867.043
05/14/2014  15:38:00      126.968       90.144        4.742       89.051       48.794       38.036     7930.134     2380.870     1446.704        1.801        0.588      155.714       28.938        0.035      347.440       26.410      867.026
05/14/2014  15:39:00       94.489       58.202       16.325       63.072       36.060       28.766     3978.028     1300.332      827.499        0.934        0.305      110.976       36.722        0.109      347.212       26.018      867.012
05/14/2014  15:40:00       -9.085       23.772       33.582       21.543       31.223       22.346      464.100      974.847      499.334        0.186        0.097       25.449       17.587        0.478      348.029       27.426      866.979
05/14/2014  15:41:00      -21.427       13.099       -0.242       35.479       70.143       34.151     1258.737     4920.040     1166.294        0.399        0.367       25.113       40.718        2.629      347.764       26.972      866.962
05/14/2014  15:42:00      -32.387       20.045        8.449       41.629       40.166       24.221     1732.998     1613.321      586.668        0.273        0.197       38.089       12.056        0.100      348.080       27.516      866.954
05/14/2014  15:43:00      -39.183       20.449       -5.189       45.065       50.891       29.980     2030.863     2589.877      898.783        0.375        0.276       44.199        7.844        0.031      348.192       27.710      866.937
05/14/2014  15:44:00     -177.299       13.021      -23.395       42.292       58.312       33.462     1788.618     3400.340     1119.688        1.923        0.315      177.777       24.275        0.019      347.576       26.644      866.931
05/14/2014  15:45:00     -113.572      -28.492       -4.671       47.647       48.321       32.121     2270.201     2334.928     1031.770        0.968        0.282      117.092       34.598        0.087      347.868       27.149      866.920
05/14/2014  15:46:00      -94.385       -6.064       -1.431       53.003       57.824       28.811     2809.309     3343.636      830.083        0.796        0.349       94.580        6.954        0.005      347.962       27.312      866.911
05/14/2014  15:47:00     -174.115      -24.932      -14.498       81.885       70.280       35.408     6705.181     4939.246     1253.719        2.202        0.645      175.891       36.889        0.044      347.997       27.371      866.889
05/14/2014  15:48:00      -42.392      -51.950        7.695       86.970       39.063       47.377     7563.773     1525.915     2244.584        0.794        0.567       67.051       55.223        0.678      347.722       26.898      866.887
05/14/2014  15:49:00     -113.300      -28.746        0.731       45.871       65.283       28.252     2104.159     4261.875      798.154        1.041        0.358      116.890       19.977        0.029      347.325       26.210      866.886
05/14/2014  15:50:00      -78.344        9.175       -3.680       51.885       38.896       25.576     2692.046     1512.912      654.137        0.555        0.243       78.879       18.364        0.054      347.581       26.655      866.867
05/14/2014  15:51:00     -115.743      -10.190       -9.844       30.968       39.374       21.297      959.005     1550.321      453.557        0.828        0.148      116.191       18.114        0.024      347.120       25.859      866.857
05/14/2014  15:52:00      -13.202        0.348       20.615       22.355       28.994       17.379      499.736      840.634      302.026        0.112        0.082       13.207       19.672        2.219      347.915       27.231      866.848
05/14/2014  15:53:00      -57.702       14.844        6.004       45.410       21.956       26.192     2062.070      482.082      686.045        0.341        0.162       59.581       24.709        0.172      347.791       27.016      866.830
05/14/2014  15:54:00     -103.015      -42.602        0.021       49.263       46.008       32.616     2426.803     2116.774     1063.811        0.902        0.280      111.477       29.665        0.071      347.606       26.697      866.826
05/14/2014  15:55:00      -26.906      -23.090        1.298       47.718       58.207       22.666     2276.996     3388.111      513.748        0.372        0.309       35.455       27.679        0.609      347.637       26.750      866.826
05/14/2014  15:56:00      -20.861       34.671       16.082       39.157       73.091       35.211     1533.275     5342.237     1239.833        0.500        0.406       40.463       15.454        0.146      347.980       27.343      866.815
05/14/2014  15:57:00      -11.126       87.753       -3.962       26.475       50.931       26.706      700.952     2593.979      713.218        0.592        0.200       88.455       27.274        0.095      347.478       26.476      866.795
05/14/2014  15:58:00      -35.093       64.024      -11.421       24.931       34.594       21.256      621.551     1196.769      451.827        0.387        0.114       73.010       20.508        0.079      347.711       26.878      866.790
05/14/2014  15:59:00      -32.687      110.224      -16.041       34.790       54.826       22.768     1210.318     3005.838      518.395        0.910        0.237      114.969       21.153        0.034      347.748       26.943      866.770
05/14/2014  16:00:00      -62.444       38.498        1.854       49.572       38.406       25.472     2457.344     1474.987      648.840        0.498        0.229       73.357       22.300        0.092      348.075       27.506      866.754
05/14/2014  16:01:00      -59.697       26.754       14.351       68.161       35.520       29.339     4645.863     1261.706      860.798        0.563        0.338       65.418       32.528        0.247      348.274       27.850      866.749
05/14/2014  16:02:00     -151.089      109.326      -29.713       47.491       43.674       32.794     2255.352     1907.451     1075.449        2.045        0.262      186.494       25.951        0.019      347.692       26.843      866.759
05/14/2014  16:03:00      -79.256      117.555      -12.394       39.158       70.177       31.510     1533.311     4924.766      992.887        1.385        0.373      141.777       33.103        0.055      347.562       26.618      866.745
05/14/2014  16:04:00      -32.152      163.981      -14.735       44.351       61.369       32.718     1967.041     3766.134     1070.478        1.747        0.340      167.103       34.748        0.043      347.539       26.581      866.740
05/14/2014  16:05:00     -102.986      148.289      -27.528       61.598       69.210       37.226     3794.317     4789.980     1385.775        2.166        0.499      180.544       42.242        0.055      347.501       26.514      866.737
05/14/2014  16:06:00      -52.707      192.658      -28.195       37.873       43.293       27.947     1434.343     1874.260      781.057        2.239        0.204      199.738       24.841        0.015      347.292       26.153      866.729
05/14/2014  16:07:00       -2.895      211.369      -38.880       30.054       43.986       19.099      903.226     1934.809      364.772        2.470        0.160      211.389       16.682        0.006      347.383       26.309      866.714
05/14/2014  16:08:00       24.187      103.043      -11.840       53.851       40.419       32.230     2899.933     1633.670     1038.803        0.846        0.279      105.844       25.563        0.058      347.491       26.497      866.708
05/14/2014  16:09:00      -22.511       81.843      -20.640       65.766       59.621       37.435     4325.111     3554.627     1401.389        0.845        0.464       84.882       18.421        0.047      347.568       26.631      866.696
05/14/2014  16:10:00       59.699      181.435      -24.694       43.019       59.975       36.284     1850.648     3596.941     1316.549        2.193        0.338      191.005       33.869        0.031      347.396       26.333      866.683
05/14/2014  16:11:00       28.594      127.529      -16.074       54.713       50.959       32.051     2993.471     2596.791     1027.237        1.198        0.331      130.695       30.158        0.053      347.440       26.409      866.673
05/14/2014  16:12:00       33.016       72.255        1.842       49.957       30.269       32.755     2495.696      916.225     1072.904        0.540        0.224       79.441       26.593        0.112      347.440       26.411      866.667
05/14/2014  16:13:00       18.158       43.853       -4.295       40.809       66.726       28.312     1665.363     4452.407      801.597        0.459        0.346       47.464       23.157        0.238      347.704       26.866      866.665
05/14/2014  16:14:00       10.792      101.396      -13.137       17.363       62.228       19.636      301.475     3872.297      385.584        0.756        0.228      101.969       23.988        0.055      347.473       26.469      866.660
05/14/2014  16:15:00      -97.555       22.689      -12.745       45.800       59.161       31.886     2097.624     3500.060     1016.705        0.840        0.331      100.159       26.748        0.071      347.774       26.987      866.660
05/14/2014  16:16:00      -63.502     -157.402       -6.792       54.519       78.278       43.562     2972.277     6127.410     1897.607        1.992        0.550      169.729       49.760        0.086      347.402       26.345      866.671
05/14/2014  16:17:00     -114.866      -60.071      -13.076       56.512       37.103       26.205     3193.658     1376.654      686.700        1.111        0.263      129.625       24.367        0.035      347.360       26.273      866.662
05/14/2014  16:18:00     -126.147      -17.205        1.460       73.351       71.929       37.882     5380.338     5173.771     1435.029        1.410        0.599      127.314       40.006        0.099      347.870       27.153      866.638
05/14/2014  16:19:00     -112.698      -48.524      -20.160       41.823       46.692       26.370     1749.203     2180.101      695.353        1.004        0.231      122.701       19.246        0.025      347.475       26.469      866.645
05/14/2014  16:20:00      -97.797        8.283       -3.293       55.658       67.937       28.399     3097.866     4615.396      806.514        0.908        0.426       98.148       35.059        0.128      347.573       26.639      866.635
05/14/2014  16:21:00      -68.995      -18.045       -0.764       49.375       53.380       35.336     2437.857     2849.395     1248.633        0.581        0.327       71.316       35.108        0.242      348.017       27.406      866.611
05/14/2014  16:22:00       -4.672       53.328       13.995       20.629       35.803       30.427      425.548     1281.847      925.795        0.285        0.132       53.533       23.851        0.199      347.824       27.072      866.601
05/14/2014  16:23:00      -64.713       52.960        0.241       51.730       57.093       34.324     2675.998     3259.642     1178.117        0.705        0.356       83.622       36.040        0.186      347.895       27.196      866.593
05/14/2014  16:24:00      -62.678       17.998       -6.326       25.562       38.332       25.475      653.427     1469.329      648.982        0.353        0.139       65.211       16.010        0.060      347.908       27.218      866.584
05/14/2014  16:25:00      -54.012      111.531      -15.446       33.777       50.357       23.722     1140.892     2535.844      562.716        0.992        0.212      123.921       18.880        0.023      347.670       26.807      866.570
05/14/2014  16:26:00      -19.677      125.564      -23.347       38.398       54.695       32.312     1474.440     2991.583     1044.045        1.110        0.276      127.096       27.105        0.045      347.603       26.690      866.562
05/14/2014  16:27:00      -36.302      199.338      -35.988       42.051       41.292       24.368     1768.263     1705.005      593.808        2.321        0.203      202.617       17.042        0.007      347.454       26.433      866.552
05/14/2014  16:28:00      -23.600      181.313      -30.657       43.423       42.210       21.672     1885.568     1781.711      469.691        1.925        0.207      182.842       21.747        0.014      347.454       26.433      866.557
05/14/2014  16:29:00      -36.472      160.922      -34.434       52.456       55.070       29.977     2751.647     3032.671      898.594        1.755        0.334      165.003       19.795        0.014      347.683       26.828      866.555
05/14/2014  16:30:00      -80.776       86.996      -13.255       57.927       61.783       29.548     3355.594     3817.195      873.089        1.116        0.402      118.715       25.197        0.045      347.684       26.830      866.547
05/14/2014  16:31:00        8.060       61.977        0.928       24.760       34.288       23.275      613.046     1175.693      541.720        0.312        0.117       62.499       17.295        0.077      347.618       26.717      866.550
05/14/2014  16:32:00       39.686       38.703       -2.366       30.655       40.619       24.731      939.718     1649.898      611.606        0.314        0.160       55.434       13.092        0.056      347.524       26.554      866.533
05/14/2014  16:33:00       98.301       81.630       56.354       62.429       55.149       60.957     3897.408     3041.368     3715.736        1.508        0.533      127.776       37.753        0.087      347.660       26.788      866.518
05/14/2014  16:34:00       25.400      -17.132        3.806       63.340       53.848       35.721     4011.911     2899.623     1275.969        0.457        0.409       30.637       34.716        1.284      347.799       27.029      866.497
05/14/2014  16:35:00       21.961      -19.201       -6.779       43.117       47.425       23.702     1859.106     2249.085      561.769        0.278        0.233       29.171       13.146        0.203      347.997       27.372      866.494
05/14/2014  16:36:00       59.801       32.852        4.737      112.866       55.522       44.568    12738.759     3082.677     1986.347        1.124        0.890       68.230       21.490        0.099      348.057       27.474      866.493
05/14/2014  16:37:00       99.848       80.841       25.259       95.852       61.738       36.660     9187.623     3811.544     1343.986        1.574        0.717      128.471       28.927        0.051      347.893       27.191      866.483
05/14/2014  16:38:00        5.085      267.290      -41.001       43.094       59.783       24.204     1857.131     3574.008      585.818        3.958        0.301      267.339       20.070        0.006      347.668       26.800      866.457
05/14/2014  16:39:00       48.084      188.494      -33.262       45.665       78.303       33.010     2085.287     6131.288     1089.638        2.413        0.465      194.530       40.582        0.044      347.780       26.993      866.453
05/14/2014  16:40:00       17.489       82.848       -6.773       60.994       43.993       36.689     3720.215     1935.425     1346.086        0.711        0.350       84.674       35.633        0.177      347.914       27.229      866.436
05/14/2014  16:41:00      121.704      104.791       14.406       97.800       72.386       55.517     9564.850     5239.696     3082.090        2.194        0.894      160.602       34.041        0.045      348.058       27.476      866.421
05/14/2014  16:42:00      115.073      120.555       -0.019       86.051       68.129       50.713     7404.838     4641.580     2571.784        2.119        0.731      166.659       36.852        0.049      347.847       27.112      866.427
05/14/2014  16:43:00      100.856       77.651       48.918       93.583       45.733       49.923     8757.745     2091.489     2492.272        1.597        0.667      127.286       56.734        0.199      347.781       26.997      866.425
05/14/2014  16:44:00      105.345       46.737        9.985       82.902       61.669       54.700     6872.712     3803.102     2992.061        1.352        0.683      115.248       44.103        0.146      347.710       26.876      866.416
05/14/2014  16:45:00       30.283       92.139       11.690       52.568       70.713       44.294     2763.393     5000.279     1961.978        0.963        0.486       96.988       45.109        0.216      347.796       27.024      866.397
05/14/2014  16:46:00       30.514      106.373      -14.057       27.494       34.513       26.758      755.902     1191.164      716.003        0.755        0.133      110.663       20.955        0.036      347.554       26.604      866.399
05/14/2014  16:47:00       28.728       26.716       -6.168       14.182       20.753       16.793      201.133      430.688      281.988        0.125        0.046       39.231       11.224        0.082      347.529       26.564      866.380
05/14/2014  16:48:00       10.063        4.412        7.205       10.553        8.071       10.341      111.360       65.139      106.938        0.023        0.014       10.988        3.823        0.121      347.828       27.080      866.370
05/14/2014  16:49:00       -0.003        2.066       12.165        8.974       13.128        8.194       80.537      172.354       67.134        0.024        0.016        2.066        4.236        4.205      348.087       27.528      866.351
05/14/2014  16:50:00        4.185       -3.335       12.186       15.743       18.921       12.722      247.838      358.020      161.860        0.047        0.038        5.351        9.069        2.873      348.016       27.405      866.342
05/14/2014  16:51:00       21.546      -28.812       -1.190       22.325       42.235       22.371      498.402     1783.796      500.463        0.204        0.139       35.977       19.454        0.292      347.873       27.159      866.330
05/14/2014  16:52:00      -24.321      -19.154        2.338       35.576       33.492       25.881     1265.638     1121.688      669.833        0.201        0.153       30.958       25.081        0.656      347.953       27.296      866.317
05/14/2014  16:53:00       15.406      -77.947       -9.925       77.649       61.166       28.237     6029.339     3741.228      797.332        0.849        0.528       79.455       30.505        0.147      347.858       27.131      866.300
05/14/2014  16:54:00      100.261       97.317       66.697       93.367      102.009       63.448     8717.316    10405.796     4025.595        2.356        1.157      139.724       38.295        0.075      347.809       27.047      866.291
05/14/2014  16:55:00       87.976       62.250        6.589       65.035       72.366       41.849     4229.603     5236.866     1751.349        1.144        0.561      107.772       39.316        0.133      347.780       26.997      866.286
05/14/2014  16:56:00       67.764      111.821       10.967       87.871       88.325       62.463     7721.385     7801.241     3901.642        1.832        0.971      130.751       52.072        0.159      347.896       27.196      866.261
05/14/2014  16:57:00       88.224      172.814       -6.431       84.774       94.090       63.687     7186.654     8852.965     4056.055        2.889        1.005      194.031       55.180        0.081      347.713       26.880      866.265
05/14/2014  16:58:00       31.276      106.601       -3.919       46.628       84.920       44.125     2174.135     7211.440     1947.027        1.184        0.567      111.095       51.918        0.218      347.903       27.208      866.247
05/14/2014  16:59:00      110.501       95.370       27.127      127.797       85.421       53.996    16332.056     7296.795     2915.546        2.429        1.327      145.966       46.513        0.102      348.146       27.627      866.239
05/14/2014  17:00:00      241.619      191.606        4.905      140.272       99.065       92.716    19676.332     9813.902     8596.281        6.659        1.904      308.370       59.125        0.037      347.773       26.982      866.258
05/14/2014  17:01:00      216.105      144.806       33.969       85.650       70.391       62.961     7335.892     4954.855     3964.138        4.254        0.813      260.134       29.072        0.012      347.528       26.558      866.273
05/14/2014  17:02:00      172.892      113.232       14.249       82.664       51.228       41.196     6833.367     2624.259     1697.127        2.703        0.558      206.671       24.661        0.014      347.439       26.405      866.262
05/14/2014  17:03:00       53.452      153.206      -20.721       75.826       72.907       47.298     5749.549     5315.473     2237.126        2.003        0.665      162.263       44.727        0.076      347.526       26.557      866.247
05/14/2014  17:04:00     -112.690      123.118      -32.005       35.520       53.520       28.642     1261.688     2864.379      820.348        1.691        0.247      166.904       25.601        0.024      347.724       26.899      866.206
05/14/2014  17:05:00      -60.327      110.011      -12.459       30.941       43.119       24.364      957.376     1859.234      593.583        0.965        0.171      125.466       18.550        0.022      347.663       26.795      866.184
05/14/2014  17:06:00       15.610       63.320        3.549       53.572       18.824       25.860     2869.986      354.337      668.732        0.408        0.195       65.216       32.376        0.246      347.597       26.681      866.158
05/14/2014  17:07:00       59.740       59.797       65.316       48.756       39.583       36.895     2377.150     1566.842     1361.215        0.836        0.265       84.525       27.699        0.107      347.722       26.896      866.161
05/14/2014  17:08:00      127.555      107.314      114.792       98.117      104.090       74.886     9626.957    10834.739     5607.980        3.351        1.303      166.693       70.846        0.181      347.893       27.189      866.145
05/14/2014  17:09:00      197.735      151.695      111.529      126.163       96.241       75.934    15917.183     9262.312     5766.011        5.274        1.547      249.220       59.630        0.057      347.860       27.132      866.120
05/14/2014  17:10:00      150.548       84.855       32.764       57.115       69.475       41.815     3262.075     4826.794     1748.458        2.039        0.492      172.815       16.941        0.010      347.727       26.905      866.119
05/14/2014  17:11:00       71.861       68.737       44.310       96.471       58.318       52.346     9306.651     3401.042     2740.093        1.365        0.772       99.443       53.507        0.290      348.108       27.562      866.104
05/14/2014  17:12:00      232.883      146.675       41.504      150.553      121.893       83.079    22666.227    14857.965     6902.072        6.094        2.221      275.224       30.806        0.013      347.994       27.364      866.107
05/14/2014  17:13:00      298.754      183.064       53.019      126.828       97.293       77.123    16085.403     9465.855     5947.931        7.853        1.575      350.380       70.444        0.040      347.624       26.725      866.095
05/14/2014  17:14:00      221.801      112.418       32.652       94.271       70.657       62.734     8887.003     4992.442     3935.604        4.035        0.891      248.663       47.029        0.036      347.698       26.853      866.099
05/14/2014  17:15:00      184.019       92.246       41.274       91.307       85.301       48.956     8336.980     7276.258     2396.671        3.104        0.900      205.845       31.795        0.024      347.649       26.769      866.093
05/14/2014  17:16:00      176.718       76.959       65.622      140.740       81.778       84.865    19807.638     6687.569     7202.124        3.757        1.685      192.748       83.502        0.188      347.808       27.043      866.066
05/14/2014  17:17:00       87.204      108.636      116.016       82.092       71.463       50.881     6739.122     5106.943     2588.909        2.365        0.722      139.306       45.100        0.105      347.857       27.126      866.052
05/14/2014  17:18:00       72.770       55.499        5.394       83.361       56.079       43.003     6949.128     3144.840     1849.254        1.017        0.597       91.518       30.329        0.110      347.842       27.103      866.050
05/14/2014  17:19:00       40.831      100.931      -10.332       52.745       50.291       34.626     2782.061     2529.222     1198.981        0.923        0.326      108.877       30.071        0.076      347.700       26.859      866.042
05/14/2014  17:20:00       35.389      111.724        3.759       94.098       55.493       36.585     8854.393     3079.419     1338.454        1.351        0.664      117.195       39.254        0.112      347.785       27.006      866.021
05/14/2014  17:21:00      149.836      119.891        2.974       85.975       88.067       62.360     7391.736     7755.789     3888.761        2.793        0.952      191.898       36.483        0.036      347.832       27.086      866.011
05/14/2014  17:22:00      140.839      121.831       77.298       80.562       62.172       49.156     6490.174     3865.353     2416.307        2.671        0.639      186.221       30.335        0.027      347.908       27.216      866.011
05/14/2014  17:23:00      167.026       38.421       64.341      101.908       90.558       73.092    10385.252     8200.750     5342.498        2.872        1.196      171.388       70.851        0.171      347.783       27.000      865.994
05/14/2014  17:24:00       75.330      105.937       85.036       88.193       66.970       62.679     7777.961     4484.919     3928.681        2.016        0.810      129.990       54.253        0.174      348.003       27.382      865.972
05/14/2014  17:25:00      140.080      101.013       64.976      143.942       96.479       85.468    20719.273     9308.119     7304.843        3.568        1.867      172.702       78.474        0.206      347.931       27.256      865.986
05/14/2014  17:26:00      120.696       67.225       46.123       78.215       70.349       68.782     6117.570     4948.981     4731.022        1.850        0.790      138.155       55.044        0.159      347.961       27.309      866.002
05/14/2014  17:27:00      -18.459       14.387       -3.049       34.660       28.171       25.578     1201.315      793.604      654.226        0.160        0.132       23.403       17.581        0.564      347.918       27.236      865.974
05/14/2014  17:28:00       75.189      -28.045       10.609       34.302       60.693       30.594     1176.609     3683.598      935.964        0.617        0.290       80.249       27.938        0.121      347.795       27.023      865.960
05/14/2014  17:29:00       60.691      -22.515       18.127       56.837       92.121       34.559     3230.422     8486.251     1194.296        0.871        0.646       64.732       32.273        0.249      347.896       27.197      865.946
05/14/2014  17:30:00       68.052      -84.154       27.381       73.472       72.697       51.654     5398.196     5284.850     2668.106        1.290        0.668      108.227       38.889        0.129      348.065       27.489      865.939
05/14/2014  17:31:00      194.121      -91.959       29.575      113.534       91.784       77.527    12889.925     8424.364     6010.444        3.716        1.366      214.801       60.909        0.080      347.988       27.352      865.921
05/14/2014  17:32:00      105.737      -38.837       34.143      113.954       76.087       45.193    12985.453     5789.237     2042.392        1.733        1.041      112.644       48.154        0.183      348.068       27.494      865.927
05/14/2014  17:33:00       46.478       30.292       49.478       48.883       49.029       31.852     2389.580     2403.885     1014.581        0.567        0.290       55.478       29.362        0.280      348.075       27.506      865.931
05/14/2014  17:34:00       55.887       87.551       85.868       73.579       77.872       57.070     5413.860     6064.017     3256.930        1.645        0.737      103.868       50.591        0.237      347.945       27.280      865.928
05/14/2014  17:35:00      135.227     -146.702       -9.247       87.692      139.544       59.549     7689.944    19472.512     3546.048        3.529        1.535      199.519       77.637        0.151      347.862       27.137      865.916
05/14/2014  17:36:00      134.130      -89.452       31.559       91.761      170.732      108.459     8420.035    29149.352    11763.300        3.815        2.467      161.222      120.451        0.558      347.867       27.143      865.903
05/14/2014  17:37:00      139.133        3.432       83.412      107.144       95.474       69.748    11479.766     9115.190     4864.762        2.589        1.273      139.175       61.552        0.196      347.819       27.062      865.904
05/14/2014  17:38:00       94.174        8.963       68.350       77.208       93.114       59.466     5961.120     8670.134     3536.218        1.589        0.908       94.600       61.939        0.429      347.884       27.176      865.907
05/14/2014  17:39:00      116.678      -82.517       44.162      101.200      124.234       67.028    10241.531    15434.121     4492.702        2.626        1.508      142.908       80.705        0.319      347.977       27.336      865.890
05/14/2014  17:40:00      196.692     -217.668      -26.760       73.200       73.872       49.367     5358.305     5457.101     2437.055        5.002        0.663      293.372       46.774        0.025      347.772       26.978      865.879
05/14/2014  17:41:00      167.942     -150.959      -24.407       60.401       59.740       44.829     3648.298     3568.869     2009.683        3.041        0.461      225.816       37.897        0.028      347.796       27.021      865.884
05/14/2014  17:42:00       86.664     -145.213       10.517       59.048       90.019       56.201     3486.710     8103.382     3158.560        2.173        0.737      169.108       50.706        0.090      347.804       27.036      865.874
05/14/2014  17:43:00       65.697       43.154       88.000       84.995       78.254       52.808     7224.162     6123.722     2788.673        1.503        0.807       78.602       65.792        0.701      347.871       27.152      865.872
05/14/2014  17:44:00       59.583       55.367       95.386       68.869       68.768       57.084     4742.882     4728.980     3258.537        1.422        0.637       81.336       54.323        0.446      347.852       27.122      865.870
05/14/2014  17:45:00      113.950       75.767       44.152       54.773       50.555       49.813     3000.076     2555.825     2481.297        1.435        0.402      136.840       33.265        0.059      347.633       26.743      865.862
05/14/2014  17:46:00       16.009       -4.727       -2.260       33.408       66.995       26.926     1116.111     4488.377      725.025        0.331        0.316       16.692       29.198        3.060      347.753       26.952      865.837
05/14/2014  17:47:00       61.317       -7.969       53.606       53.613       53.206       33.750     2874.387     2830.903     1139.041        0.677        0.342       61.833       29.489        0.227      347.873       27.157      865.826
05/14/2014  17:48:00       19.673       41.867       69.832       42.132       75.588       65.982     1775.111     5713.522     4353.601        0.943        0.592       46.259       60.776        1.726      347.839       27.100      865.809
05/14/2014  17:49:00       33.054        6.151       56.021       61.958       72.015       67.152     3838.766     5186.174     4509.365        0.890        0.677       33.621       61.292        3.323      347.871       27.154      865.793
05/14/2014  17:50:00      122.163     -103.832       -7.308       66.826       43.357       37.440     4465.659     1879.796     1401.732        1.675        0.387      160.327       31.001        0.037      347.834       27.090      865.783
05/14/2014  17:51:00       16.534      -34.100        8.990       34.233       45.756       21.906     1171.894     2093.625      479.860        0.263        0.187       37.896       18.498        0.238      347.884       27.175      865.766
05/14/2014  17:52:00       12.207      -42.376        6.807       41.943       35.194       21.548     1759.200     1238.605      464.337        0.273        0.173       44.099       13.162        0.089      348.161       27.656      865.764
05/14/2014  17:53:00      121.150     -164.697      -22.479       48.847       44.141       25.464     2385.986     1948.469      648.399        2.364        0.249      204.457       16.242        0.006      347.765       26.969      865.750
05/14/2014  17:54:00       38.096     -101.368        2.954       29.915       49.864       27.067      894.898     2486.446      732.630        0.792        0.206      108.290       11.836        0.012      347.744       26.935      865.754
05/14/2014  17:55:00       16.286       23.045       31.109       17.418       24.006       16.392      303.374      576.283      268.705        0.146        0.057       28.219       12.303        0.190      347.816       27.058      865.750
05/14/2014  17:56:00        1.575       49.826        7.775       19.945       11.322       19.947      397.820      128.185      397.892        0.173        0.046       49.850       15.280        0.094      347.668       26.805      865.742
05/14/2014  17:57:00      -24.834       20.227       -5.870       37.007       25.108       12.916     1369.486      630.432      166.824        0.161        0.108       32.029       13.417        0.175      347.918       27.235      865.742
05/14/2014  17:58:00     -106.089       24.172      -11.807       48.336       35.557       26.364     2336.396     1264.312      695.065        0.814        0.215      108.808       28.986        0.071      348.151       27.639      865.738
05/14/2014  17:59:00      -75.429      126.988      -26.710       58.978       50.685       34.484     3478.412     2568.972     1189.155        1.488        0.362      147.701       33.805        0.052      347.741       26.928      865.748
05/14/2014  18:00:00      -54.150       88.200       -5.857       43.985       61.839       31.509     1934.691     3824.054      992.818        0.875        0.338      103.497       30.317        0.086      347.713       26.881      865.745
05/14/2014  18:01:00      -24.890      211.351      -24.786       57.867       55.391       35.364     3348.566     3068.195     1250.621        2.678        0.383      212.812       21.766        0.010      347.601       26.686      865.739
05/14/2014  18:02:00      -77.064      209.942      -27.778       62.926       68.537       35.388     3959.631     4697.308     1252.333        3.035        0.495      223.639       31.374        0.020      347.694       26.845      865.740
05/14/2014  18:03:00      -88.045      156.397      -29.932       46.249       46.167       26.338     2138.997     2131.364      693.679        1.904        0.248      179.477       19.493        0.012      347.650       26.772      865.731
05/14/2014  18:04:00      -97.123      100.688      -25.026       39.874       43.099       25.201     1589.900     1857.549      635.115        1.214        0.204      139.896       16.263        0.014      347.744       26.934      865.714
05/14/2014  18:05:00        5.109       36.861       12.078       69.310       35.415       25.346     4803.944     1254.192      642.435        0.411        0.335       37.214       20.548        0.305      347.861       27.135      865.698
05/14/2014  18:06:00       54.994       49.751        4.916       38.617       31.718       25.331     1491.257     1006.061      641.684        0.433        0.157       74.159       21.406        0.083      347.825       27.075      865.681
05/14/2014  18:07:00       26.200       44.305       14.080       50.360       34.456       26.440     2536.096     1187.239      699.067        0.363        0.221       51.472       17.076        0.110      347.958       27.304      865.663
05/14/2014  18:08:00       36.160       32.624       -2.019       44.169       54.703       30.673     1950.925     2992.414      940.856        0.413        0.294       48.702       34.267        0.495      347.874       27.159      865.662
05/14/2014  18:09:00       23.422       91.547      -12.920       42.081       76.131       27.947     1770.784     5795.999      781.020        0.872        0.417       94.496       34.182        0.131      347.786       27.007      865.664
05/14/2014  18:10:00      -29.328       91.269      -25.316       45.309       46.692       20.417     2052.920     2180.142      416.850        0.724        0.232       95.866       11.908        0.015      347.706       26.869      865.661
05/14/2014  18:11:00      -65.596       10.273      -10.603       24.724       27.649       20.400      611.281      764.454      416.144        0.316        0.090       66.395       15.921        0.057      347.800       27.033      865.658
05/14/2014  18:12:00      -11.436       45.382       -8.491       34.943       67.951       20.035     1221.039     4617.386      401.400        0.425        0.312       46.801       18.430        0.155      347.980       27.343      865.661
05/14/2014  18:13:00       -3.492      197.338      -31.405       50.458       49.531       20.160     2546.017     2453.356      406.414        2.267        0.270      197.369       21.009        0.011      347.715       26.883      865.665
05/14/2014  18:14:00       34.686      132.019      -19.236       44.362       62.242       28.347     1968.007     3874.047      803.560        1.282        0.332      136.499       27.508        0.041      347.716       26.887      865.659
05/14/2014  18:15:00       39.868      106.020       -8.829       50.668       71.091       32.894     2567.201     5053.938     1081.985        1.080        0.435      113.268       38.685        0.117      347.780       26.998      865.647
05/14/2014  18:16:00       59.211       85.984        3.721       42.864       57.296       46.319     1837.315     3282.872     2145.409        0.909        0.363      104.399       38.831        0.138      347.647       26.767      865.648
05/14/2014  18:17:00        0.649       74.871       -7.748       34.690       32.228       22.258     1203.367     1038.640      495.439        0.420        0.137       74.873       17.101        0.052      347.707       26.872      865.638
05/14/2014  18:18:00       28.117       29.766        2.105       31.109       20.445       15.799      967.791      418.013      249.614        0.166        0.082       40.946       15.468        0.143      347.813       27.054      865.634
05/14/2014  18:19:00       10.728       43.110       -9.468       19.594       37.765       15.403      383.911     1426.230      237.251        0.205        0.102       44.425       15.491        0.122      347.816       27.059      865.612
05/14/2014  18:20:00      -11.872       86.481      -19.585       33.696       34.253       13.934     1135.424     1173.285      194.156        0.525        0.125       87.292       13.448        0.024      347.704       26.868      865.608
05/14/2014  18:21:00      -33.148       35.161       -8.606       16.835       19.830       11.320      283.414      393.235      128.134        0.161        0.040       48.322        7.561        0.024      347.834       27.092      865.601
05/14/2014  18:22:00      -16.341       58.706      -14.931       20.857       24.723       11.825      435.031      611.242      139.835        0.256        0.059       60.938        9.106        0.022      347.788       27.010      865.594
05/14/2014  18:23:00      -42.280       41.996      -12.444       26.636       29.126       15.121      709.490      848.352      228.635        0.275        0.089       59.593        9.017        0.023      348.046       27.457      865.589
05/14/2014  18:24:00      -58.872       21.478        5.240       43.175       34.885       29.648     1864.060     1216.982      878.977        0.396        0.198       62.667       22.806        0.132      348.227       27.770      865.579
05/14/2014  18:25:00     -103.248        1.273        0.797       43.674       47.240       25.984     1907.461     2231.631      675.155        0.774        0.241      103.256       14.264        0.019      348.146       27.631      865.577
05/14/2014  18:26:00      -71.770        8.887       -0.489       42.859       57.934       19.062     1836.874     3356.355      363.366        0.539        0.278       72.318       16.465        0.052      348.057       27.476      865.576
05/14/2014  18:27:00      -31.773       91.683      -14.185       20.063       25.165       16.585      402.508      633.282      275.059        0.546        0.066       97.032       13.486        0.019      347.840       27.100      865.574
05/14/2014  18:28:00      -60.567       31.898        8.142       56.855       38.261       29.592     3232.502     1463.933      875.702        0.516        0.279       68.454       22.209        0.105      347.858       27.131      865.579
05/14/2014  18:29:00      -78.679       24.951       21.201       62.698       62.548       29.697     3931.056     3912.277      881.937        0.799        0.436       82.541       23.292        0.080      347.991       27.361      865.576
05/14/2014  18:30:00       -6.280       17.666       13.919       36.744       33.406       27.907     1350.091     1115.987      778.812        0.189        0.162       18.749       21.747        1.345      348.032       27.433      865.567
05/14/2014  18:31:00        6.330       35.283       -5.778       30.053       36.407       16.662      903.177     1325.438      277.627        0.191        0.125       35.846        9.304        0.067      347.947       27.286      865.569
05/14/2014  18:32:00      -33.086       20.852       -1.266       28.809       22.780       21.263      829.941      518.930      452.132        0.167        0.090       39.108       19.810        0.257      348.109       27.565      865.565
05/14/2014  18:33:00        1.644      -14.016       11.249       13.956       28.191        9.441      194.760      794.705       89.141        0.070        0.054       14.112        7.292        0.267      348.174       27.678      865.572
05/14/2014  18:34:00       14.701       -8.355       20.850       13.194       24.950       10.153      174.080      622.489      103.083        0.081        0.045       16.910        9.971        0.348      347.967       27.320      865.582
05/14/2014  18:35:00       30.275      -80.160       -1.300       31.786       41.184       20.610     1010.378     1696.101      424.788        0.524        0.157       85.686       17.991        0.044      347.953       27.295      865.577
05/14/2014  18:36:00       15.819      -53.569       -9.355       19.928       23.226       18.247      397.143      539.450      332.955        0.224        0.063       55.856        9.469        0.029      348.100       27.550      865.570
05/14/2014  18:37:00       49.170      -18.320       19.843       57.093       63.041       34.853     3259.630     3974.189     1214.758        0.580        0.422       52.472       29.714        0.321      347.867       27.148      865.562
05/14/2014  18:38:00       67.554      -41.902        8.593       48.688       67.283       29.611     2370.565     4526.987      876.801        0.708        0.389       79.494       20.628        0.067      347.849       27.117      865.546
05/14/2014  18:39:00        3.118       -1.049       29.972       30.440       27.354       25.900      926.602      748.233      670.801        0.163        0.117        3.289       20.878       40.287      347.935       27.264      865.539
05/14/2014  18:40:00       14.593       19.352       50.133       34.595       27.381       24.064     1196.839      749.701      579.084        0.281        0.126       24.237       20.187        0.694      347.844       27.108      865.533
05/14/2014  18:41:00       22.153       16.578       19.648       35.876       37.461       16.855     1287.111     1403.346      284.082        0.206        0.149       27.670       13.397        0.234      347.784       27.005      865.527
05/14/2014  18:42:00       27.764       17.593        9.041       37.553       25.412       24.072     1410.203      645.768      579.483        0.190        0.132       32.869       17.196        0.274      347.724       26.901      865.525
05/14/2014  18:43:00       50.706       -5.373       12.150       42.120       40.038       28.153     1774.057     1603.054      792.585        0.346        0.208       50.989       14.509        0.081      347.737       26.921      865.526
05/14/2014  18:44:00       42.008      -43.322        8.757       25.961       37.184       22.428      673.985     1382.635      503.029        0.314        0.128       60.344       20.068        0.111      347.802       27.034      865.518
05/14/2014  18:45:00       46.407       -1.492       11.593       21.037       19.065       13.167      442.564      363.472      173.363        0.163        0.049       46.431        8.782        0.036      347.786       27.008      865.513
05/14/2014  18:46:00       44.073       15.455       15.340       15.682       15.039       18.966      245.925      226.163      359.709        0.162        0.042       46.704       11.865        0.065      347.771       26.982      865.512
05/14/2014  18:47:00       10.634        6.234        6.632       19.525       10.577        8.098      381.230      111.869       65.578        0.038        0.028       12.327        9.531        0.598      347.929       27.255      865.508
05/14/2014  18:48:00       19.363      -10.066        4.122       38.991       36.889       21.311     1520.287     1360.801      454.154        0.191        0.167       21.823       22.552        1.068      347.817       27.060      865.493
05/14/2014  18:49:00       31.903       28.662       12.832       47.030       25.038       22.928     2211.808      626.893      525.716        0.268        0.168       42.887       18.424        0.185      347.779       26.997      865.485
05/14/2014  18:50:00        1.980       17.743        2.831       15.763       28.167       15.277      248.471      793.365      233.373        0.080        0.064       17.853       18.704        1.098      347.917       27.233      865.483
05/14/2014  18:51:00       34.476       23.106        9.149       37.672       40.156       28.843     1419.153     1612.520      831.947        0.283        0.193       41.503       27.192        0.429      347.806       27.042      865.482
05/14/2014  18:52:00       34.845       84.271       -6.810       37.991       37.523       23.937     1443.325     1407.964      572.972        0.589        0.171       91.191       21.507        0.056      347.649       26.772      865.474
05/14/2014  18:53:00       13.787       20.964        0.952       42.375       31.465       18.618     1795.674      990.073      346.621        0.188        0.157       25.091       18.873        0.566      347.744       26.936      865.471
05/14/2014  18:54:00       30.927       89.956      -13.728       28.085       45.120       19.336      788.779     2035.846      373.881        0.622        0.160       95.124       21.905        0.053      347.652       26.779      865.471
05/14/2014  18:55:00       18.347       35.610       -4.960       28.480       34.315       20.972      811.116     1177.538      439.821        0.203        0.121       40.058       15.417        0.148      347.684       26.832      865.471
05/14/2014  18:56:00       31.275       48.643      -10.140       23.964       33.958       17.779      574.251     1153.178      316.093        0.274        0.102       57.830       18.228        0.099      347.642       26.759      865.472
05/14/2014  18:57:00       24.204       15.049       -3.328       29.918       33.435       20.387      895.090     1117.912      415.633        0.163        0.121       28.502       21.274        0.557      347.671       26.808      865.476
05/14/2014  18:58:00       40.449       15.808        4.187       17.368       18.485       11.463      301.650      341.705      131.390        0.134        0.039       43.429        8.472        0.038      347.619       26.721      865.476
05/14/2014  18:59:00       21.219       12.169       -1.596       14.409       16.571       11.825      207.624      274.609      139.833        0.061        0.031       24.461        8.050        0.108      347.664       26.799      865.466
05/14/2014  19:00:00       54.587       40.124        5.236       46.040       26.744       17.973     2119.703      715.246      323.013        0.389        0.158       67.747       18.007        0.071      347.644       26.763      865.469
05/14/2014  19:01:00       19.354       63.660      -10.913       20.529       23.643       17.508      421.433      558.992      306.534        0.292        0.064       66.537       15.924        0.057      347.654       26.780      865.466
05/14/2014  19:02:00       30.052       65.341       -3.867       23.800       42.724       21.730      566.424     1825.338      472.178        0.403        0.143       71.920       23.531        0.107      347.623       26.728      865.466
05/14/2014  19:03:00       19.051       24.822        2.841       18.649       24.155       13.262      347.774      583.442      175.894        0.105        0.055       31.290       10.615        0.115      347.647       26.769      865.470
05/14/2014  19:04:00       22.213       35.301       -3.204       19.635       27.302       17.149      385.535      745.397      294.095        0.159        0.071       41.708       15.229        0.133      347.658       26.787      865.478
05/14/2014  19:05:00       33.258       46.209       -7.526       23.161       29.740       17.290      536.415      884.487      298.941        0.251        0.086       56.933       14.305        0.063      347.579       26.649      865.486
05/14/2014  19:06:00       88.210       60.397       23.410       47.908       35.290       25.980     2295.217     1245.356      674.955        0.810        0.211      106.905       16.925        0.025      347.642       26.761      865.490
05/14/2014  19:07:00       65.468       46.333       15.092       32.295       33.576       29.329     1042.990     1127.331      860.193        0.484        0.152       80.205       20.263        0.064      347.597       26.682      865.507
05/14/2014  19:08:00       68.029       19.907       17.492       52.852       30.335       31.359     2793.345      920.234      983.379        0.501        0.235       70.882       26.963        0.145      347.647       26.768      865.513
05/14/2014  19:09:00      105.630       60.266       15.162       34.758       25.973       28.227     1208.087      674.588      796.757        0.885        0.134      121.613       21.085        0.030      347.677       26.821      865.522
05/14/2014  19:10:00       63.344       14.511       12.419       39.535       30.018       21.091     1563.038      901.102      444.829        0.364        0.145       64.985       12.422        0.037      347.641       26.757      865.523
05/14/2014  19:11:00       25.677       36.673        2.724       26.480       34.386       19.598      701.179     1182.379      384.087        0.214        0.113       44.768       19.624        0.192      347.596       26.681      865.524
05/14/2014  19:12:00       48.649       99.802       -8.047       23.955       37.147       27.542      573.838     1379.884      758.564        0.755        0.136      111.028       24.539        0.049      347.575       26.644      865.532
05/14/2014  19:13:00       87.332       56.277        6.870       27.243       23.705       20.474      742.171      561.915      419.181        0.628        0.086      103.894       16.294        0.025      347.645       26.767      865.534
05/14/2014  19:14:00       60.429       38.579        3.952       17.984       16.001       15.261      323.424      256.024      232.899        0.298        0.041       71.694       12.458        0.030      347.628       26.738      865.538
05/14/2014  19:15:00       15.420       14.133       -5.141       14.875       13.859       12.804      221.268      192.067      163.953        0.052        0.029       20.917        9.139        0.191      347.702       26.865      865.539
05/14/2014  19:16:00      -17.627        8.187       -4.766       16.092       12.453        9.130      258.952      155.089       83.362        0.045        0.025       19.436        9.488        0.238      347.742       26.931      865.543
05/14/2014  19:17:00      -12.493       42.313       -8.581        6.993       22.860        9.438       48.906      522.567       89.081        0.134        0.033       44.119       10.815        0.060      347.572       26.639      865.553
05/14/2014  19:18:00       15.507       88.935      -15.298       18.494       12.684        7.470      342.027      160.875       55.801        0.447        0.028       90.277        5.855        0.004      347.628       26.734      865.562
05/14/2014  19:19:00       27.671      114.959      -21.702       23.094       40.885       14.914      533.343     1671.555      222.428        0.844        0.121      118.242       18.001        0.023      347.633       26.745      865.579
05/14/2014  19:20:00       45.214       85.743       -3.860       26.496       37.855       22.909      702.024     1432.986      524.837        0.603        0.133       96.934       23.762        0.060      347.553       26.605      865.585
05/14/2014  19:21:00       34.468       56.808        0.620       23.699       35.400       22.888      561.643     1253.153      523.870        0.338        0.117       66.447       23.920        0.130      347.610       26.704      865.598
05/14/2014  19:22:00       41.473       64.267       -7.109       22.681       43.030       22.826      514.435     1851.569      521.018        0.439        0.144       76.487       24.669        0.104      347.552       26.602      865.623
05/14/2014  19:23:00       78.237       56.085       13.922       39.293       26.647       30.562     1543.964      710.075      934.055        0.632        0.159       96.263       13.118        0.019      347.474       26.470      865.646
05/14/2014  19:24:00       99.501       74.916       15.654       53.164       29.016       27.353     2826.363      841.929      748.201        1.009        0.221      124.551       22.162        0.032      347.513       26.535      865.669
05/14/2014  19:25:00      149.773      111.001       17.148       54.693       39.247       40.580     2991.296     1540.291     1646.702        2.061        0.309      186.422       23.341        0.016      347.509       26.527      865.681
05/14/2014  19:26:00      131.661       91.361       26.528       55.187       33.814       44.758     3045.619     1143.397     2003.258        1.629        0.310      160.254       27.383        0.029      347.439       26.408      865.699
05/14/2014  19:27:00       46.317       51.642       -0.820       35.792       44.876       24.195     1281.058     2013.820      585.381        0.435        0.194       69.369       23.012        0.110      347.340       26.239      865.717
05/14/2014  19:28:00       29.301       81.144       -7.594       32.701       46.872       29.385     1069.349     2197.016      863.498        0.581        0.206       86.272       30.348        0.124      347.356       26.267      865.735
05/14/2014  19:29:00        8.059      173.661      -26.410       41.537       39.303       21.346     1725.332     1544.695      455.632        1.732        0.186      173.848       21.769        0.016      347.423       26.381      865.739
05/14/2014  19:30:00       43.611      159.117      -18.525       46.453       54.393       30.495     2157.843     2958.614      929.931        1.680        0.302      164.985       22.665        0.019      347.327       26.215      865.756
05/14/2014  19:31:00       92.743      134.322        8.491       95.635       87.318       58.875     9146.056     7624.519     3466.294        2.347        1.012      163.229       58.148        0.127      347.229       26.044      865.765
05/14/2014  19:32:00       35.890      184.136       -5.603       80.234       89.021       64.437     6437.487     7924.795     4152.145        2.687        0.926      187.601       62.475        0.111      347.129       25.871      865.779
05/14/2014  19:33:00       82.869      166.721        0.641       97.592      149.821       74.018     9524.122    22446.196     5478.631        3.605        1.872      186.181       80.379        0.186      347.098       25.819      865.788
05/14/2014  19:34:00       73.667      254.298      -17.568       97.066      145.890       84.005     9421.838    21283.790     7056.797        5.408        1.888      264.753       93.647        0.125      347.088       25.802      865.797
05/14/2014  19:35:00       87.692      222.303      -22.006       85.956      124.998       71.908     7388.518    15624.571     5170.763        4.288        1.409      238.974       73.572        0.095      347.045       25.726      865.800
05/14/2014  19:36:00       55.083      103.705       -1.590       73.295       57.968       38.202     5372.143     3360.291     1459.425        1.199        0.510      117.426       34.022        0.084      346.960       25.585      865.802
05/14/2014  19:37:00       32.294      195.576      -14.831       74.059      153.382       58.882     5484.750    23526.110     3467.061        3.599        1.624      198.224       79.745        0.162      346.977       25.611      865.821
05/14/2014  19:38:00       59.344      264.843      -37.440       59.415      120.683       64.700     3530.166    14564.276     4186.144        4.867        1.114      271.410       74.393        0.075      347.010       25.664      865.827
05/14/2014  19:39:00       59.699      167.601        3.266       62.926      105.659       66.492     3959.638    11163.780     4421.240        2.560        0.977      177.916       70.318        0.156      346.961       25.585      865.831
05/14/2014  19:40:00       37.303      160.916       -7.655       60.221       84.498       51.014     3626.542     7139.828     2602.404        2.035        0.668      165.183       51.311        0.096      346.891       25.462      865.847
05/14/2014  19:41:00       35.710      413.881      -67.514       77.962      128.864       62.628     6078.004    16605.971     3922.240       10.186        1.330      415.419       71.809        0.030      346.923       25.515      865.861
05/14/2014  19:42:00      -13.320      313.868      -49.260       70.255      109.348       41.713     4935.742    11957.012     1739.999        5.987        0.932      314.151       42.712        0.018      346.883       25.448      865.866
05/14/2014  19:43:00       27.136      249.382      -15.144       74.567      138.732       64.180     5560.296    19246.570     4119.082        4.604        1.446      250.854       76.785        0.094      346.817       25.334      865.870
05/14/2014  19:44:00       32.029      386.976      -62.775       58.675      122.835       38.749     3442.767    15088.560     1501.495        8.737        1.002      388.299       47.410        0.015      346.834       25.363      865.884
05/14/2014  19:45:00       -8.640      313.944      -45.976       73.636      124.265       45.603     5422.242    15441.680     2079.612        6.184        1.147      314.063       52.288        0.028      346.756       25.229      865.899
05/14/2014  19:46:00       -2.067      324.609      -44.417       76.651      159.081       62.435     5875.444    25306.618     3898.109        7.121        1.754      324.615       76.300        0.055      346.738       25.199      865.916
05/14/2014  19:47:00      -17.049      249.089      -23.483       70.680      121.829       58.352     4995.625    14842.301     3404.939        4.306        1.162      249.672       67.721        0.074      346.724       25.173      865.930
05/14/2014  19:48:00      -32.358      314.091      -37.485       66.078      110.867       48.831     4366.305    12291.497     2384.504        6.007        0.952      315.754       50.996        0.026      346.747       25.213      865.937
05/14/2014  19:49:00      -47.988      244.015      -16.452       82.722      133.214       66.509     6843.010    17745.953     4423.395        4.556        1.451      248.689       80.505        0.105      346.742       25.206      865.960
05/14/2014  19:50:00      -76.175      234.484      -30.399       64.824      114.492       45.619     4202.095    13108.441     2081.126        4.055        0.970      246.547       49.129        0.040      346.710       25.150      865.972
05/14/2014  19:51:00      -62.796      277.376      -24.801       81.325       93.413       51.633     6613.776     8725.976     2666.002        4.975        0.900      284.395       48.968        0.030      346.700       25.131      865.979
05/14/2014  19:52:00      -54.698      185.106      -22.921       61.134       80.449       45.688     3737.336     6472.076     2087.387        2.504        0.615      193.019       42.314        0.048      346.635       25.020      865.982
05/14/2014  19:53:00      -77.562      244.656      -32.288       66.373      107.244       41.580     4405.393    11501.203     1728.879        4.227        0.882      256.656       40.928        0.025      346.675       25.089      865.995
05/14/2014  19:54:00      -40.269      268.357      -40.868       70.146      124.955       37.628     4920.472    15613.830     1415.890        4.862        1.098      271.361       51.236        0.036      346.674       25.087      866.010
05/14/2014  19:55:00      -89.472      268.176      -28.527       66.301       81.830       44.788     4395.789     6696.198     2005.940        4.692        0.655      282.708       44.554        0.025      346.663       25.067      866.017
05/14/2014  19:56:00      -33.280      181.493      -14.829       60.558       59.831       48.015     3667.327     3579.784     2305.478        2.191        0.478      184.519       35.693        0.037      346.572       24.914      866.040
05/14/2014  19:57:00      -52.616      210.485      -25.845       63.172       58.436       34.232     3990.646     3414.729     1171.831        2.816        0.429      216.961       31.282        0.021      346.634       25.021      866.052
05/14/2014  19:58:00      -32.131      218.663      -34.313       42.240       66.944       31.534     1784.247     4481.562      994.391        2.864        0.363      221.011       23.258        0.011      346.645       25.039      866.086
05/14/2014  19:59:00      -54.223      251.112      -21.436       68.835      112.090       54.661     4738.268    12564.089     2987.814        4.337        1.015      256.899       58.404        0.052      346.641       25.031      866.102
05/14/2014  20:00:00      -30.682      208.131      -24.293       72.696       91.765       39.456     5284.699     8420.888     1556.745        3.005        0.763      210.380       44.862        0.045      346.603       24.966      866.130
05/14/2014  20:01:00      -73.906      267.648      -38.623       61.113       69.731       41.314     3734.748     4862.359     1706.854        4.444        0.515      277.665       38.357        0.019      346.627       25.005      866.141
05/14/2014  20:02:00      -78.719      365.916      -59.432       81.073      107.551       34.348     6572.864    11567.173     1179.767        8.147        0.966      374.288       36.094        0.009      346.679       25.096      866.166
05/14/2014  20:03:00      -84.407      175.353      -23.430       52.868       89.518       37.652     2795.037     8013.401     1417.670        2.532        0.611      194.611       41.825        0.046      346.533       24.848      866.172
05/14/2014  20:04:00      -54.359      324.892      -38.271       42.054       87.659       31.301     1768.532     7684.110      979.752        6.020        0.522      329.408       30.106        0.008      346.604       24.967      866.204
05/14/2014  20:05:00      -58.993      233.710      -31.606       42.025      103.442       30.768     1766.086    10700.254      946.669        3.625        0.671      241.041       25.952        0.012      346.543       24.865      866.206
05/14/2014  20:06:00      -43.093       93.660      -16.892       53.165       78.207       26.632     2826.515     6116.378      709.243        1.028        0.483      103.098       29.465        0.082      346.484       24.763      866.230
05/14/2014  20:07:00      -24.447      261.831      -39.090       60.538      116.237       38.311     3664.841    13510.952     1467.763        4.466        0.932      262.970       38.520        0.021      346.540       24.858      866.234
05/14/2014  20:08:00      -79.739      259.479      -21.213       75.566      108.409       45.694     5710.184    11752.601     2087.904        4.684        0.978      271.454       45.411        0.028      346.463       24.726      866.256
05/14/2014  20:09:00      -30.283      317.525      -48.190       75.016       86.755       42.624     5627.346     7526.379     1816.789        5.951        0.749      318.966       43.260        0.018      346.528       24.837      866.280
05/14/2014  20:10:00      -26.959      213.475      -25.990       53.860       70.170       38.948     2900.917     4923.870     1516.954        2.816        0.467      215.171       35.923        0.028      346.432       24.672      866.302
05/14/2014  20:11:00      -53.643      174.593       -5.031       72.811      120.991       39.687     5301.510    14638.804     1575.057        2.745        1.076      182.648       55.163        0.091      346.387       24.596      866.324
05/14/2014  20:12:00      -54.706      145.922      -29.913       47.639       49.280       31.902     2269.438     2428.528     1017.768        1.545        0.286      155.839       25.644        0.027      346.428       24.668      866.328
05/14/2014  20:13:00      -58.546      188.968      -25.336       55.704       77.754       43.503     3102.960     6045.685     1892.518        2.541        0.552      197.830       40.003        0.041      346.399       24.616      866.352
05/14/2014  20:14:00      -38.478       85.981      -14.313       71.659       74.492       38.484     5135.049     5549.102     1480.984        1.062        0.608       94.198       37.148        0.156      346.352       24.537      866.355
05/14/2014  20:15:00      -53.560      151.073      -33.617       57.979       59.681       46.559     3361.511     3561.772     2167.710        1.795        0.455      160.286       32.348        0.041      346.362       24.553      866.368
05/14/2014  20:16:00      -54.465      127.924      -14.125       57.911      103.151       39.063     3353.705    10640.090     1525.901        1.752        0.776      139.035       46.473        0.112      346.308       24.459      866.367
05/14/2014  20:17:00      -34.078       46.425       -8.018       37.632       71.672       44.580     1416.181     5136.893     1987.380        0.596        0.427       57.590       46.592        0.655      346.338       24.513      866.381
05/14/2014  20:18:00      -50.863       31.229       -4.976       43.402       37.038       19.973     1883.763     1371.845      398.906        0.362        0.183       59.686       11.036        0.034      346.240       24.346      866.387
05/14/2014  20:19:00      -50.136      101.004       -8.220       68.214       79.696       35.160     4653.157     6351.495     1236.227        1.251        0.612      112.763       41.690        0.137      346.234       24.333      866.409
05/14/2014  20:20:00      -39.374      164.706      -18.814       65.857       92.147       38.133     4337.196     8491.009     1454.091        2.165        0.714      169.347       44.480        0.069      346.296       24.440      866.421
05/14/2014  20:21:00      -65.391      248.332      -30.683       47.475       47.841       30.661     2253.851     2288.757      940.086        3.618        0.274      256.797       27.111        0.011      346.347       24.524      866.441
05/14/2014  20:22:00      -39.155      263.580      -44.369       59.706       64.153       29.816     3564.752     4115.588      889.001        4.077        0.428      266.473       21.845        0.007      346.365       24.554      866.451
05/14/2014  20:23:00      -46.644      151.979      -14.490       52.906       74.569       37.414     2799.024     5560.505     1399.798        1.762        0.488      158.975       39.381        0.061      346.290       24.428      866.470
05/14/2014  20:24:00      -36.831      131.209      -13.998       45.761       85.116       30.270     2094.110     7244.721      916.301        1.451        0.513      136.280       38.973        0.082      346.212       24.296      866.486
05/14/2014  20:25:00      -49.524      137.354      -14.438       53.889       79.303       38.831     2904.025     6289.030     1507.836        1.611        0.535      146.009       41.550        0.081      346.282       24.416      866.501
05/14/2014  20:26:00      -36.403      175.733      -25.270       65.364       69.566       35.652     4272.427     4839.429     1271.055        2.161        0.519      179.464       39.312        0.048      346.328       24.495      866.519
05/14/2014  20:27:00      -81.756      138.357      -31.247       47.706       53.837       31.633     2275.900     2898.471     1000.639        1.649        0.309      160.707       26.855        0.028      346.354       24.540      866.534
05/14/2014  20:28:00      -62.176       88.289      -14.937       49.427       53.792       31.282     2443.031     2893.630      978.593        0.910        0.316      107.985       29.082        0.073      346.295       24.438      866.561
05/14/2014  20:29:00      -70.159       54.414       -8.709       53.647       63.675       29.889     2877.991     4054.457      893.338        0.789        0.391       88.787       17.012        0.037      346.239       24.343      866.572
05/14/2014  20:30:00     -148.192      -25.502       -8.887       38.808       35.032       22.316     1506.087     1227.243      498.012        1.296        0.162      150.370       22.209        0.022      346.137       24.169      866.578
05/14/2014  20:31:00      -99.897      -52.675       -5.023       52.264       37.436       24.650     2731.560     1401.438      607.611        0.876        0.237      112.934       25.438        0.051      345.978       23.895      866.598
05/14/2014  20:32:00     -151.723      -33.071       -8.262       58.621       51.813       35.877     3436.423     2684.567     1287.188        1.579        0.370      155.285       36.102        0.054      345.811       23.609      866.633
05/14/2014  20:33:00     -127.462      -13.797       -5.404       49.382       37.792       30.658     2438.588     1428.199      939.905        1.064        0.240      128.207       30.846        0.058      345.675       23.374      866.651
05/14/2014  20:34:00     -111.374      -74.572       -5.565       56.190       55.749       32.282     3157.290     3107.933     1042.140        1.265        0.365      134.034       18.701        0.019      345.553       23.165      866.660
05/14/2014  20:35:00     -130.033      -74.334        3.071       79.305       51.083       31.437     6289.307     2609.494      988.270        1.616        0.494      149.780       33.427        0.050      345.353       22.821      866.681
05/14/2014  20:36:00     -109.193      -50.820        1.904       66.713       69.002       31.823     4450.675     4761.259     1012.713        1.236        0.511      120.440       28.390        0.056      345.422       22.938      866.694
05/14/2014  20:37:00     -174.325      -36.110      -12.267       84.281       50.970       41.035     7103.355     2597.906     1683.859        2.161        0.569      178.026       45.218        0.065      345.323       22.767      866.712
05/14/2014  20:38:00     -159.691      -71.203       -2.950       68.658       70.380       41.129     4713.891     4953.287     1691.590        2.097        0.568      174.846       37.775        0.047      345.280       22.695      866.725
05/14/2014  20:39:00     -184.426      -79.408      -21.315       61.368       70.189       35.842     3765.992     4926.458     1284.679        2.537        0.499      200.795       24.984        0.015      345.278       22.691      866.745
05/14/2014  20:40:00     -144.157      -65.290       -6.915       58.184       49.043       30.192     3385.339     2405.242      911.529        1.590        0.335      158.253       25.662        0.026      345.274       22.686      866.762
05/14/2014  20:41:00     -176.644      -36.261        1.180      110.435       61.133       43.751    12195.972     3737.201     1914.143        2.518        0.892      180.328       46.376        0.066      345.295       22.719      866.773
05/14/2014  20:42:00     -193.396      -50.091       -6.575       92.529       62.750       43.891     8561.535     3937.565     1926.415        2.719        0.721      199.778       46.139        0.053      345.296       22.723      866.775
05/14/2014  20:43:00     -162.235      -31.061       -9.161       78.093       78.241       37.339     6098.558     6121.713     1394.195        2.049        0.681      165.182       37.513        0.052      345.302       22.733      866.774
05/14/2014  20:44:00     -271.950      -22.824      -27.219       71.050       59.975       40.681     5048.171     3597.032     1654.926        4.276        0.515      272.906       32.007        0.014      345.402       22.902      866.780
05/14/2014  20:45:00     -255.447      -32.952      -13.400       79.598       80.404       44.961     6335.783     6464.747     2021.477        4.067        0.741      257.564       39.970        0.024      345.348       22.811      866.790
05/14/2014  20:46:00     -221.076      -79.534       -1.417       83.526       67.615       40.471     6976.521     4571.746     1637.882        3.419        0.659      234.948       35.380        0.023      345.373       22.853      866.798
05/14/2014  20:47:00     -275.743     -104.336       -6.089       93.098       84.621       43.078     8667.255     7160.765     1855.740        5.232        0.884      294.823       45.431        0.024      345.462       23.006      866.800
05/14/2014  20:48:00     -314.078     -107.636      -19.597      135.787      104.765       72.638    18438.052    10975.810     5276.311        7.265        1.735      332.010       70.269        0.045      345.552       23.159      866.808
05/14/2014  20:49:00     -326.330      -94.443      -11.751      139.104      120.146       76.065    19350.038    14435.140     5785.932        7.755        1.979      339.721       71.223        0.044      345.686       23.390      866.831
05/14/2014  20:50:00     -278.576      -99.251       -2.221      140.699      101.976       62.143    19796.108    10399.006     3861.698        6.075        1.703      295.728       65.890        0.050      345.736       23.478      866.852
05/14/2014  20:51:00     -324.021      -88.732      -12.239      161.010       89.356       56.767    25924.071     7984.561     3222.540        7.506        1.857      335.951       65.225        0.038      345.711       23.435      866.860
05/14/2014  20:52:00     -369.771      -85.656      -25.292      124.107      108.306       66.777    15402.542    11730.125     4459.134        8.814        1.580      379.562       66.885        0.031      345.769       23.533      866.880
05/14/2014  20:53:00     -195.008      -57.294        3.635      118.110       90.930       57.918    13950.069     8268.198     3354.544        3.344        1.279      203.251       57.854        0.081      345.749       23.498      866.882
05/14/2014  20:54:00     -268.497      -54.985        3.239      137.316       97.607       53.414    18855.579     9527.077     2853.074        5.317        1.562      274.070       55.053        0.040      345.753       23.507      866.902
05/14/2014  20:55:00     -264.549      -32.945      -15.623      135.533       80.352       54.147    18369.251     6456.377     2931.849        4.953        1.388      266.593       64.998        0.059      345.772       23.538      866.917
05/14/2014  20:56:00     -260.982      -49.405       -6.157       92.948       78.594       56.284     8639.323     6177.024     3167.879        4.428        0.899      265.617       57.860        0.047      345.744       23.491      866.922
05/14/2014  20:57:00     -233.354      -34.235      -15.638       73.868       56.939       33.122     5456.550     3242.009     1097.037        3.283        0.490      235.852       26.372        0.013      345.655       23.338      866.927
05/14/2014  20:58:00     -230.905      -47.880       -7.956       81.999       61.536       38.943     6723.774     3786.704     1516.533        3.385        0.601      235.817       41.346        0.031      345.584       23.216      866.942
05/14/2014  20:59:00     -186.071      -73.183       -3.375       61.521       65.903       44.285     3784.886     4343.181     1961.130        2.504        0.504      199.946       34.442        0.030      345.558       23.172      866.945
05/14/2014  21:00:00     -169.891      -64.233      -14.273       51.736       48.190       30.463     2676.640     2322.241      928.014        1.956        0.296      181.629       25.857        0.020      345.398       22.897      866.963
05/14/2014  21:01:00     -148.041      -59.595       -8.179       52.430       42.136       26.843     2748.924     1775.403      720.532        1.539        0.262      159.586       18.507        0.013      345.305       22.737      866.970
05/14/2014  21:02:00      -77.304      -30.735        7.451       50.101       47.922       37.480     2510.110     2296.479     1404.764        0.659        0.311       83.190       22.951        0.076      345.232       22.615      866.980
05/14/2014  21:03:00      -88.347       22.860      -16.070       39.018       53.229       23.310     1522.436     2833.377      543.366        0.674        0.245       91.256       17.972        0.039      345.233       22.618      866.993
05/14/2014  21:04:00      -82.995        6.877      -11.016       51.999       50.082       27.538     2703.929     2508.181      758.325        0.651        0.299       83.280       24.470        0.086      345.225       22.601      866.998
05/14/2014  21:05:00      -32.910       43.555        5.561       33.787       52.475       21.895     1141.584     2753.657      479.392        0.369        0.219       54.590       16.488        0.091      345.011       22.237      867.017
05/14/2014  21:06:00      -79.504       64.063      -12.979       29.261       43.063       23.185      856.204     1854.380      537.557        0.692        0.162      102.103        9.996        0.010      345.071       22.341      867.028
05/14/2014  21:07:00      -90.835       72.038      -15.662       26.869       39.816       17.025      721.957     1585.280      289.840        0.814        0.130      115.933       15.894        0.019      345.122       22.426      867.044
05/14/2014  21:08:00      -69.039       11.766        4.287       28.349       29.625       17.478      803.656      877.642      305.477        0.345        0.099       70.035       16.302        0.054      345.149       22.473      867.054
05/14/2014  21:09:00      -73.313       27.316       -6.711       28.220       24.192       15.249      796.372      585.263      232.523        0.389        0.081       78.237       13.581        0.030      345.165       22.502      867.070
05/14/2014  21:10:00      -95.661       36.068       -8.739       25.019       20.948       18.180      625.935      438.832      330.512        0.596        0.070      102.234        9.955        0.009      345.136       22.452      867.070
05/14/2014  21:11:00      -93.046       76.111      -13.546       41.498       42.363       25.737     1722.088     1794.615      662.416        0.941        0.209      120.210       26.473        0.048      345.124       22.431      867.080
05/14/2014  21:12:00     -120.143       95.352      -25.014       26.625       33.650       18.566      708.899     1132.343      344.712        1.317        0.109      153.383       12.002        0.006      345.182       22.530      867.085
05/14/2014  21:13:00     -124.686       94.960      -23.977       33.623       43.241       26.543     1130.476     1869.767      704.510        1.442        0.185      156.729       21.014        0.018      345.182       22.528      867.095
05/14/2014  21:14:00     -136.294       76.612      -19.253       39.129       31.717       21.794     1531.045     1005.990      474.966        1.391        0.151      156.351       19.127        0.015      345.126       22.434      867.100
05/14/2014  21:15:00     -123.812       80.406      -21.368       47.599       56.775       30.560     2265.668     3223.405      933.902        1.434        0.321      147.630       28.092        0.036      345.061       22.324      867.116
05/14/2014  21:16:00      -83.771       12.388        1.202       40.955       39.689       25.701     1677.342     1575.197      660.552        0.554        0.196       84.682       24.651        0.085      344.965       22.160      867.129
05/14/2014  21:17:00      -96.871        2.160       -2.675       51.310       61.016       26.849     2632.712     3722.939      720.872        0.823        0.354       96.895       16.934        0.031      344.929       22.097      867.142
05/14/2014  21:18:00     -105.892        4.420      -12.744       41.988       51.356       30.560     1763.020     2637.472      933.919        0.836        0.267      105.984       25.997        0.060      344.926       22.091      867.150
05/14/2014  21:19:00     -106.248      -22.792       -0.519       43.340       56.747       28.305     1878.355     3220.223      801.198        0.885        0.295      108.665       18.382        0.029      344.772       21.829      867.160
05/14/2014  21:20:00     -166.554        4.223      -28.379       75.597       64.931       37.866     5714.848     4215.985     1433.817        1.996        0.568      166.607       37.994        0.052      344.747       21.783      867.164
05/14/2014  21:21:00     -147.374      -21.624      -14.154       38.371       54.245       34.393     1472.347     2942.500     1182.898        1.399        0.280      148.952       20.360        0.019      344.673       21.657      867.175
05/14/2014  21:22:00     -119.986       -8.759      -10.204       57.907       51.832       32.934     3353.209     2686.594     1084.640        1.085        0.356      120.306       24.059        0.040      344.654       21.627      867.176
05/14/2014  21:23:00     -146.787      -61.389      -20.914       42.461       53.275       33.591     1802.924     2838.192     1128.364        1.576        0.288      159.107       20.245        0.016      344.622       21.572      867.178
05/14/2014  21:24:00      -99.800      -45.015       -5.299       48.287       43.972       28.465     2331.669     1933.514      810.231        0.854        0.254      109.482       20.807        0.036      344.575       21.493      867.180
05/14/2014  21:25:00     -177.150      -32.171      -22.230       52.672       46.102       22.417     2774.295     2125.357      502.539        1.916        0.270      180.047       10.945        0.004      344.666       21.646      867.195
05/14/2014  21:26:00     -166.119      -51.059      -20.786       48.182       41.084       32.159     2321.507     1687.910     1034.198        1.784        0.252      173.789       16.075        0.009      344.661       21.638      867.201
05/14/2014  21:27:00     -165.631      -39.077      -22.610       47.588       62.824       27.632     2264.624     3946.866      763.539        1.822        0.349      170.178       24.254        0.020      344.660       21.636      867.211
05/14/2014  21:28:00     -143.769      -21.803      -14.137       59.639       45.111       32.293     3556.772     2035.046     1042.835        1.399        0.332      145.413       35.469        0.059      344.573       21.486      867.215
05/14/2014  21:29:00     -139.866      -34.979      -15.885       43.373       34.849       26.985     1881.188     1214.419      728.200        1.243        0.191      144.173       22.832        0.025      344.664       21.643      867.218
05/14/2014  21:30:00     -141.436      -31.314      -11.837       62.687       46.492       31.036     3929.598     2161.536      963.204        1.409        0.353      144.861       34.483        0.057      344.761       21.808      867.227
05/14/2014  21:31:00     -143.439      -18.197      -17.384       44.646       44.990       23.136     1993.306     2024.124      535.265        1.288        0.228      144.588       19.885        0.019      344.762       21.809      867.236
05/14/2014  21:32:00     -159.372      -59.984      -16.299       36.125       31.805       26.050     1304.997     1011.532      678.583        1.613        0.150      170.286       18.409        0.012      344.768       21.820      867.253
05/14/2014  21:33:00     -144.163      -39.093      -23.642       39.056       53.880       27.629     1525.351     2903.052      763.351        1.403        0.260      149.369       27.584        0.034      344.706       21.714      867.255
05/14/2014  21:34:00     -140.990      -72.250       -8.097       37.040       49.004       30.297     1371.983     2401.378      917.887        1.493        0.235      158.424       22.727        0.021      344.643       21.606      867.266
05/14/2014  21:35:00      -83.737      -15.304       -5.924       52.032       44.995       29.921     2707.331     2024.566      895.269        0.645        0.281       85.124       29.364        0.119      344.678       21.667      867.267
05/14/2014  21:36:00     -108.481      -42.511        0.414       57.427       46.825       30.837     3297.837     2192.602      950.893        1.001        0.322      116.513       30.296        0.068      344.721       21.740      867.274
05/14/2014  21:37:00     -160.898      -41.864      -10.451       50.313       45.231       25.106     2531.363     2045.862      630.327        1.648        0.260      166.255       24.017        0.021      344.777       21.836      867.273
05/14/2014  21:38:00     -220.030      -25.895      -12.225       81.790       56.641       40.025     6689.555     3208.240     1601.970        3.036        0.575      221.549       49.562        0.050      344.771       21.822      867.284
05/14/2014  21:39:00     -221.498       -5.786      -20.846       41.104       31.903       26.212     1689.499     1017.815      687.086        2.646        0.170      221.574       19.367        0.008      344.863       21.981      867.284
05/14/2014  21:40:00     -135.481      -55.389       -4.381       34.783       41.949       26.898     1209.886     1759.712      723.507        1.257        0.185      146.366       17.100        0.014      344.678       21.667      867.295
05/14/2014  21:41:00     -156.393      -34.621       -8.918       44.108       30.543       21.379     1945.485      932.897      457.045        1.454        0.167      160.180       22.623        0.020      344.651       21.621      867.295
05/14/2014  21:42:00     -187.475      -39.488      -19.543       48.689       56.286       32.361     2370.658     3168.103     1047.203        2.184        0.329      191.589       30.883        0.026      344.665       21.643      867.301
05/14/2014  21:43:00     -170.783      -24.456        0.264       68.364       53.532       33.124     4673.583     2865.640     1097.232        1.920        0.432      172.525       31.374        0.033      344.742       21.776      867.303
05/14/2014  21:44:00     -157.762      -32.965       -1.132       66.173       49.279       32.663     4378.880     2428.405     1066.853        1.692        0.394      161.169       33.068        0.042      344.676       21.661      867.306
05/14/2014  21:45:00     -180.064      -42.779        3.362       72.006       52.934       38.874     5184.852     2802.012     1511.223        2.188        0.475      185.076       38.502        0.043      344.676       21.663      867.303
05/14/2014  21:46:00     -186.548      -33.174       -4.446       67.395       45.533       30.288     4542.099     2073.251      917.353        2.173        0.377      189.475       29.074        0.024      344.821       21.910      867.312
05/14/2014  21:47:00     -127.238      -16.521        0.589       69.462       48.274       32.113     4824.911     2330.406     1031.233        1.232        0.409      128.306       29.508        0.053      344.702       21.707      867.311
05/14/2014  21:48:00     -211.347       -9.659      -21.744       50.650       34.307       28.687     2565.390     1176.943      822.929        2.490        0.228      211.568       24.230        0.013      344.658       21.631      867.325
05/14/2014  21:49:00     -226.818       -9.311      -21.599       53.785       37.542       24.482     2892.876     1409.422      599.370        2.845        0.245      227.009       25.704        0.013      344.714       21.726      867.323
05/14/2014  21:50:00     -179.295      -25.484      -23.810       57.016       35.539       33.232     3250.814     1262.991     1104.395        1.949        0.281      181.097       33.273        0.034      344.701       21.705      867.325
05/14/2014  21:51:00     -106.286       -6.333        0.025       44.234       39.123       26.536     1956.613     1530.573      704.151        0.776        0.210      106.474       22.683        0.045      344.516       21.390      867.328
05/14/2014  21:52:00      -67.298        6.190        5.095       33.328       38.606       23.154     1110.782     1490.453      536.109        0.386        0.157       67.583       18.850        0.078      344.391       21.177      867.335
05/14/2014  21:53:00     -100.464      -10.430       -7.285       49.153       40.709       22.752     2416.013     1657.217      517.648        0.742        0.230      101.004       14.187        0.020      344.400       21.191      867.324
05/14/2014  21:54:00     -143.403      -57.150      -16.190       29.734       38.857       21.667      884.101     1509.871      469.472        1.348        0.143      154.372       23.125        0.022      344.491       21.349      867.331
05/14/2014  21:55:00     -161.437      -41.716      -12.458       45.122       34.082       27.702     2035.966     1161.614      767.409        1.596        0.198      166.740       28.518        0.029      344.463       21.299      867.326
05/14/2014  21:56:00     -162.950      -64.004      -16.831       45.489       56.607       31.437     2069.285     3204.367      988.292        1.860        0.313      175.069       13.659        0.006      344.488       21.340      867.324
05/14/2014  21:57:00     -181.879      -40.430      -20.476       48.909       55.959       29.711     2392.071     3131.456      882.765        2.077        0.320      186.318       27.969        0.023      344.588       21.511      867.331
05/14/2014  21:58:00     -153.114      -38.828      -14.163       47.246       39.619       29.360     2232.153     1569.648      861.999        1.491        0.233      157.960       23.352        0.022      344.505       21.372      867.320
05/14/2014  21:59:00     -183.078      -31.397      -19.281       52.607       48.995       33.404     2767.471     2400.488     1115.820        2.058        0.314      185.750       29.602        0.025      344.530       21.414      867.330
05/14/2014  22:00:00     -185.095      -50.677      -11.371       59.609       60.229       30.881     3553.238     3627.592      953.621        2.254        0.407      191.907       34.756        0.033      344.509       21.375      867.334
05/14/2014  22:01:00     -196.176      -35.356      -20.131       47.252       36.044       27.596     2232.741     1299.194      761.534        2.222        0.215      199.337       26.735        0.018      344.574       21.487      867.329
05/14/2014  22:02:00     -180.438      -25.163      -15.358       51.972       36.021       30.680     2701.041     1297.483      941.246        1.918        0.247      182.184       28.990        0.025      344.497       21.355      867.340
05/14/2014  22:03:00     -189.989      -32.442      -12.957       36.877       36.024       26.125     1359.921     1297.758      682.512        2.033        0.167      192.739       21.666        0.013      344.387       21.168      867.343
05/14/2014  22:04:00     -158.828      -23.628       -8.764       62.716       52.006       28.366     3933.316     2704.630      804.631        1.665        0.372      160.576       32.572        0.041      344.504       21.369      867.344
05/14/2014  22:05:00     -161.150      -15.336      -12.970       50.089       43.579       27.909     2508.878     1899.154      778.916        1.578        0.259      161.878       21.305        0.017      344.455       21.284      867.344
05/14/2014  22:06:00     -147.680      -42.099       -4.583       54.602       54.591       33.776     2981.337     2980.136     1140.790        1.535        0.355      153.563       31.577        0.042      344.526       21.407      867.351
05/14/2014  22:07:00     -232.773      -54.791      -26.491       75.730       46.744       33.820     5734.987     2184.981     1143.794        3.347        0.453      239.134       37.259        0.024      344.551       21.446      867.352
05/14/2014  22:08:00     -192.367      -25.849       -1.545       61.762       37.187       31.088     3814.485     1382.840      966.454        2.192        0.308      194.096       32.684        0.028      344.557       21.458      867.348
05/14/2014  22:09:00     -161.299      -26.992       -2.487       49.649       35.356       27.764     2465.017     1250.055      770.847        1.562        0.224      163.542       27.149        0.028      344.534       21.420      867.354
05/14/2014  22:10:00     -138.806      -25.664       -6.547       58.526       39.976       27.275     3425.303     1598.070      743.947        1.287        0.288      141.158       24.056        0.029      344.529       21.412      867.351
05/14/2014  22:11:00     -166.400      -11.802       -7.596       38.667       35.491       24.335     1495.146     1259.617      592.191        1.562        0.167      166.818       21.577        0.017      344.515       21.389      867.354
05/14/2014  22:12:00     -138.160      -49.662        2.589       62.824       41.744       24.318     3946.878     1742.598      591.346        1.392        0.314      146.814       22.588        0.024      344.485       21.337      867.363
05/14/2014  22:13:00      -78.308      -17.743       12.117       58.955       35.301       27.780     3475.685     1246.145      771.719        0.604        0.275       80.293       29.956        0.139      344.398       21.187      867.360
05/14/2014  22:14:00     -134.636      -15.272       -3.712       59.846       44.125       26.730     3581.578     1947.045      714.497        1.231        0.312      135.499       28.153        0.043      344.498       21.358      867.375
05/14/2014  22:15:00      -89.344       24.853       -5.234       39.464       26.160       13.252     1557.372      684.344      175.619        0.552        0.121       92.736       14.123        0.023      344.299       21.019      867.376
05/14/2014  22:16:00     -108.609      -12.298      -14.869       33.965       28.721       23.069     1153.643      824.903      532.181        0.734        0.126      109.303       19.921        0.033      344.378       21.155      867.379
05/14/2014  22:17:00      -53.619      -28.706        7.910       51.677       45.423       19.780     2670.510     2063.293      391.232        0.444        0.256       60.820       22.030        0.131      344.248       20.931      867.380
05/14/2014  22:18:00      -95.338      -19.471       -5.507       32.749       42.233       25.320     1072.522     1783.615      641.082        0.650        0.175       97.306       21.553        0.049      344.338       21.086      867.376
05/14/2014  22:19:00     -105.871      -31.599       -6.471       26.926       32.605       18.082      725.001     1063.057      326.974        0.718        0.106      110.486       12.437        0.013      344.324       21.061      867.383
05/14/2014  22:20:00     -103.893        2.246      -18.395       32.342       39.293       21.134     1046.005     1543.958      446.625        0.709        0.152      103.917       19.632        0.036      344.316       21.049      867.384
05/14/2014  22:21:00     -121.303       -5.801      -16.393       44.173       30.769       22.837     1951.225      946.724      521.526        0.922        0.171      121.441       18.345        0.023      344.262       20.953      867.383
05/14/2014  22:22:00     -123.281      -42.821      -24.714       46.764       47.202       23.909     2186.887     2227.982      571.627        1.131        0.249      130.506        8.063        0.004      344.351       21.108      867.388
05/14/2014  22:23:00     -149.538      -18.768      -19.005       29.093       28.396       18.555      846.383      806.350      344.293        1.254        0.100      150.711       14.081        0.009      344.351       21.107      867.388
05/14/2014  22:24:00     -103.138      -31.460      -12.633       26.894       30.971       17.710      723.294      959.201      313.632        0.689        0.100      107.830       10.825        0.010      344.341       21.091      867.386
05/14/2014  22:25:00      -66.824      -14.497       -9.057       44.302       22.072       14.740     1962.711      487.190      217.276        0.371        0.133       68.379       16.364        0.057      344.327       21.068      867.388
05/14/2014  22:26:00      -49.560       -2.699       -0.118       20.700       13.576       10.771      428.475      184.315      116.023        0.160        0.036       49.634        5.922        0.014      344.308       21.035      867.399
05/14/2014  22:27:00     -100.316      -13.027       -8.276       23.188       38.775       18.115      537.698     1503.511      328.140        0.633        0.118      101.159        8.734        0.007      344.352       21.109      867.431
05/14/2014  22:28:00      -35.737       35.979       -2.299       33.666       15.108       11.407     1133.404      228.266      130.115        0.203        0.075       50.711       11.425        0.051      344.207       20.863      867.441
05/14/2014  22:29:00       58.116       -7.363        1.950       48.099       23.475       26.972     2313.471      551.082      727.496        0.351        0.180       58.580       11.411        0.038      343.014       18.825      867.445
05/14/2014  22:30:00       31.858        7.392       13.494       32.639       21.732       21.598     1065.335      472.272      466.478        0.163        0.100       32.705       16.085        0.242      343.542       19.728      867.467
05/14/2014  22:31:00       70.250       62.686       12.143       44.371       43.993       27.269     1968.778     1935.404      743.616        0.683        0.232       94.152       21.504        0.052      343.659       19.925      867.495
05/14/2014  22:32:00       94.055       84.218       52.005       74.767       39.602       44.083     5590.176     1568.328     1943.308        1.387        0.455      126.250       43.905        0.121      343.590       19.809      867.494
05/14/2014  22:33:00       21.605       37.153       57.033       43.784       38.006       32.164     1917.020     1444.464     1034.522        0.475        0.220       42.978       25.898        0.363      343.252       19.233      867.510
05/14/2014  22:34:00       72.972       70.778       60.534       51.439       44.403       46.186     2645.951     1971.665     2133.122        1.037        0.338      101.658       37.201        0.134      343.095       18.966      867.517
05/14/2014  22:35:00       65.640       78.606       70.281       44.029       37.673       33.891     1938.563     1419.270     1148.584        0.997        0.225      102.408       23.219        0.051      343.278       19.277      867.523
05/14/2014  22:36:00       43.402       33.285       33.108       28.204       28.242       29.771      795.438      797.608      886.324        0.328        0.124       54.696       12.253        0.050      343.292       19.301      867.534
05/14/2014  22:37:00       69.832       44.864       25.702       36.822       30.663       29.290     1355.887      940.216      857.909        0.535        0.158       83.002       18.989        0.052      343.021       18.840      867.540
05/14/2014  22:38:00       85.252       67.946       22.850       28.078       25.894       28.116      788.399      670.496      790.503        0.733        0.112      109.016       15.390        0.020      343.025       18.846      867.526
05/14/2014  22:39:00       81.356       50.024       -7.841       24.647       24.659       19.387      607.474      608.074      375.845        0.539        0.080       95.505       11.634        0.015      343.314       19.339      867.535
05/14/2014  22:40:00      107.160       50.753       19.866       26.204       30.529       29.222      686.629      932.000      853.928        0.846        0.124      118.571       12.415        0.011      343.263       19.250      867.523
05/14/2014  22:41:00      125.756       77.880        9.270       24.942       31.070       34.864      622.105      965.326     1215.484        1.238        0.140      147.919       15.079        0.010      343.109       18.989      867.507
05/14/2014  22:42:00       98.448       51.628       30.182       56.788       35.243       31.641     3224.925     1242.064     1001.145        0.937        0.273      111.164       26.256        0.056      343.535       19.715      867.500
05/14/2014  22:43:00      -48.755      -13.935       17.313       27.065       24.973       16.539      732.526      623.633      273.548        0.225        0.081       50.707       13.277        0.069      343.204       19.151      867.498
05/14/2014  22:44:00      -67.757        9.722       -2.827       13.108       12.196        8.540      171.822      148.743       72.937        0.254        0.020       68.451        2.844        0.002      343.330       19.366      867.512
05/14/2014  22:45:00      -31.442        8.728       -3.506       17.250       11.599        9.974      297.559      134.546       99.482        0.080        0.027       32.631        6.541        0.040      343.546       19.734      867.500
05/14/2014  22:46:00      -31.534       -0.488        3.948       11.958       14.221       10.926      142.989      202.239      119.374        0.074        0.023       31.538        8.288        0.069      343.636       19.886      867.498
05/14/2014  22:47:00      -22.029       19.942       -4.461       17.404        9.738       10.101      302.895       94.836      102.035        0.070        0.025       29.714        8.322        0.078      343.885       20.311      867.482
05/14/2014  22:48:00       14.510       32.325        6.655       31.820       14.167       14.552     1012.514      200.705      211.754        0.136        0.071       35.432       16.579        0.219      343.750       20.083      867.486
05/14/2014  22:49:00       48.364       -3.648        5.943       22.753       20.334       24.801      517.692      413.475      615.091        0.197        0.077       48.501       12.743        0.069      343.135       19.034      867.475
05/14/2014  22:50:00       23.391      -10.210        6.974       21.420       19.935       16.191      458.806      397.390      262.151        0.091        0.056       25.523       12.435        0.237      343.252       19.232      867.476
05/14/2014  22:51:00       25.208      -26.234        1.941       12.282       13.222       13.174      150.847      174.817      173.543        0.091        0.025       36.383        6.406        0.031      343.911       20.357      867.485
05/14/2014  22:52:00      -39.109       -3.834        2.077       41.014        9.600       13.911     1682.158       92.157      193.507        0.176        0.098       39.297       23.013        0.343      343.589       19.807      867.491
05/14/2014  22:53:00      -64.119       -1.629       -5.692       19.314       14.548       11.889      373.017      211.646      141.339        0.244        0.036       64.140       10.103        0.025      343.578       19.788      867.497
05/14/2014  22:54:00      -69.630      -13.874       -5.203       21.763       11.363       10.714      473.614      129.118      114.798        0.289        0.036       70.999       10.730        0.023      343.766       20.108      867.500
05/14/2014  22:55:00      -59.259        1.873        2.917       25.453       16.659       12.312      647.869      277.521      151.578        0.230        0.054       59.289       13.443        0.051      343.705       20.005      867.509
05/14/2014  22:56:00     -123.489      -31.615       -8.864       23.210       20.320       14.135      538.702      412.898      199.812        0.874        0.058      127.471       12.797        0.010      343.436       19.546      867.509
05/14/2014  22:57:00     -117.812      -27.107        5.243       48.782       35.242       24.634     2379.679     1241.979      606.824        0.943        0.211      120.890       26.746        0.049      343.212       19.165      867.516
05/14/2014  22:58:00      -86.967       22.197       -0.950       52.761       26.624       18.010     2783.727      708.856      324.360        0.594        0.191       89.755       25.323        0.080      343.370       19.435      867.513
05/14/2014  22:59:00      -23.741       25.322        7.632       20.650       27.300       17.871      426.413      745.267      319.382        0.138        0.075       34.710        6.761        0.038      343.314       19.338      867.504
05/14/2014  23:00:00      -61.525      -28.428       -2.041       22.237       26.733       15.326      494.474      714.644      234.901        0.302        0.072       67.775       10.495        0.024      343.466       19.598      867.514
05/14/2014  23:01:00      -78.455       13.619       -6.939       53.632       29.854       20.928     2876.440      891.242      437.963        0.530        0.210       79.629       20.657        0.067      343.148       19.055      867.525
05/14/2014  23:02:00        0.512       10.593       10.663       25.233       27.396       25.745      636.715      750.559      662.804        0.114        0.103       10.605       20.235        3.640      342.902       18.637      867.533
05/14/2014  23:03:00      -57.450      -32.202       -2.110       34.505       26.477       20.279     1190.599      701.042      411.240        0.332        0.115       65.859       11.097        0.028      343.143       19.048      867.546
05/14/2014  23:04:00      -78.724      -32.534       -7.652       27.450       22.420       13.471      753.523      502.659      181.472        0.438        0.072       85.182        5.903        0.005      343.142       19.046      867.554
05/14/2014  23:05:00      -32.468       -4.180       -0.649       23.506       16.808       13.647      552.514      282.509      186.235        0.105        0.051       32.736        7.455        0.052      342.961       18.738      867.557
05/14/2014  23:06:00     -108.147        4.762       -8.745       26.894       16.110       16.353      723.303      259.520      267.409        0.652        0.063      108.252       15.620        0.021      343.166       19.085      867.558
05/14/2014  23:07:00      -43.852      -21.533        1.728       21.257       16.235       11.633      451.879      263.577      135.315        0.162        0.043       48.853        8.446        0.030      343.175       19.102      867.564
05/14/2014  23:08:00      -83.490      -43.992       -0.975       27.801       18.210       13.193      772.913      331.619      174.049        0.509        0.064       94.371        5.131        0.003      343.362       19.421      867.567
05/14/2014  23:09:00      -77.994      -25.774        3.946       34.946       21.986       14.412     1221.227      483.396      207.714        0.434        0.096       82.143       19.038        0.054      343.091       18.959      867.571
05/14/2014  23:10:00      -54.997      -19.388        6.520       35.392       39.158       21.805     1252.604     1533.359      475.447        0.335        0.163       58.314       20.088        0.119      342.862       18.568      867.582
05/14/2014  23:11:00      -97.535      -51.415       -0.240       43.471       35.870       19.190     1889.743     1286.663      368.271        0.785        0.177      110.256       24.761        0.050      343.181       19.113      867.572
05/14/2014  23:12:00     -160.363      -75.988       -4.577       45.105       32.008       26.986     2034.437     1024.529      728.271        1.765        0.189      177.455       17.143        0.009      343.142       19.045      867.575
05/14/2014  23:13:00     -120.133      -71.363       -2.371       58.627       51.238       28.126     3437.086     2625.288      791.070        1.319        0.343      139.730       22.765        0.027      343.088       18.954      867.586
05/14/2014  23:14:00     -106.303      -44.059        4.841       59.532       54.699       29.685     3544.035     2991.984      881.207        1.034        0.371      115.072       29.555        0.066      343.049       18.886      867.579
05/14/2014  23:15:00     -136.235      -51.553       -5.229       33.200       30.888       16.540     1102.271      954.073      273.586        1.179        0.116      145.662       19.427        0.018      343.160       19.077      867.581
05/14/2014  23:16:00     -124.596      -12.552        1.029       65.801       40.742       23.934     4329.709     1659.874      572.831        1.112        0.328      125.226       31.543        0.063      343.110       18.991      867.583
05/14/2014  23:17:00     -149.904      -45.759        2.305       45.767       36.664       21.444     2094.625     1344.252      459.848        1.423        0.195      156.733       18.438        0.014      343.130       19.025      867.579
05/14/2014  23:18:00      -94.619      -29.453        7.387       59.635       46.604       28.460     3556.367     2171.947      809.999        0.821        0.327       99.097       28.345        0.082      342.991       18.788      867.575
05/14/2014  23:19:00     -149.373      -36.107       -1.717       47.972       39.850       23.815     2301.286     1588.025      567.163        1.404        0.223      153.675       20.847        0.018      343.015       18.829      867.569
05/14/2014  23:20:00     -141.626      -43.854        1.149       44.605       41.651       25.623     1989.612     1734.807      656.556        1.318        0.219      148.261       20.535        0.019      342.975       18.761      867.554
05/14/2014  23:21:00     -154.034      -44.927       -2.873       46.929       40.584       26.201     2202.369     1647.095      686.472        1.514        0.227      160.452       23.718        0.022      342.930       18.685      867.541
05/14/2014  23:22:00     -194.041      -76.336       -5.348       25.415       31.031       23.774      645.917      962.952      565.181        2.284        0.109      208.517       16.904        0.007      343.004       18.810      867.538
05/14/2014  23:23:00     -129.391      -65.885        1.761       53.779       43.587       30.814     2892.234     1899.855      949.506        1.341        0.287      145.200       29.183        0.040      342.975       18.761      867.531
05/14/2014  23:24:00     -146.807      -74.867        1.840       48.116       41.827       26.240     2315.183     1749.496      688.541        1.596        0.238      164.795       24.377        0.022      342.988       18.782      867.531
05/14/2014  23:25:00     -125.514      -68.785       -3.771       62.619       43.483       25.637     3921.185     1890.744      657.241        1.348        0.323      143.126       26.969        0.036      343.054       18.896      867.532
05/14/2014  23:26:00     -127.548      -67.927        4.567       54.503       38.376       21.851     2970.571     1472.687      477.454        1.291        0.246      144.508       24.316        0.028      343.034       18.862      867.532
05/14/2014  23:27:00      -87.405      -38.961        3.138       68.854       46.811       26.363     4740.826     2191.290      695.012        0.840        0.381       95.695       28.685        0.090      342.882       18.603      867.543
05/14/2014  23:28:00     -156.131      -31.501        1.743       68.425       51.692       31.731     4682.010     2672.049     1006.861        1.686        0.418      159.277       35.135        0.049      342.918       18.663      867.531
05/14/2014  23:29:00     -136.146      -28.810        4.559       68.758       52.056       30.119     4727.698     2709.848      907.151        1.386        0.417      139.161       32.598        0.055      342.830       18.513      867.521
05/14/2014  23:30:00     -168.603       -7.021      -10.203       61.405       39.373       27.552     3770.525     1550.269      759.091        1.733        0.304      168.749       27.814        0.027      342.667       18.235      867.527
05/14/2014  23:31:00     -151.763      -27.470       -6.491       50.594       47.540       28.898     2559.709     2260.097      835.094        1.474        0.283      154.229       25.893        0.028      342.702       18.295      867.526
05/14/2014  23:32:00     -165.619      -10.615      -11.219       62.768       40.908       32.882     3939.781     1673.477     1081.224        1.718        0.335      165.958       35.934        0.047      342.619       18.154      867.518
05/14/2014  23:33:00     -195.210      -15.006      -18.448       50.228       43.981       32.369     2522.847     1934.290     1047.759        2.209        0.275      195.786       29.605        0.023      342.724       18.331      867.509
05/14/2014  23:34:00     -217.960        7.655      -20.145       46.439       31.817       23.843     2156.538     1012.300      568.490        2.585        0.187      218.094       25.878        0.014      342.694       18.280      867.498
05/14/2014  23:35:00     -183.861      -24.792      -17.522       48.356       58.994       27.042     2338.346     3480.318      731.291        2.064        0.327      185.525       25.504        0.019      342.565       18.061      867.496
05/14/2014  23:36:00     -137.899      -38.776      -15.636       55.397       61.624       30.131     3068.850     3797.483      907.894        1.427        0.389      143.247       29.606        0.043      342.541       18.022      867.495
05/14/2014  23:37:00     -151.168      -56.586      -11.089       43.191       54.803       30.676     1865.493     3003.349      941.038        1.599        0.290      161.412       23.856        0.022      342.604       18.129      867.498
05/14/2014  23:38:00     -203.146      -13.036      -24.659       49.332       40.910       32.477     2433.655     1673.624     1054.767        2.360        0.258      203.564       30.112        0.022      342.654       18.213      867.497
05/14/2014  23:39:00     -145.806      -26.965       -6.679       56.521       42.822       27.552     3194.667     1833.683      759.132        1.391        0.289      148.278       29.034        0.038      342.678       18.255      867.509
05/14/2014  23:40:00     -125.224      -24.953       -8.299       33.678       37.183       26.120     1134.200     1382.609      682.270        0.979        0.160      127.686       17.542        0.019      342.680       18.259      867.508
05/14/2014  23:41:00     -114.123      -53.557      -10.222       29.914       28.860       20.299      894.865      832.928      412.067        0.907        0.107      126.065       12.296        0.010      342.674       18.249      867.516
05/14/2014  23:42:00      -10.169      -21.268       13.554       25.408       31.676       18.567      645.574     1003.371      344.722        0.137        0.100       23.574       17.161        0.530      342.452       17.871      867.554
05/14/2014  23:43:00      -78.028      -33.455        1.377       55.357       44.185       26.583     3064.421     1952.310      706.662        0.647        0.286       84.898       35.948        0.179      342.460       17.886      867.572
05/14/2014  23:44:00      -90.061      -31.768       -6.321       25.833       26.196       15.146      667.347      686.243      229.389        0.537        0.079       95.500       14.883        0.024      342.630       18.173      867.571
05/14/2014  23:45:00      -32.077       -8.918        3.069       24.867       31.845       16.388      618.382     1014.096      268.566        0.151        0.095       33.294       16.924        0.258      342.504       17.960      867.572
05/14/2014  23:46:00      -96.003      -51.346       -0.030       29.505       21.970       15.965      870.534      482.672      254.883        0.673        0.080      108.872        9.904        0.008      342.689       18.275      867.569
05/14/2014  23:47:00      -37.441      -20.152        4.316       43.854       19.768       18.219     1923.150      390.772      331.927        0.224        0.132       42.520       20.254        0.227      342.445       17.860      867.562
05/14/2014  23:48:00      -76.955      -28.322        2.033       34.560       27.358       13.528     1194.409      748.472      183.013        0.443        0.106       82.001       11.681        0.020      342.509       17.967      867.571
05/14/2014  23:49:00      -94.979      -36.898        1.005       24.599       22.156       16.615      605.090      490.876      276.053        0.588        0.069      101.894       14.881        0.021      342.568       18.068      867.557
05/14/2014  23:50:00      -56.257      -21.438        4.139       32.686       21.296       17.457     1068.380      453.522      304.762        0.273        0.091       60.203       17.124        0.081      342.399       17.780      867.548
05/14/2014  23:51:00      -72.269      -10.841       -1.755       33.400       15.286       14.238     1115.529      233.657      202.728        0.345        0.078       73.078       17.792        0.059      342.327       17.659      867.551
05/14/2014  23:52:00      -59.141      -22.752       -0.682       29.631       21.914       16.288      877.976      480.202      265.288        0.282        0.081       63.367       17.124        0.073      342.388       17.761      867.542
05/14/2014  23:53:00      -66.870       -9.624        1.091       23.516       20.052       13.985      553.003      402.070      195.587        0.286        0.058       67.559       11.678        0.030      342.358       17.711      867.535
05/14/2014  23:54:00      -59.986      -20.877        3.699       35.832       21.862       14.536     1283.937      477.960      211.290        0.301        0.099       63.515       17.592        0.077      342.355       17.707      867.543
05/14/2014  23:55:00     -101.742      -14.194       -0.070       31.797       28.392       19.452     1011.062      806.120      378.374        0.637        0.110      102.727       17.650        0.030      342.351       17.699      867.539
05/14/2014  23:56:00      -70.012      -14.702        6.077       38.611       34.588       22.331     1490.782     1196.312      498.663        0.417        0.159       71.539       17.541        0.060      342.258       17.541      867.535
05/14/2014  23:57:00      -78.724      -21.771        9.213       40.674       39.536       23.127     1654.384     1563.062      534.839        0.525        0.188       81.679       14.819        0.033      342.294       17.604      867.557
05/14/2014  23:58:00     -109.356      -36.345        0.251       34.574       23.186       15.330     1195.375      537.590      235.000        0.762        0.098      115.238       16.273        0.020      342.456       17.878      867.551
05/14/2014  23:59:00      -55.434      -28.767        8.080       29.892       25.351       17.180      893.553      642.666      295.139        0.290        0.092       62.453       15.149        0.059      342.189       17.424      867.545
